[[{"header":{"parameterUnit":"m.s-1","parameterCategory":1,"la1":31.0,"la2":29.5877,"lo1":-88.7671,"lo2":-86.6584,"dy":0.0162,"dx":0.0185,"nx":115,"ny":88,"refTime":"2024-07-11T12:00:00:Z","depth":0,"parameterNumber":2,"parameterNumberName":"U-component_of_WINDS"},"data":[0.0,0.0,0.0,0.0,0.0,0.0,0.0,0.0,0.0,0.0,0.0,0.0,0.0,0.0,0.0,0.0,0.0,0.0,0.0,0.0,0.0,0.0,0.0,0.0,0.0,0.0,0.0,0.0,0.0,0.0,0.0,0.0,0.0,0.0,0.0,0.0,0.0,0.0,0.0,0.0,0.0,0.0,0.0,0.0,0.0,0.0,0.0,0.0,0.0,0.0,0.0,0.0,0.0,0.0,0.0,0.0,0.0,0.0,0.0,0.0,0.0,0.0,0.0,0.0,0.0,0.0,0.0,0.0,0.0,0.0,0.0,0.0,0.0,0.0,0.0,0.0,0.0,0.0,0.0,0.0,0.0,0.0,0.0,0.0,0.0,0.0,0.0,0.0,0.0,0.0,0.0,0.0,0.0,0.0,0.0,0.0,0.0,0.0,0.0,0.0,0.0,0.0,0.0,0.0,0.0,0.0,0.0,0.0,0.0,0.0,0.0,0.0,0.0,0.0,0.0,0.0,0.0,0.0,0.0,0.0,0.0,0.0,0.0,0.0,0.0,0.0,0.0,0.0,0.0,0.0,0.0,0.0,0.0,0.0,0.0,0.0,0.0,0.0,0.0,0.0,0.0,0.0,0.0,0.0,0.0,0.0,0.0,0.0,0.0,0.0,0.0,0.0,0.0,0.0,0.0,0.0,0.0,0.0,0.0,0.0,0.0,0.0,0.0,0.0,0.0,0.0,0.0,0.0,0.0,0.0,0.0,0.0,0.0,0.0,0.0,0.0,0.0,0.0,0.0,0.0,0.0,0.0,0.0,0.0,0.0,0.0,0.0,0.0,0.0,0.0,0.0,0.0,0.0,0.0,0.0,0.0,0.0,0.0,0.0,0.0,0.0,0.0,0.0,0.0,0.0,0.0,0.0,0.0,0.0,0.0,0.0,0.0,0.0,0.0,0.0,0.0,0.0,0.0,0.0,0.0,0.0,0.0,0.0,0.0,0.0,0.0,0.0,0.0,0.0,0.0,0.0,0.0,0.0,0.0,0.0,0.0,0.0,0.0,0.0,0.0,0.0,0.0,0.0,0.0,0.0,0.0,0.0,0.0,0.0,0.0,0.0,0.0,0.0,0.0,0.0,0.0,0.0,0.0,0.0,0.0,0.0,0.0,0.0,0.0,0.0,0.0,0.0,0.0,0.0,0.0,0.0,0.0,0.0,0.0,0.0,0.0,0.0,0.0,0.0,0.0,0.0,0.0,0.0,0.0,0.0,0.0,0.0,0.0,0.0,0.0,0.0,0.0,0.0,0.0,0.0,0.0,0.0,0.0,0.0,0.0,0.0,0.0,0.0,0.0,0.0,0.0,0.0,0.0,0.0,0.0,0.0,0.0,0.0,0.0,0.0,0.0,0.0,0.0,0.0,0.0,0.0,0.0,0.0,0.0,0.0,0.0,0.0,0.0,0.0,0.0,0.0,0.0,0.0,0.0,0.0,0.0,0.0,0.0,0.0,0.0,0.0,0.0,0.0,0.0,0.0,0.0,0.0,0.0,0.0,0.0,0.0,0.0,0.0,0.0,0.0,0.0,0.0,0.0,0.0,0.0,0.0,0.0,0.0,0.0,0.0,0.0,0.0,0.0,0.0,0.0,0.0,0.0,0.0,0.0,0.0,0.0,0.0,0.0,0.0,0.0,0.0,0.0,0.0,0.0,0.0,0.0,0.0,0.0,0.0,0.0,0.0,0.0,0.0,0.0,0.0,0.0,0.0,0.0,0.0,0.0,0.0,0.0,0.0,0.0,0.0,0.0,0.0,0.0,0.0,0.0,0.0,0.0,0.0,0.0,0.0,0.0,0.0,0.0,0.0,0.0,0.0,0.0,0.0,0.0,0.0,0.0,0.0,0.0,0.0,0.0,0.0,0.0,0.0,0.0,0.0,0.0,0.0,0.0,0.0,0.0,0.0,0.0,0.0,0.0,0.0,0.0,0.0,0.0,0.0,0.0,0.0,0.0,0.0,0.0,0.0,0.0,0.0,0.0,0.0,0.0,0.0,0.0,0.0,0.0,0.0,0.0,0.0,0.0,0.0,0.0,0.0,0.0,0.0,0.0,0.0,0.0,0.0,0.0,0.0,0.0,0.0,0.0,0.0,0.0,0.0,0.0,0.0,0.0,0.0,0.0,0.0,0.0,0.0,0.0,0.0,0.0,0.0,0.0,0.0,0.0,0.0,0.0,0.0,0.0,0.0,0.0,0.0,0.0,0.0,0.0,0.0,0.0,0.0,0.0,0.0,0.0,0.0,0.0,0.0,0.0,0.0,0.0,0.0,0.0,0.0,0.0,0.0,0.0,0.0,0.0,0.0,0.0,0.0,0.0,0.0,0.0,0.0,0.0,0.0,0.0,0.0,0.0,0.0,0.0,0.0,0.0,0.0,0.0,0.0,0.0,0.0,0.0,0.0,0.0,0.0,0.0,0.0,0.0,0.0,0.0,0.0,0.0,0.0,0.0,0.0,0.0,0.0,0.0,0.0,0.0,0.0,0.0,0.0,0.0,0.0,0.0,0.0,0.0,0.0,0.0,0.0,0.0,0.0,0.0,0.0,0.0,0.0,0.0,0.0,0.0,0.0,0.0,0.0,0.0,0.0,0.0,0.0,0.0,0.0,0.0,0.0,0.0,0.0,0.0,0.0,0.0,0.0,0.0,0.0,0.0,0.0,0.0,0.0,0.0,0.0,0.0,0.0,0.0,0.0,0.0,0.0,0.0,0.0,0.0,0.0,0.0,0.0,0.0,0.0,0.0,0.0,0.0,0.0,0.0,0.0,0.0,0.0,0.0,0.0,0.0,0.0,0.0,0.0,0.0,0.0,0.0,0.0,0.0,0.0,0.0,0.0,0.0,0.0,0.0,0.0,0.0,0.0,0.0,0.0,0.0,0.0,0.0,0.0,0.0,0.0,0.0,0.0,0.0,0.0,0.0,0.0,0.0,0.0,0.0,0.0,0.0,0.0,0.0,0.0,0.0,0.0,0.0,0.0,0.0,0.0,0.0,0.0,0.0,0.0,0.0,0.0,0.0,0.0,0.0,0.0,0.0,0.0,0.0,0.0,0.0,0.0,0.0,0.0,0.0,0.0,0.0,0.0,0.0,0.0,0.0,0.0,0.0,0.0,0.0,0.0,0.0,0.0,0.0,0.0,0.0,0.0,0.0,0.0,0.0,0.0,0.0,0.0,0.0,0.0,0.0,0.0,0.0,0.0,0.0,0.0,0.0,0.0,0.0,0.0,0.0,0.0,0.0,0.0,0.0,0.0,0.0,0.0,0.0,0.0,0.0,0.0,0.0,0.0,0.0,0.0,0.0,0.0,0.0,0.0,0.0,0.0,0.0,0.0,0.0,0.0,0.0,0.0,0.0,0.0,0.0,0.0,0.0,0.0,0.0,0.0,0.0,0.0,0.0,0.0,0.0,0.0,0.0,0.0,0.0,0.0,0.0,0.0,0.0,0.0,0.0,0.0,0.0,0.0,0.0,0.0,0.0,0.0,0.0,0.0,0.0,0.0,0.0,0.0,0.0,0.0,0.0,0.0,0.0,0.0,0.0,0.0,0.0,0.0,0.0,0.0,0.0,0.0,0.0,0.0,0.0,0.0,0.0,0.0,0.0,0.0,0.0,0.0,0.0,0.0,0.0,0.0,0.0,0.0,0.0,0.0,0.0,0.0,0.0,0.0,0.0,0.0,0.0,0.0,0.0,0.0,0.0,0.0,0.0,0.0,0.0,0.0,0.0,0.0,0.0,0.0,0.0,0.0,0.0,0.0,0.0,0.0,0.0,0.0,0.0,0.0,0.0,0.0,0.0,0.0,0.0,0.0,0.0,0.0,0.0,0.0,0.0,0.0,0.0,0.0,0.0,0.0,0.0,0.0,0.0,0.0,0.0,0.0,0.0,0.0,0.0,0.0,0.0,0.0,0.0,0.0,0.0,0.0,0.0,0.0,0.0,0.0,0.0,0.0,0.0,0.0,0.0,0.0,0.0,0.0,0.0,0.0,0.0,0.0,0.0,0.0,0.0,0.0,0.0,0.0,0.0,0.0,0.0,0.0,0.0,0.0,0.0,0.0,0.0,0.0,0.0,0.0,0.0,0.0,0.0,0.0,0.0,0.0,0.0,0.0,0.0,0.0,0.0,0.0,0.0,0.0,0.0,0.0,0.0,0.0,0.0,0.0,0.0,0.0,0.0,0.0,0.0,0.0,0.0,0.0,0.0,0.0,0.0,0.0,0.0,0.0,0.0,1.2688,0.0,0.0,0.0,0.0,0.0,0.0,0.0,0.0,0.0,0.0,0.0,0.0,0.0,0.0,0.0,0.0,0.0,0.0,0.0,0.0,0.0,0.0,0.0,0.0,0.0,0.0,0.0,0.0,0.0,0.0,0.0,0.0,0.0,0.0,0.0,0.0,0.0,0.0,0.0,0.0,0.0,0.0,0.0,0.0,0.0,0.0,0.0,0.0,0.0,0.0,0.0,0.0,0.0,0.0,0.0,0.0,0.0,0.0,0.0,0.0,0.0,0.0,0.0,0.0,0.0,0.0,0.0,0.0,0.0,0.0,0.0,0.0,0.0,0.0,0.0,0.0,0.0,0.0,0.0,0.0,0.0,0.0,0.0,0.0,0.0,0.0,0.0,0.0,0.0,0.0,0.0,0.0,0.0,0.0,0.0,0.0,0.0,0.0,0.0,0.0,0.0,0.0,0.0,0.0,0.0,0.0,0.0,0.0,0.0,0.0,1.5014,1.5115,1.3783,1.2048,0.9868,0.0,0.0,0.0,0.0,0.0,0.0,0.0,0.0,0.0,0.0,0.0,0.0,0.0,0.0,0.0,0.0,0.0,0.0,0.0,0.0,0.0,0.0,0.0,0.0,0.0,0.0,0.0,0.0,0.0,0.0,0.0,0.0,0.0,0.0,0.0,0.0,0.0,0.0,0.0,0.0,0.0,0.0,0.0,0.0,0.0,0.0,0.0,0.0,0.0,0.0,0.0,0.0,0.0,0.0,0.0,0.0,0.0,0.0,0.0,0.0,0.0,0.0,0.0,0.0,0.0,0.0,0.0,0.0,0.0,0.0,0.0,0.0,0.0,0.0,0.0,0.0,0.0,0.0,0.0,0.0,0.0,0.0,0.0,0.0,0.0,0.0,0.0,0.0,0.0,0.0,0.0,0.0,0.0,0.0,0.0,0.0,0.0,0.0,0.0,0.0,0.0,0.0,0.0,0.0,0.0,0.0,0.0,0.0,0.0,0.0,0.0,0.0,1.3189,1.0172,0.6361,0.0,0.0,0.0,0.0,0.0,0.0,0.0,0.0,0.0,0.0,0.0,0.0,0.0,0.0,0.0,0.0,0.0,0.0,0.0,0.0,0.0,0.0,0.0,0.0,0.0,0.0,0.0,0.0,0.0,0.0,0.0,0.0,0.0,0.0,0.0,0.0,0.0,0.0,0.0,0.0,0.0,0.0,0.0,0.0,0.0,0.0,0.0,0.0,0.0,0.0,0.0,0.0,0.0,0.0,0.0,0.0,0.0,0.0,0.0,0.0,0.0,0.0,0.0,0.0,0.0,0.0,0.0,0.0,0.0,0.0,0.0,0.0,0.0,0.0,0.0,0.0,0.0,0.0,0.0,0.0,0.0,0.0,0.0,0.0,0.0,0.0,0.0,0.0,0.0,0.0,0.0,0.0,0.0,0.0,0.0,0.0,0.0,0.0,0.0,0.0,0.0,0.0,0.0,0.0,0.0,0.0,0.0,0.0,0.0,0.0,1.5518,1.6359,1.2358,0.0,0.2998,0.0,0.0,0.0,0.0,0.0,0.0,0.0,0.0,0.0,0.0,0.0,0.0,0.0,0.0,0.0,0.0,0.0,0.0,0.0,0.0,0.0,0.0,0.0,0.0,0.0,0.0,0.0,0.0,0.0,0.0,0.0,0.0,0.0,0.0,0.0,0.0,0.0,0.0,0.0,0.0,0.0,0.0,0.0,0.0,0.0,0.0,0.0,0.0,0.0,0.0,0.0,0.0,0.0,0.0,0.0,0.0,0.0,0.0,0.0,0.0,0.0,0.0,0.0,0.0,0.0,0.0,0.0,0.0,0.0,0.0,0.0,0.0,0.0,0.0,0.0,0.0,0.0,0.0,0.0,0.0,0.0,0.0,0.0,0.0,0.0,0.0,0.0,0.0,0.0,0.0,0.0,0.0,0.0,0.0,0.0,0.0,0.0,0.0,0.0,0.0,0.0,0.0,0.0,0.0,0.0,0.0,0.0,0.0,0.0,0.0,1.4544,1.3494,0.7032,0.158,0.0,0.0,0.0,0.0,0.0,0.0,0.0,0.0,0.0,0.0,0.0,0.0,0.0,0.0,0.0,0.0,0.0,0.0,0.0,0.0,0.0,0.0,0.0,0.0,0.0,0.0,0.0,0.0,0.0,0.0,0.0,0.0,0.0,0.0,0.0,0.0,0.0,0.0,0.0,0.0,0.0,0.0,0.0,0.0,0.0,0.0,0.0,0.0,0.0,0.0,0.0,0.0,0.0,0.0,0.0,0.0,0.0,0.0,0.0,0.0,0.0,0.0,0.0,0.0,0.0,0.0,0.0,0.0,0.0,0.0,0.0,0.0,0.0,0.0,0.0,0.0,0.0,0.0,0.0,0.0,0.0,0.0,0.0,0.0,0.0,0.0,0.0,0.0,0.0,0.0,0.0,0.0,0.0,0.0,0.0,0.0,0.0,0.0,0.0,0.0,0.0,0.0,0.0,0.0,0.0,0.0,0.0,0.0,0.0,0.0,1.2305,0.0,0.7531,0.1173,-0.3603,-0.6303,0.0,0.0,0.0,0.0,0.0,0.0,0.0,0.0,0.0,0.0,0.0,0.0,0.0,0.0,0.0,0.0,0.0,0.0,0.0,0.0,0.0,0.0,0.0,0.0,0.0,0.0,0.0,0.0,0.0,0.0,0.0,0.0,0.0,0.0,0.0,0.0,0.0,0.0,0.0,0.0,0.0,0.0,0.0,0.0,0.0,0.0,0.0,0.0,0.0,0.0,0.0,0.0,0.0,0.0,0.0,0.0,0.0,0.0,0.0,0.0,0.0,0.0,0.0,0.0,0.0,0.0,0.0,0.0,0.0,0.0,0.0,0.0,0.0,0.0,0.0,0.0,0.0,0.0,0.0,0.0,0.0,0.0,0.0,0.0,0.0,0.0,0.0,0.0,0.0,0.0,0.0,0.0,0.0,0.0,0.0,0.0,0.0,0.0,0.0,0.0,0.0,0.0,0.0,0.0,0.0,0.0,0.0,0.0,0.0,0.5348,0.2471,-0.1178,-0.4305,-0.6248,0.0,0.0,0.0,0.0,0.0,0.0,0.0,0.0,0.0,0.0,0.0,0.0,0.0,0.0,0.0,0.0,0.0,0.0,0.0,0.0,0.0,0.0,0.0,0.0,0.0,0.0,0.0,0.0,0.0,0.0,0.0,0.0,0.0,0.0,0.0,0.0,0.0,0.0,0.0,0.0,0.0,0.0,0.0,0.0,0.0,0.0,0.0,0.0,0.0,0.0,0.0,0.0,0.0,0.0,0.0,0.0,0.0,0.0,0.0,0.0,0.0,0.0,0.0,0.0,0.0,0.0,0.0,0.0,0.0,0.0,0.0,0.0,0.0,0.0,0.0,0.0,0.0,0.0,0.0,0.0,0.0,0.0,0.0,0.0,0.0,0.0,0.0,0.0,0.0,0.0,0.0,0.0,0.0,0.0,0.0,0.0,0.0,0.0,0.0,0.0,0.0,0.0,0.0,0.0,0.0,0.0,0.0,0.0,0.0,0.5715,0.1358,-0.2275,-0.4931,-0.6639,-0.8173,0.0,0.0,0.0,0.0,0.0,0.0,0.0,0.0,0.0,0.0,0.0,0.0,0.0,0.0,0.0,0.0,0.0,0.0,0.0,0.0,0.0,0.0,0.0,0.0,0.0,0.0,0.0,0.0,0.0,0.0,0.0,0.0,0.0,0.0,0.0,0.0,0.0,0.0,0.0,0.0,0.0,0.0,0.0,0.0,0.0,0.0,0.0,0.0,0.0,0.0,0.0,0.0,0.0,0.0,0.0,0.0,0.0,0.0,0.0,0.0,0.0,0.0,0.0,0.0,0.0,0.0,0.0,0.0,0.0,0.0,0.0,0.0,0.0,0.0,0.0,0.0,0.0,0.0,0.0,0.0,0.0,0.0,0.0,0.0,0.0,0.0,0.0,0.0,0.0,0.0,0.0,0.0,0.0,0.0,0.0,0.0,0.0,0.0,0.0,0.0,0.0,0.0,0.0,0.0,0.0,0.0,0.0,0.0,0.0,0.0239,0.0,-0.7817,0.0,-0.9288,-0.9879,0.0,0.0,0.0,0.0,0.0,0.0,0.0,0.0,0.0,0.0,0.0,0.0,0.0,0.0,0.0,0.0,0.0,0.0,0.0,0.0,0.0,0.0,0.0,0.0,0.0,0.0,0.0,0.0,0.0,0.0,0.0,0.0,0.0,0.0,0.0,0.0,0.0,0.0,0.0,0.0,0.0,0.0,0.0,0.0,0.0,0.0,0.0,0.0,0.0,0.0,0.0,0.0,0.0,0.0,0.0,0.0,0.0,0.0,0.0,0.0,0.0,0.0,0.0,0.0,0.0,0.0,0.0,0.0,0.0,0.0,0.0,0.0,0.0,0.0,0.0,0.0,0.0,0.0,0.0,0.0,0.0,0.0,0.0,0.0,0.0,0.0,0.0,0.0,0.0,0.0,0.0,0.0,0.0,0.0,0.0,0.0,0.0,0.0,0.0,0.0,0.0,0.0,0.0,0.0,0.0,0.0,0.0,0.0,-0.2588,-0.9806,-1.3259,-1.3931,-1.2287,-1.2347,-1.1335,0.0,0.0,0.0,0.0,0.0,0.0,0.0,0.0,0.0,0.0,0.0,0.0,0.0,0.0,0.0,0.0,0.0,0.0,0.0,0.0,0.0,0.0,0.0,0.0,0.0,0.0,0.0,0.0,0.0,0.0,0.0,0.0,0.0,0.0,0.0,0.0,0.0,0.0,0.0,0.0,0.0,0.0,0.0,0.0,0.0,0.0,0.0,0.0,0.0,0.0,0.0,0.0,0.0,0.0,0.0,0.0,0.0,0.0,0.0,0.0,0.0,0.0,0.0,0.0,0.0,0.0,0.0,0.0,0.0,0.0,0.0,0.0,0.0,0.0,0.0,0.0,0.0,0.0,0.0,0.0,0.0,0.0,0.0,0.0,0.0,0.0,0.0,0.0,0.0,0.0,0.0,0.0,0.0,0.0,0.0,0.0,0.0,0.0,0.0,0.0,0.0,0.0,0.0,0.0,0.0,0.0,0.0,0.0,0.0,-1.1781,-1.3981,-1.4817,-1.4199,-1.2969,-1.1614,0.0,0.0,0.0,0.0,0.0,0.0,0.0,0.0,0.0,0.0,0.0,0.0,0.0,0.0,0.0,0.0,0.0,0.0,0.0,0.0,0.0,0.0,0.0,0.0,0.0,0.0,0.0,0.0,0.0,0.0,0.0,0.0,0.0,0.0,0.0,0.0,0.0,0.0,0.0,0.0,0.0,0.0,0.0,0.0,0.0,0.0,0.0,0.0,0.0,0.0,0.0,0.0,0.0,0.0,0.0,0.0,0.0,0.0,0.0,0.0,0.0,0.0,0.0,0.0,0.0,0.0,0.0,0.0,0.0,0.0,0.0,0.0,0.0,0.0,0.0,0.0,0.0,0.0,0.0,0.0,0.0,0.0,0.0,0.0,0.0,0.0,0.0,0.0,0.0,0.0,0.0,0.0,0.0,0.0,0.0,0.0,0.0,0.0,0.0,0.0,0.0,0.0,0.0,0.0,0.0,0.0,0.0,0.0,0.0,-1.3804,-1.4543,-1.4802,-1.4534,-1.3089,-1.1786,-1.0662,0.0,0.0,0.0,0.0,0.0,0.0,0.0,0.0,0.0,0.0,0.0,0.0,0.0,0.0,0.0,0.0,0.0,0.0,0.0,0.0,0.0,0.0,0.0,0.0,0.0,0.0,0.0,0.0,0.0,0.0,0.0,0.0,0.0,0.0,0.0,0.0,0.0,0.0,0.0,0.0,0.0,0.0,0.0,0.0,0.0,0.0,0.0,0.0,0.0,0.0,0.0,0.0,0.0,0.0,0.0,0.0,0.0,0.0,0.0,0.0,0.0,0.0,0.0,0.0,0.0,0.0,0.0,0.0,0.0,0.0,0.0,0.0,0.0,0.0,0.0,0.0,0.0,0.0,0.0,0.0,0.0,0.0,0.0,0.0,0.0,0.0,0.0,0.0,0.0,0.0,0.0,0.0,0.0,0.0,0.0,0.0,0.0,0.0,0.0,0.0,0.0,0.0,0.0,0.0,0.0,0.0,0.0,0.0,-1.5858,-1.5274,-1.4569,-1.3805,-1.3011,-1.1931,0.0,0.0,0.0,0.0,0.0,0.0,0.0,0.0,0.0,0.0,0.0,0.0,0.0,0.0,0.0,0.0,0.0,0.0,0.0,0.0,0.0,0.0,0.0,0.0,0.0,0.0,0.0,0.0,0.0,0.0,0.0,0.0,0.0,0.0,0.0,0.0,0.0,0.0,0.0,0.0,0.0,0.0,0.0,0.0,0.0,0.0,0.0,0.0,0.0,0.0,0.0,0.0,0.0,0.0,0.0,0.0,0.0,0.0,0.0,0.0,0.0,0.0,0.0,0.0,0.0,0.0,0.0,0.0,0.0,0.0,0.0,0.0,0.0,0.0,0.0,0.0,0.0,0.0,0.0,0.0,0.0,0.0,0.0,0.0,0.0,0.0,0.0,0.0,0.0,0.0,0.0,0.0,0.0,0.0,0.0,0.0,0.0,0.0,0.0,0.0,0.0,0.0,0.0,0.0,0.0,0.0,0.0,0.0,0.0,-1.546,-1.6238,-1.6236,-1.5375,-1.4084,-1.2748,0.0,0.0,0.0,0.0,0.0,0.0,0.0,0.0,0.0,0.0,0.0,0.0,0.0,0.0,0.0,0.0,0.0,0.0,0.0,0.0,0.0,0.0,0.0,0.0,0.0,0.0,0.0,0.0,0.0,0.0,0.0,0.0,0.0,0.0,0.0,0.0,0.0,0.0,0.0,0.0,0.0,0.0,0.0,0.0,0.0,0.0,0.0,0.0,0.0,0.0,0.0,0.0,0.0,0.0,0.0,0.0,0.0,0.0,0.0,0.0,0.0,0.0,0.0,0.0,0.0,0.0,0.0,0.0,0.0,0.0,0.0,0.0,0.0,0.0,0.0,0.0,0.0,0.0,0.0,0.0,0.0,0.0,0.0,0.0,0.0,0.0,0.0,0.0,0.0,0.0,0.0,0.0,0.0,0.0,0.0,0.0,0.0,0.0,0.0,0.0,0.0,0.0,0.0,0.0,0.0,0.0,0.0,0.0,-1.6244,-1.6375,-1.7663,-1.7897,-1.6946,-1.4945,-1.3396,0.0,0.0,0.0,0.0,0.0,0.0,0.0,0.0,0.0,0.0,0.0,0.0,0.0,0.0,0.0,0.0,0.0,0.0,0.0,0.0,0.0,0.0,0.0,0.0,0.0,0.0,0.0,0.0,0.0,0.0,0.0,0.0,0.0,0.0,0.0,0.0,0.0,0.0,0.0,0.0,0.0,0.0,0.0,0.0,0.0,0.0,0.0,0.0,0.0,0.0,0.0,0.0,0.0,0.0,0.0,0.0,0.0,0.0,0.0,0.0,0.0,0.0,0.0,0.0,0.0,0.0,0.0,0.0,0.0,0.0,0.0,0.0,0.0,0.0,0.0,0.0,0.0,0.0,0.0,0.0,0.0,0.0,0.0,0.0,0.0,0.0,0.0,0.0,0.0,0.0,0.0,0.0,0.0,0.0,0.0,0.0,0.0,0.0,0.0,0.0,0.0,0.0,0.0,0.0,0.0,0.0,0.0,0.0,-1.7886,-1.7852,-1.9146,-1.9344,-1.8306,-1.569,-1.3957,0.0,0.0,0.0,0.0,0.0,0.0,0.0,0.0,0.0,0.0,0.0,0.0,0.0,0.0,0.0,0.0,0.0,0.0,0.0,0.0,0.0,0.0,0.0,0.0,0.0,0.0,0.0,0.0,0.0,0.0,0.0,0.0,0.0,0.0,0.0,0.0,0.0,0.0,0.0,0.0,0.0,0.0,0.0,0.0,0.0,0.0,0.0,0.0,0.0,0.0,0.0,0.0,0.0,0.0,0.0,0.0,0.0,0.0,0.0,0.0,0.0,0.0,0.0,0.0,0.0,0.0,0.0,0.0,0.0,0.0,0.0,0.0,0.0,0.0,0.0,0.0,0.0,0.0,0.0,0.0,0.0,0.0,0.0,0.0,0.0,0.0,0.0,0.0,0.0,0.0,0.0,0.0,0.0,0.0,0.0,0.0,0.0,0.0,0.0,0.0,0.0,0.0,0.0,0.0,0.0,0.0,0.0,0.0,-1.7998,-1.8226,-1.9296,-1.9657,-1.9133,-1.6694,-1.4714,0.0,0.0,0.0,0.0,0.0,0.0,0.0,0.0,0.0,0.0,0.0,0.0,0.0,0.0,0.0,0.0,0.0,0.0,0.0,0.0,0.0,0.0,0.0,0.0,0.0,0.0,0.0,0.0,0.0,0.0,0.0,0.0,0.0,0.0,0.0,0.0,0.0,0.0,0.0,0.0,0.0,0.0,0.0,0.0,0.0,0.0,0.0,0.0,1.5788,0.0,0.0,0.0,0.0,0.0,0.0,0.0,0.0,0.0,0.0,0.0,0.0,0.0,0.0,0.0,0.0,0.0,0.0,0.0,0.0,0.0,0.0,0.0,0.0,0.0,0.0,0.0,0.0,0.0,0.0,0.0,0.0,0.0,0.0,0.0,0.0,0.0,0.0,0.0,0.0,0.0,0.0,0.0,0.0,0.0,0.0,0.0,0.0,0.0,0.0,0.0,0.0,0.0,0.0,0.0,0.0,0.0,0.0,0.0,-1.814,-1.8516,-1.9444,-1.9755,-1.9288,-1.698,-1.5037,0.0,0.0,0.0,0.0,0.0,0.0,0.0,0.0,0.0,0.0,0.0,0.0,0.0,0.0,0.0,0.0,0.0,0.0,0.0,0.0,0.0,0.0,0.0,0.0,0.0,0.0,0.0,0.0,0.0,0.0,0.0,0.0,0.0,0.0,0.0,0.0,0.0,0.0,0.0,0.0,0.0,0.0,0.0,0.0,0.0,0.0,0.0,0.0,0.0,0.0,0.0,0.0,0.0,0.0,0.0,0.0,0.0,0.0,0.0,0.0,0.0,0.0,0.0,0.0,0.0,0.0,0.0,0.0,0.0,0.0,0.0,0.0,0.0,0.0,0.0,0.0,0.0,0.0,0.0,0.0,0.0,0.0,0.0,0.0,0.0,0.0,0.0,0.0,0.0,0.0,0.0,0.0,0.0,0.0,0.0,0.0,0.0,0.0,0.0,0.0,0.0,0.0,0.0,0.0,0.0,0.0,0.0,-1.6954,-1.8331,-1.8854,-1.9587,-1.9773,-1.9268,-1.6915,-1.5115,-1.3907,0.0,0.0,0.0,0.0,0.0,0.0,0.0,0.0,0.0,0.0,0.0,0.0,0.0,0.0,0.0,0.0,0.0,0.0,0.0,0.0,0.0,0.0,0.0,0.0,0.0,0.0,0.0,0.0,0.0,0.0,0.0,0.0,0.0,0.0,0.0,0.0,0.0,0.0,1.5584,1.5221,0.0,0.0,0.0,0.0,0.0,0.0,0.0,0.0,1.7208,0.0,0.0,0.0,0.0,0.0,0.0,0.0,0.0,0.0,0.0,0.0,0.0,0.0,0.0,0.0,0.0,0.0,0.0,0.0,0.0,0.0,0.0,0.0,0.0,0.0,0.0,0.0,0.0,0.0,0.0,0.0,0.0,0.0,0.0,0.0,0.0,0.0,0.0,0.0,0.0,0.0,0.0,0.0,0.0,0.0,0.0,0.0,0.0,0.0,0.0,0.0,0.0,0.0,0.0,0.0,0.0,-1.5208,-1.7315,-1.8791,-1.9511,-1.9839,-1.9751,-1.9182,-1.6717,-1.4775,-1.3419,0.0,0.0,0.0,0.0,0.0,0.0,0.0,0.0,0.0,0.0,0.0,0.0,0.0,0.0,0.0,0.0,0.0,0.0,0.0,0.0,0.0,0.0,0.0,0.0,0.0,0.0,0.0,0.0,0.0,0.0,0.0,0.0,0.0,0.0,0.0,0.0,0.0,0.0,0.0,1.387,1.4377,0.0,0.0,0.0,0.0,0.0,0.0,0.0,0.0,1.7184,0.0,0.0,0.0,0.0,0.0,0.0,0.0,0.0,0.0,0.0,0.0,0.0,0.0,0.0,0.0,0.0,0.0,0.0,0.0,0.0,0.0,0.0,0.0,0.0,0.0,0.0,0.0,0.0,0.0,0.0,0.0,0.0,0.0,0.0,0.0,0.0,0.0,0.0,0.0,0.0,0.0,0.0,0.0,0.0,0.0,0.0,0.0,0.0,0.0,0.0,0.0,0.0,0.0,0.0,0.0,-1.5742,-1.7483,-1.8795,-1.9718,-1.9919,-1.9715,-1.907,-1.66,-1.4599,0.0,0.0,0.0,0.0,0.0,0.0,0.0,0.0,0.0,0.0,0.0,0.0,0.0,0.0,0.0,0.0,0.0,0.0,0.0,0.0,0.0,0.0,0.0,0.0,0.0,0.0,0.0,0.0,0.0,0.0,0.0,0.0,0.0,0.0,0.0,0.0,0.0,0.0,0.0,0.0,1.1419,1.0993,1.2446,0.0,0.0,0.0,0.0,0.0,0.0,1.2759,1.4869,0.0,0.0,0.0,0.0,0.0,0.0,0.0,0.0,0.0,0.0,0.0,0.0,0.0,0.0,0.0,0.0,0.0,0.0,0.0,0.0,0.0,0.0,0.0,0.0,0.0,0.0,0.0,0.0,0.0,0.0,0.0,0.0,0.0,0.0,0.0,0.0,0.0,0.0,0.0,0.0,0.0,0.0,0.0,0.0,0.0,0.0,0.0,0.0,0.0,0.0,0.0,0.0,0.0,0.0,0.0,-1.5962,-1.751,-1.8744,-1.974,-1.9901,-1.9567,-1.8732,-1.6359,-1.4351,0.0,0.0,0.0,0.0,0.0,0.0,0.0,0.0,0.0,0.0,0.0,0.0,0.0,0.0,0.0,0.0,0.0,0.0,0.0,0.0,0.0,0.0,0.0,0.0,0.0,0.0,0.0,0.0,0.0,0.0,0.0,0.0,0.0,0.0,0.0,0.0,0.0,0.0,0.0,0.0,0.0,0.559,0.6392,0.3806,0.0,0.0,0.0,0.0,0.5543,0.8074,0.0,0.0,0.0,0.0,0.0,0.0,0.0,0.0,0.0,0.0,0.0,0.0,0.0,0.0,0.0,0.0,0.0,0.0,0.0,0.0,0.0,0.0,0.0,0.0,0.0,0.0,0.0,0.0,0.0,0.0,0.0,0.0,0.0,0.0,0.0,0.0,0.0,0.0,0.0,0.0,0.0,0.0,0.0,0.0,0.0,0.0,0.0,0.0,0.0,0.0,0.0,0.0,0.0,0.0,0.0,0.0,-1.5416,-1.7474,-1.8943,-1.9661,-1.9784,-1.9194,-1.787,-1.5836,-1.3747,0.0,0.0,0.0,0.0,0.0,0.0,0.0,0.0,0.0,0.0,0.0,0.0,0.0,0.0,0.0,0.0,0.0,0.0,0.0,0.0,0.0,0.0,0.0,0.0,0.0,0.0,0.0,0.0,0.0,0.0,0.0,0.0,0.0,0.0,0.0,0.0,0.0,0.0,0.0,0.0,0.0,-0.3041,-0.1724,-0.3806,-0.5504,0.0,0.0,0.1404,0.1899,0.449,0.0,0.0,0.0,0.0,0.0,0.0,0.0,0.0,0.0,0.0,0.0,0.0,0.0,0.0,0.0,0.0,0.0,0.0,0.0,0.0,0.0,0.0,0.0,0.0,0.0,0.0,0.0,0.0,0.0,0.0,0.0,0.0,0.0,0.0,0.0,0.0,0.0,0.0,0.0,0.0,0.0,0.0,0.0,0.0,0.0,0.0,0.0,0.0,0.0,0.0,0.0,0.0,0.0,0.0,0.0,-1.3379,-1.5663,-1.7492,-1.8841,-1.9669,-1.9763,-1.911,-1.7659,-1.5505,-1.3364,0.0,0.0,0.0,0.0,0.0,0.0,0.0,0.0,0.0,0.0,0.0,0.0,0.0,0.0,0.0,0.0,0.0,0.0,0.0,0.0,0.0,0.0,0.0,0.0,0.0,0.0,0.0,0.0,0.0,0.0,0.0,0.0,0.0,0.0,0.0,0.0,0.0,0.0,0.0,0.0,0.0,0.0,-0.6961,-0.8941,0.0,0.0,0.0,-0.6408,-0.732,0.0,0.0,0.0,0.0,0.0,0.0,0.0,0.0,0.0,0.0,0.0,0.0,0.0,0.0,0.0,0.0,0.0,0.0,0.0,0.0,0.0,0.0,0.0,0.0,0.0,0.0,0.0,0.0,0.0,0.0,0.0,0.0,0.0,0.0,0.0,0.0,0.0,0.0,0.0,0.0,0.0,0.0,0.0,0.0,0.0,0.0,0.0,0.0,0.0,0.0,0.0,0.0,0.0,0.0,0.0,0.0,0.0,-1.5765,-1.7439,-1.875,-1.9654,-1.9547,-1.8769,-1.73,-1.5087,0.0,0.0,0.0,0.0,0.0,0.0,0.0,0.0,0.0,0.0,0.0,0.0,0.0,0.0,0.0,0.0,0.0,0.0,0.0,0.0,0.0,0.0,0.0,0.0,0.0,0.0,0.0,-0.0661,0.0,0.0,0.0,0.0,0.0,0.0,0.0,0.0,0.0,0.0,0.0,0.0,0.0,0.0,-1.5565,-1.1736,-1.3666,-1.6055,0.0,0.0,-1.2507,-1.3654,-0.9151,-0.4243,0.0,0.0,0.0,0.0,0.0,0.0,0.0,0.0,0.0,0.0,0.0,0.0,0.0,0.0,0.0,0.0,0.0,0.0,0.0,0.0,0.0,0.0,0.0,0.0,0.0,0.0,0.0,0.0,0.0,0.0,0.0,0.0,0.0,0.0,0.0,0.0,0.0,0.0,0.0,0.0,0.0,0.0,0.0,0.0,0.0,0.0,0.0,0.0,0.0,0.0,0.0,0.0,0.0,0.0,0.0,-1.5231,-1.7256,-1.875,-1.9642,-1.8959,-1.7871,-1.6404,-1.4366,-1.2066,0.0,0.0,0.0,0.0,0.0,0.0,0.0,0.0,0.0,0.0,0.0,0.0,0.0,0.0,0.0,0.0,0.0,0.0,0.0,0.0,0.0,0.0,0.0,0.0,0.0,0.0,0.0,0.0,0.0,0.0,0.0,0.0,0.0,0.0,0.0,0.0,0.0,0.0,0.0,0.0,0.0,-1.8023,-1.683,-1.8507,-1.9818,0.0,0.0,-1.4412,-1.3077,-1.1082,-0.8739,-0.6012,0.0,0.0,0.0,0.0,0.0,0.0,0.0,0.0,0.0,0.0,0.0,0.0,0.0,0.0,0.0,0.0,0.0,0.0,0.0,0.0,0.0,0.0,0.0,0.0,0.0,0.0,0.0,0.0,0.0,0.0,0.0,0.0,0.0,0.0,0.0,0.0,0.0,0.0,0.0,0.0,0.0,0.0,0.0,0.0,0.0,0.0,0.0,0.0,0.0,0.0,0.0,0.0,0.0,-1.3382,-1.5192,-1.6809,-1.8041,-1.8827,-1.8121,-1.7007,-1.5603,-1.3819,-1.1889,0.0,0.0,0.0,0.0,0.0,0.0,0.0,0.0,0.0,0.0,0.0,0.0,0.0,0.0,0.0,0.0,0.0,0.0,0.0,0.0,0.0,0.0,0.0,0.0,0.0,0.0,0.0,0.0,-0.634,-0.6311,-0.6061,0.0,0.0,0.0,0.0,0.0,0.0,0.0,0.0,0.0,0.0,-2.008,-1.8922,-2.0199,0.0,0.0,-1.7385,-1.4949,-1.2755,-1.1096,-0.9342,-0.7235,-0.6798,0.0,0.0,0.0,0.0,0.0,0.0,0.0,0.0,0.0,0.0,0.0,0.0,0.0,0.0,0.0,0.0,0.0,0.0,0.0,0.0,0.0,0.0,0.0,0.0,0.0,0.0,0.0,0.0,0.0,0.0,0.0,0.0,0.0,0.0,0.0,0.0,0.0,0.0,0.0,0.0,0.0,0.0,0.0,0.0,0.0,0.0,0.0,0.0,0.0,0.0,0.0,0.0,-1.3848,-1.5057,-1.6545,-1.7546,-1.8045,-1.7264,-1.6264,-1.5083,-1.3395,-1.1645,0.0,0.0,0.0,0.0,0.0,0.0,0.0,0.0,0.0,0.0,0.0,0.0,0.0,0.0,0.0,0.0,0.0,0.0,0.0,0.0,0.0,0.0,0.0,0.0,0.0,0.0,0.0,0.0,-1.0426,-1.1178,-1.2498,0.0,0.0,0.0,0.0,0.0,0.0,0.0,0.0,0.0,0.0,-2.068,-2.0105,-2.0929,-2.0997,-1.9324,-1.7178,-1.493,-1.269,-1.1278,-1.0049,-0.8794,0.0,0.0,0.0,0.0,0.0,0.0,0.0,0.0,0.0,0.0,0.0,0.0,0.0,0.0,0.0,0.0,0.0,0.0,0.0,0.0,0.0,0.0,0.0,0.0,0.0,0.0,0.0,-1.9213,0.0,0.0,-1.9541,0.0,0.0,0.0,0.0,0.0,0.0,0.0,0.0,0.0,0.0,0.0,0.0,0.0,0.0,0.0,0.0,0.0,0.0,0.0,0.0,0.0,0.0,-1.4594,-1.4833,-1.6571,-1.7424,-1.7308,-1.6484,-1.5694,-1.4964,-1.3059,-1.1232,-0.9553,0.0,0.0,0.0,0.0,0.0,0.0,0.0,0.0,0.0,0.0,0.0,0.0,0.0,0.0,0.0,0.0,0.0,0.0,0.0,0.0,0.0,0.0,0.0,0.0,0.0,0.0,-1.3178,-1.3371,-1.4839,0.0,0.0,0.0,0.0,0.0,0.0,0.0,0.0,0.0,0.0,-1.9055,-1.95,-2.0611,-2.08,-2.0316,-1.8825,-1.6548,-1.4443,-1.2912,-1.1979,-1.145,0.0,0.0,0.0,0.0,0.0,0.0,0.0,0.0,0.0,0.0,0.0,0.0,0.0,0.0,0.0,0.0,0.0,0.0,0.0,0.0,0.0,0.0,0.0,0.0,0.0,0.0,0.0,-2.1148,-2.0433,0.0,0.0,0.0,0.0,0.0,0.0,0.0,0.0,0.0,0.0,0.0,-2.1978,-2.2515,0.0,0.0,0.0,0.0,0.0,0.0,0.0,0.0,0.0,0.0,0.0,0.0,-1.535,-1.5274,-1.6324,-1.6765,-1.6493,-1.5642,-1.4897,-1.4204,-1.2824,-1.114,-0.9168,0.0,0.0,0.0,0.0,0.0,0.0,0.0,0.0,0.0,0.0,0.0,0.0,0.0,0.0,0.0,0.0,0.0,0.0,0.0,0.0,0.0,0.0,0.0,0.0,0.0,-1.5236,0.0,0.0,0.0,0.0,0.0,0.0,0.0,0.0,0.0,0.0,0.0,-1.9592,-2.0049,-2.0644,-2.088,-2.0348,-2.0483,-2.0088,0.0,0.0,0.0,0.0,0.0,0.0,0.0,0.0,0.0,0.0,0.0,0.0,0.0,0.0,-2.3236,-2.1383,-2.1101,-2.1299,-2.1758,0.0,0.0,0.0,0.0,0.0,0.0,0.0,0.0,0.0,0.0,0.0,0.0,0.0,0.0,-2.2585,0.0,-2.1746,0.0,0.0,0.0,0.0,0.0,0.0,0.0,0.0,-2.2569,-2.2714,-2.3256,-2.3543,-2.3857,0.0,-2.4212,-2.3531,0.0,0.0,0.0,0.0,0.0,0.0,0.0,0.0,-1.6479,-1.6133,-1.6504,-1.6554,-1.6148,-1.5263,-1.4481,-1.3799,-1.2345,-1.0781,-0.9104,-0.8533,-0.828,0.0,0.0,0.0,0.0,0.0,0.0,0.0,0.0,0.0,0.0,0.0,0.0,0.0,0.0,0.0,0.0,0.0,0.0,0.0,0.0,0.0,0.0,0.0,-1.6581,0.0,0.0,0.0,0.0,0.0,0.0,0.0,0.0,0.0,-2.145,-2.1489,-2.1634,-2.1803,-2.1885,-2.1582,-2.0651,0.0,0.0,0.0,0.0,0.0,0.0,0.0,-1.3537,-1.4328,-1.5194,-1.6634,-1.9277,-2.207,-2.4266,-2.5296,0.0,0.0,-2.356,-2.3349,-2.359,-2.4058,-2.3162,-2.2497,-2.3135,-2.2657,-2.2304,0.0,0.0,0.0,0.0,0.0,0.0,0.0,0.0,-2.4058,-2.3962,0.0,-2.3155,0.0,0.0,0.0,0.0,0.0,-2.3254,0.0,0.0,-2.3848,-2.4163,-2.4245,-2.4928,-2.5717,-2.6534,-2.6594,-2.6195,-2.529,-2.378,0.0,0.0,0.0,0.0,0.0,0.0,-1.7888,-1.7407,-1.715,-1.6777,-1.6295,-1.5327,-1.4459,-1.3719,-1.1697,-1.0208,-0.9316,-0.8645,-0.8365,-0.8484,-0.7994,0.0,0.0,0.0,0.0,0.0,0.0,0.0,0.0,0.0,0.0,0.0,0.0,0.0,0.0,0.0,0.0,0.0,0.0,0.0,0.0,-1.7556,0.0,0.0,0.0,0.0,0.0,0.0,0.0,0.0,0.0,0.0,-2.2834,-2.2585,-2.292,-2.3937,0.0,0.0,0.0,0.0,-1.9525,-1.8276,-1.7086,-1.6254,-1.6047,-1.5684,-1.5889,-1.7089,0.0,0.0,-2.1818,-2.3293,-2.4406,-2.5002,-2.5205,-2.5384,-2.602,-2.6127,-2.6275,-2.6358,-2.5774,-2.5482,-2.5467,-2.4808,-2.4328,-2.815,0.0,0.0,0.0,0.0,-2.6889,-2.6907,-2.6765,-2.6766,-2.6419,-2.5826,-2.5692,0.0,0.0,0.0,0.0,0.0,0.0,-2.6051,-2.6501,-2.5526,-2.5331,-2.5851,-2.5486,-2.5457,-2.5774,-2.6408,-2.626,-2.5437,-2.5545,-2.4133,-2.1327,0.0,0.0,0.0,0.0,-1.8428,-1.7906,-1.7438,-1.695,-1.6397,-1.5358,-1.4126,-1.2774,-1.1393,-1.0233,-0.9316,-0.869,-0.8269,-0.8088,-0.7879,0.0,0.0,0.0,0.0,0.0,0.0,0.0,0.0,0.0,0.0,0.0,0.0,0.0,0.0,0.0,0.0,0.0,0.0,0.0,-1.7925,-1.8595,-1.9353,0.0,0.0,0.0,0.0,0.0,0.0,0.0,0.0,0.0,-2.3886,-2.3702,-2.379,0.0,0.0,-2.2361,-2.1678,-2.1463,-2.0922,-1.9577,-1.9113,0.0,-1.8128,-1.7454,-1.7559,-1.9095,-2.022,-2.1225,-2.2112,-2.3342,-2.4506,-2.5428,-2.5799,-2.609,-2.6384,-2.6363,-2.6291,-2.6355,-2.5935,-2.5337,-2.4909,-2.4729,-2.4654,-2.9708,-2.917,-2.8498,-2.8183,-2.82,-2.8491,-2.8566,-2.8481,-2.8496,-2.8228,-2.7793,-2.7475,-2.708,-2.6621,-2.6685,0.0,0.0,0.0,-2.7569,-2.7931,-2.6571,-2.616,-2.6524,-2.5707,-2.5505,-2.588,-2.641,-2.6381,-2.5897,-2.6409,-2.5234,-2.253,0.0,0.0,-1.9955,-1.9418,-1.9017,-1.8756,-1.7836,-1.7188,-1.6856,-1.5259,-1.3723,-1.2343,-1.1227,-1.022,-0.9239,-0.869,-0.8306,-0.8129,-0.8099,-0.8039,0.0,0.0,0.0,0.0,0.0,0.0,0.0,0.0,0.0,0.0,0.0,-1.7733,-1.8271,0.0,0.0,0.0,-1.9322,-1.9065,-1.8643,-1.9582,0.0,0.0,0.0,0.0,0.0,0.0,0.0,-2.3989,-2.508,-2.585,-2.5852,-2.5472,-2.5104,-2.4849,-2.4077,-2.3314,-2.2689,0.0,-2.1782,-2.068,-2.0296,-1.998,-1.956,-1.9075,-1.9161,-2.0362,-2.1415,-2.2077,-2.2313,-2.3244,-2.4263,-2.5031,-2.5536,-2.582,-2.6076,-2.6122,-2.6162,-2.6326,-2.5873,-2.5335,-2.5002,-2.4791,-2.4594,-3.08,-3.0682,-2.9062,-2.8379,-2.8379,-2.9171,-2.9505,-2.9499,-2.9512,-2.9533,-2.9528,-2.8747,-2.8394,-2.8408,-2.84,0.0,-2.8393,-2.8327,-2.8264,-2.8162,-2.7218,-2.6747,-2.6659,-2.5726,-2.5717,-2.6486,-2.6574,-2.6564,-2.6477,-2.6564,-2.5746,-2.4101,-2.2961,-2.1926,-2.101,-1.994,-1.9508,-1.9676,-1.8175,-1.742,-1.7423,-1.5084,-1.331,-1.2313,-1.1182,-1.0095,-0.9123,-0.8568,-0.8334,-0.8437,-0.8383,-0.8405,-0.8581,0.0,0.0,0.0,0.0,0.0,0.0,0.0,0.0,0.0,0.0,0.0,0.0,0.0,0.0,0.0,-2.0079,0.0,-1.9634,-2.0588,0.0,0.0,0.0,-2.31,-2.3384,-2.4774,-2.5716,-2.5721,0.0,0.0,-2.8124,-2.7391,-2.6588,-2.5723,-2.4961,-2.4397,-2.4139,-2.3256,-2.2353,-2.1722,-2.0987,-2.0526,-2.0533,-2.0383,-2.0421,-2.084,-2.1837,-2.2319,-2.2215,-2.2949,-2.372,-2.4175,-2.4564,-2.489,-2.5223,-2.5524,-2.5852,-2.598,-2.5722,-2.5441,-2.5356,-2.4872,-2.4234,-3.0795,-3.0762,-3.0364,-3.016,-3.0166,-3.0331,-3.0408,-3.0383,-3.0388,-3.0387,-3.0407,-3.021,-3.0095,-3.0105,-3.0107,-3.0075,-3.0032,-2.9973,-2.9921,-2.9825,-2.8328,-2.7624,-2.7525,-2.6024,-2.5399,-2.564,-2.6284,-2.6265,-2.5659,-2.6284,-2.5707,-2.4044,-2.292,-2.1654,-2.0183,-1.9126,-1.8696,-1.887,-1.7964,-1.7113,-1.6375,-1.469,-1.327,-1.2179,-1.1078,-1.0057,-0.9054,-0.8533,-0.8142,-0.798,-0.796,-0.8009,-0.8205,-0.8742,0.0,0.0,0.0,0.0,0.0,0.0,0.0,0.0,0.0,-1.9422,-1.9119,0.0,-1.9181,0.0,-2.0611,-2.0762,-2.0664,-2.1498,0.0,0.0,-2.4157,-2.4749,-2.6651,-2.6746,-2.691,-2.7578,-2.8003,-2.8019,-2.7377,-2.7104,-2.6656,-2.58,-2.5469,-2.504,-2.429,-2.4254,-2.3803,-2.272,-2.2379,-2.2158,-2.1603,-2.131,-2.0957,-2.0423,-2.1103,-2.1561,-2.1243,-2.2053,-2.2899,-2.3219,-2.3659,-2.4024,-2.4292,-2.4237,-2.4198,-2.4404,-2.4967,-2.5297,-2.4727,-2.4061,-2.3466,-3.0788,-3.0791,-3.0786,-3.0798,-3.0798,-3.0769,-3.0754,-3.0751,-3.0747,-3.0742,-3.0736,-3.0673,-3.0639,-3.0614,-3.061,-3.0604,-3.0558,-3.0521,-3.0288,-2.9841,-2.855,-2.7691,-2.7274,-2.5928,-2.5313,-2.5303,-2.5783,-2.5774,-2.5341,-2.5793,-2.5503,-2.4521,-2.3496,-2.2104,-2.0425,-1.9356,-1.877,-1.8591,-1.7562,-1.6657,-1.5946,-1.4441,-1.3149,-1.2042,-1.0897,-0.9856,-0.8985,-0.8372,-0.8067,-0.8049,-0.8068,-0.8219,-0.8525,-0.8952,-0.9725,0.0,0.0,0.0,0.0,0.0,0.0,0.0,0.0,0.0,0.0,0.0,-1.9696,-2.0156,-2.111,-2.1644,-2.1537,-2.2745,-2.411,-2.5437,-2.5812,-2.6521,-2.7943,-2.8115,-2.8154,-2.8281,-2.863,-2.8548,-2.7704,-2.724,-2.6835,-2.6326,-2.5888,-2.539,-2.4851,-2.4769,-2.4454,-2.3511,-2.3182,-2.2805,-2.212,-2.1706,-2.1245,-2.0751,-2.0996,-2.1202,-2.0754,-2.1359,-2.2003,-2.2316,-2.2811,-2.3244,-2.3441,-2.3578,-2.3611,-2.3789,-2.4069,-2.4154,-2.3805,-2.3413,-2.3015,-3.0786,-3.0791,-3.0685,-3.0637,-3.0626,-3.0517,-3.0593,-3.0788,-3.0801,-3.0784,-3.0754,-3.0639,-3.0546,-3.0482,-3.0491,-3.0471,-3.0471,-3.0479,-3.0004,-2.9154,-2.8298,-2.743,-2.6553,-2.5707,-2.5293,-2.5274,-2.5303,-2.5293,-2.5293,-2.5292,-2.5203,-2.5004,-2.4125,-2.2842,-2.1192,-2.0168,-1.935,-1.8657,-1.7248,-1.6388,-1.6048,-1.4332,-1.2907,-1.1826,-1.0596,-0.96,-0.8903,-0.8259,-0.8059,-0.8355,-0.8354,-0.856,-0.9095,-0.9417,-1.031,0.0,-1.2722,0.0,0.0,0.0,0.0,0.0,0.0,0.0,0.0,-2.0307,-2.0364,-2.0268,-2.1676,-2.2584,-2.2569,-2.4144,-2.5589,-2.6559,-2.7558,-2.8186,-2.8279,-2.9004,-2.9199,-2.8379,-2.896,-2.909,-2.8166,-2.7427,-2.6967,-2.6698,-2.6069,-2.5522,-2.5292,-2.4992,-2.4612,-2.4078,-2.3422,-2.2649,-2.1955,-2.1537,-2.1228,-2.0992,-2.0977,-2.0967,-2.055,-2.0892,-2.1325,-2.1675,-2.2163,-2.2598,-2.2849,-2.3211,-2.344,-2.3562,-2.3174,-2.2886,-2.2978,-2.2784,-2.2303,-3.0792,-3.0735,-3.0024,-2.9744,-2.9702,-2.8988,-2.9488,-3.08,-3.0788,-3.0726,-3.0634,-3.0568,-3.0481,-3.0419,-3.0364,-3.034,-3.034,-3.034,-2.9855,-2.9006,-2.8203,-2.7358,-2.6499,-2.5636,-2.5222,-2.5203,-2.5203,-2.5222,-2.5203,-2.5201,-2.4862,-2.4148,-2.3727,-2.304,-2.2045,0.0,0.0,0.0,-1.7836,-1.7154,-1.6788,-1.4347,-1.2482,-1.137,-1.0262,0.0,-0.8833,-0.8231,-0.8025,-0.8301,-0.8038,0.0,0.0,0.0,0.0,0.0,0.0,0.0,0.0,0.0,0.0,0.0,-2.1381,-2.143,-2.0972,-2.1612,-2.1783,-2.1185,-2.2571,-2.3809,-2.4518,-2.5494,-2.6783,-2.8368,-2.8809,-2.9027,-2.9154,-2.9355,-2.9164,-2.8339,-2.8385,-2.8132,-2.7296,-2.6994,-2.6661,-2.6093,-2.5746,-2.5513,-2.5333,-2.5014,-2.4604,-2.4065,-2.3003,-2.1928,-2.0754,-2.0637,-2.0516,-2.0314,-2.0208,-2.0248,-2.0316,-2.0663,-2.1102,-2.1425,-2.2056,-2.2527,-2.2815,-2.2753,-2.2604,-2.2781,-2.2297,-2.21,-2.2795,-2.1967,-2.0956,-3.0175,0.0,-2.9225,-2.8871,0.0,-2.8398,-2.869,-2.9464,-2.9468,-2.937,-2.9255,-2.9589,-2.9713,-2.9665,-3.0081,-3.0247,-3.0241,-2.9851,-2.9187,-2.8326,-2.7551,-2.6688,-2.5811,-2.534,-2.5149,-2.5149,-2.5149,-2.5138,-2.5145,-2.5118,-2.4841,-2.4328,-2.4138,-2.3611,-2.2724,-2.1545,-2.0486,-1.9556,-1.8239,-1.7551,-1.7454,-1.5288,-1.3505,-1.23,-1.1123,0.0,0.0,0.0,0.0,0.0,0.0,0.0,0.0,0.0,0.0,-1.3234,-1.4853,-1.6515,-1.8274,-2.0082,-2.138,-2.2098,-2.2796,-2.2947,-2.2252,-2.2733,-2.3089,-2.3198,-2.3969,-2.4793,-2.5703,-2.6541,-2.7443,-2.839,-2.8946,-2.9137,-2.8841,-2.8828,-2.8512,-2.7746,-2.7543,-2.7219,-2.6325,-2.6232,-2.611,-2.5732,-2.5621,-2.5496,-2.5298,-2.5014,-2.4439,-2.3235,-2.1898,-2.0732,-1.9874,-1.9514,-1.9383,-1.9071,-1.9019,-1.9101,-1.9249,-1.9657,-2.0088,-2.0455,-2.0992,-2.1473,-2.1753,-2.1741,-2.1756,-2.1872,-2.1442,-2.1116,-2.157,-2.1054,-2.0395,-2.9275,-2.9199,-2.834,-2.8007,-2.8027,-2.7824,-2.7686,-2.7628,0.0,0.0,0.0,-2.844,-2.8683,-2.8673,-2.9379,-2.9704,-2.9646,-2.902,-2.8242,-2.7414,-2.6746,-2.5963,-2.5087,-2.5068,-2.5056,-2.5037,-2.5037,-2.5043,-2.5032,-2.4966,-2.4865,-2.4746,-2.4594,-2.4087,-2.3126,-2.1926,-2.0986,-2.028,-1.8671,-1.7863,-1.796,-1.6192,-1.4635,-1.3359,-1.2135,-1.1229,-1.0688,-1.0199,-1.0005,-1.0113,-1.0069,-1.0329,-1.0868,-1.1295,-1.2397,-1.4255,-1.5606,-1.7183,-1.9124,-2.09,-2.2216,-2.2915,-2.3916,-2.4221,-2.3582,-2.3704,-2.4168,-2.5013,-2.5114,-2.5507,-2.6431,-2.7086,-2.7624,-2.7884,-2.8614,-2.8761,-2.8033,-2.7934,-2.7617,-2.6844,-2.6645,-2.6343,-2.5622,-2.5395,-2.5333,-2.5314,-2.5117,-2.5063,-2.4822,-2.4503,-2.3682,-2.1925,-2.0725,-1.9753,-1.9033,-1.8708,-1.8316,-1.814,-1.8093,-1.8065,-1.8238,-1.8573,-1.9022,-1.9528,-1.9858,-2.0316,-2.0645,-2.0823,-2.0932,-2.1128,-2.059,-2.0046,-2.0044,-2.0094,-1.9875,-2.8366,-2.8325,-2.7442,-2.7108,-2.7027,-2.6272,-2.5848,-2.5801,-2.7229,-2.7753,-2.7625,-2.7627,-2.7614,-2.7608,-2.7691,-2.7717,-2.7698,-2.7641,-2.7163,-2.6342,-2.6252,-2.5777,-2.4959,-2.4861,-2.4847,-2.4847,-2.4828,-2.4799,-2.4756,-2.47,-2.4607,-2.451,-2.4356,-2.3842,-2.3044,-2.2436,-2.1803,-2.1132,-1.9471,-1.8468,-1.8068,-1.6042,-1.4352,-1.3089,-1.2008,-1.1271,-1.097,-1.0498,-1.0423,-1.0802,-1.0562,-1.0789,-1.1602,-1.2139,-1.3094,-1.4574,-1.6216,-1.7907,-1.9588,-2.1049,-2.2517,-2.3836,-2.4247,-2.4426,-2.4497,-2.4573,-2.4763,-2.507,-2.5144,-2.5566,-2.6389,-2.6685,-2.7113,-2.7823,-2.8143,-2.7935,-2.7156,-2.7069,-2.6743,-2.5862,-2.5657,-2.5582,-2.5327,-2.4767,-2.4385,-2.4307,-2.4012,-2.3302,-2.3074,-2.3008,-2.2282,-2.0607,-1.9986,-1.936,-1.8383,-1.8271,-1.8115,-1.8034,-1.7926,-1.7865,-1.8005,-1.8418,-1.8831,-1.9292,-1.9668,-2.0079,-2.042,-2.024,-2.0116,-2.0186,-1.9651,-1.9165,-1.9094,-1.8966,-1.8806,-2.7439,-2.7337,-2.65,-2.6145,-2.6097,-2.5628,-2.5318,-2.5195,-2.5831,-2.61,-2.6105,-2.6424,-2.6553,-2.6507,-2.6908,-2.7078,-2.7059,-2.6677,-2.6263,-2.5874,-2.5474,-2.5061,-2.4642,-2.4588,-2.4588,-2.4554,-2.4556,-2.4489,-2.4442,-2.4283,-2.4174,-2.4079,-2.3862,-2.364,-2.3341,-2.2414,-2.1883,-2.1761,-2.0279,-1.9269,-1.8741,-1.7186,-1.5735,-1.4451,-1.3383,-1.2545,-1.2061,-1.1761,-1.1694,-1.1907,-1.1828,-1.2025,-1.2525,-1.311,-1.3871,-1.4847,-1.6411,-1.782,-1.9018,-2.1109,-2.2869,-2.4112,-2.4395,-2.4603,-2.4847,-2.4841,-2.4917,-2.5075,-2.5195,-2.5617,-2.6506,-2.6659,-2.6889,-2.7317,-2.741,-2.7098,-2.6386,-2.6152,-2.5911,-2.5434,-2.526,-2.5148,-2.5088,-2.4372,-2.3919,-2.391,-2.3325,-2.263,-2.1979,-2.1765,-2.1272,-1.9978,-1.9149,-1.8335,-1.749,-1.7223,-1.713,-1.6879,-1.6879,-1.6969,-1.7104,-1.7493,-1.7866,-1.8209,-1.8626,-1.8915,-1.926,-1.9171,-1.9145,-1.9211,-1.8981,-1.8623,-1.845,-1.8029,-1.7752,-2.6454,-2.6384,-2.5751,-2.5453,-2.5437,-2.5292,-2.5143,-2.4949,-2.4751,-2.462,-2.4682,-2.5215,-2.539,-2.5356,-2.5912,-2.617,-2.6078,-2.5542,-2.5282,-2.519,-2.4652,-2.4338,-2.4284,-2.4284,-2.4247,-2.4265,-2.4211,-2.4118,-2.402,-2.3844,-2.3638,-2.3459,-2.3282,-2.33,-2.3401,-2.2075,-2.1572,-2.1859,-2.0633,-1.9753,-1.9351,-1.8315,-1.7143,-1.5829,-1.4748,-1.3828,-1.3104,-1.2873,-1.278,-1.278,-1.292,-1.3082,-1.3297,-1.3822,-1.4406,-1.5102,-1.6334,-1.7572,-1.874,-2.096,-2.2833,-2.3964,-2.4247,-2.4561,-2.4972,-2.503,-2.5032,-2.5143,-2.5262,-2.5621,-2.6232,-2.6461,-2.6532,-2.6517,-2.6574,-2.6327,-2.5676,-2.5473,-2.5325,-2.5149,-2.496,-2.4799,-2.4577,-2.3832,-2.3063,-2.2699,-2.2465,-2.1899,-2.1211,-2.0725,-2.0191,-1.9451,-1.8388,-1.7498,-1.685,-1.6468,-1.6185,-1.5913,-1.5987,-1.6135,-1.632,-1.6557,-1.6873,-1.7298,-1.7576,-1.7912,-1.8091,-1.8239,-1.836,-1.8478,-1.8293,-1.7987,-1.7383,-1.6699,-1.639,-2.5409,-2.5427,-2.5359,-2.5331,-2.5293,-2.5171,-2.5,-2.479,-2.4591,-2.4302,-2.4041,-2.4133,-2.4129,-2.3987,-2.4055,-2.4028,-2.4006,-2.3964,-2.4005,-2.4024,-2.3955,-2.3958,-2.3919,-2.3878,-2.384,-2.384,-2.3777,-2.3674,-2.3526,-2.3328,-2.3069,-2.2746,-2.2617,-2.2617,-2.253,-2.1359,-2.0883,-2.1238,-2.0088,-1.9492,-1.953,-1.8707,-1.7639,-1.6438,-1.5329,-1.4369,-1.3568,-1.3232,-1.306,-1.3072,-1.3132,-1.3292,-1.3547,-1.4013,-1.4547,-1.5151,-1.5966,-1.727,-1.9313,-2.0755,-2.2023,-2.3159,-2.3581,-2.4133,-2.5043,-2.5277,-2.5337,-2.5305,-2.534,-2.5481,-2.5608,-2.5707,-2.5788,-2.5815,-2.578,-2.5621,-2.5434,-2.5252,-2.5051,-2.4854,-2.4526,-2.4317,-2.3989,-2.2739,-2.1356,-2.0429,-2.0463,-2.0471,-2.0316,-1.9883,-1.9332,-1.8643,-1.7861,-1.7273,-1.6738,-1.632,-1.5994,-1.5885,-1.5856,-1.5928,-1.6113,-1.639,-1.6707,-1.6946,-1.7287,-1.7555,-1.7732,-1.79,-1.791,-1.7759,-1.7519,-1.7007,-1.569,-1.4695,-1.4449,-2.5091,-2.5115,-2.5118,-2.5115,-2.5106,-2.5013,-2.4847,-2.4604,-2.4358,-2.4018,-2.3656,-2.3455,-2.3387,-2.3473,-2.33,-2.3212,-2.3189,-2.323,-2.3212,-2.3212,-2.3236,-2.3236,-2.3253,-2.3212,-2.3212,-2.3206,-2.3093,-2.2996,-2.2822,-2.2468,-2.2068,-2.1724,-2.1602,-2.1556,-2.1499,-2.0298,-1.9819,-2.0097,-1.9155,-1.8772,-1.9007,-1.8797,-1.8172,-1.7165,-1.6046,-1.4993,-1.4146,-1.3602,-1.3267,-1.3141,-1.3141,-1.3314,-1.3581,-1.4117,-1.469,-1.5315,-1.6391,-1.7796,-1.9524,-2.0408,-2.136,-2.2554,-2.3349,-2.4022,-2.4515,-2.5071,-2.539,-2.5364,-2.5418,-2.5468,-2.5492,-2.5504,-2.5523,-2.5483,-2.5417,-2.5303,-2.5176,-2.4889,-2.4596,-2.429,-2.3912,-2.3505,-2.3004,-2.1635,-2.0109,-1.9039,-1.8929,-1.9147,-1.9489,-1.9179,-1.8434,-1.7536,-1.669,-1.6283,-1.6207,-1.5994,-1.5696,-1.558,-1.5595,-1.5712,-1.587,-1.6194,-1.6485,-1.6699,-1.6913,-1.7118,-1.7272,-1.7296,-1.7263,-1.693,-1.6046,-1.5156,-1.37,-1.2718,-1.1994,-2.4847,-2.4861,-2.4902,-2.4921,-2.4912,-2.4837,-2.4651,-2.4388,-2.4117,-2.3759,-2.33,-2.2883,-2.2721,-2.2781,-2.2669,-2.2574,-2.2548,-2.2495,-2.2468,-2.2468,-2.2468,-2.2468,-2.2495,-2.2495,-2.2495,-2.2468,-2.2361,-2.2152,-2.1869,-2.1348,-2.0943,-2.0635,-2.0423,-2.0309,-2.0135,-1.9077,-1.8577,-1.8621,-1.802,-1.7861,-1.8173,-1.849,-1.8394,-1.7808,-1.6862,-1.5837,-1.4845,-1.4151,-1.3622,-1.3276,-1.3292,-1.3395,-1.3661,-1.4205,-1.4897,-1.5794,-1.6929,-1.8155,-1.9404,-1.9954,-2.0723,-2.1858,-2.2993,-2.3746,-2.4168,-2.4884,-2.5298,-2.527,-2.5261,-2.5225,-2.5388,-2.5366,-2.5292,-2.5197,-2.5069,-2.4919,-2.4676,-2.431,-2.3852,-2.3412,-2.2823,-2.21,-2.1046,-1.9734,-1.8434,-1.7274,-1.7116,-1.7178,-1.708,-1.597,-1.4595,-1.397,-1.2626,-1.2773,-1.4629,-1.5007,-1.4854,-1.4937,-1.4923,-1.5045,-1.5345,-1.5736,-1.6004,-1.6026,-1.6355,-1.6412,-1.628,-1.6296,-1.5701,-1.5136,-1.406,-1.2543,-1.0943,-0.9993,-0.8499,-2.4526,-2.4538,-2.4648,-2.47,-2.4707,-2.4642,-2.4459,-2.4192,-2.386,-2.3414,-2.2898,-2.2385,-2.1907,-2.1535,-2.1744,-2.179,-2.1655,-2.1655,-2.1625,-2.1625,-2.1622,-2.1698,-2.1728,-2.1698,-2.1652,-2.1652,-2.1532,-2.1179,-2.0555,-2.01,-1.9718,-1.9447,-1.9075,-1.8838,-1.8582,-1.7782,-1.7198,-1.6902,-1.6694,-1.6696,-1.6949,-1.761,-1.8096,-1.8267,-1.7713,-1.6847,-1.5858,-1.495,-1.4215,-1.3716,-1.3582,-1.3599,-1.3821,-1.4324,-1.5286,-1.66,-1.7449,-1.8183,-1.8896,-1.9383,-2.0096,-2.1224,-2.2331,-2.3209,-2.3906,-2.4764,-2.5135,-2.5005,-2.4678,-2.464,-2.4878,-2.4851,-2.4799,-2.4659,-2.4507,-2.4214,-2.3842,-2.3307,-2.284,-2.2071,-2.1163,-1.9688,-1.7522,-1.6927,-1.5905,-1.4811,-1.4393,-1.3864,-1.2319,-0.9717,-0.793,-0.686,-0.5722,-0.5501,-1.1471,-1.2748,-1.3,-1.3278,-1.3205,-1.388,-1.4505,-1.4948,-1.5037,-1.5154,-1.5135,-1.5122,-1.5082,-1.4473,-1.3404,-1.2344,-1.0797,-0.9295,-0.7449,-0.6164,-0.473,-2.4229,-2.432,-2.4444,-2.4497,-2.4497,-2.4445,-2.4284,-2.4019,-2.3631,-2.3117,-2.2521,-2.1828,-2.1195,-2.0538,-2.0286,-2.0436,-2.0797,-2.0782,-2.0684,-2.0618,-2.0586,-2.0553,-2.0471,-2.0471,-2.0471,-2.0471,-2.0353,-1.9878,-1.9104,-1.874,-1.8321,-1.7798,-1.7464,-1.7126,-1.6736,-1.6041,-1.5453,-1.5049,-1.4855,-1.4975,-1.5335,-1.6237,-1.7091,-1.7876,-1.7993,-1.7672,-1.6864,-1.5989,-1.5222,-1.4555,-1.4316,-1.4199,-1.4369,-1.5183,-1.613,-1.7101,-1.7795,-1.8444,-1.902,-1.9468,-1.9944,-2.0612,-2.197,-2.2862,-2.3279,-2.4163,-2.4696,-2.4254,-2.3766,-2.3454,-2.3342,-2.3713,-2.4007,-2.3691,-2.3361,-2.293,-2.2419,-2.1797,-2.0985,-1.988,-1.836,-1.6251,-1.4449,-1.3435,-1.2449,-1.1027,-1.0255,-0.9291,-0.7922,-0.5564,-0.3131,-0.1726,-0.0215,0.0387,-0.1095,-0.6615,-0.9317,-1.02,-1.0695,-1.1224,-1.18,-1.228,-1.2402,-1.2361,-1.2729,-1.2429,-1.19,-1.0571,-0.9762,-0.8388,-0.6907,-0.5225,-0.3555,-0.2332,-0.099,-2.3917,-2.4057,-2.4191,-2.4229,-2.4266,-2.4247,-2.4113,-2.3873,-2.341,-2.283,-2.2169,-2.1381,-2.052,-1.9753,-1.9133,-1.897,-1.9345,-1.9504,-1.9555,-1.9396,-1.9324,-1.9251,-1.9251,-1.9163,-1.9163,-1.9178,-1.8941,-1.8384,-1.7651,-1.7221,-1.6696,-1.6046,-1.57,-1.5292,-1.4811,-1.4283,-1.3736,-1.3182,-1.3108,-1.3264,-1.368,-1.4687,-1.5839,-1.6905,-1.761,-1.7932,-1.7764,-1.7007,-1.6268,-1.5652,-1.5213,-1.5086,-1.5286,-1.6115,-1.6946,-1.7679,-1.826,-1.8796,-1.9271,-1.9703,-2.0144,-2.0723,-2.1867,-2.2656,-2.2753,-2.3547,-2.3696,-2.3195,-2.2511,-2.1865,-2.1356,-2.1507,-2.1892,-2.2055,-2.1797,-2.1183,-2.0428,-1.9552,-1.8172,-1.6323,-1.4325,-1.231,-1.0661,-1.0158,-0.8805,-0.68,-0.5533,-0.4276,-0.2627,0.0049,0.2356,0.4255,0.6203,0.6986,0.6002,0.2334,-0.2389,-0.3893,-0.5807,-0.7011,-0.7935,-0.8639,-0.9169,-0.9378,-0.9293,-0.8968,-0.8106,-0.6678,-0.5309,-0.3969,-0.2503,-0.0801,0.0442,0.144,0.2589,-2.3558,-2.3714,-2.3855,-2.3955,-2.4016,-2.4074,-2.3953,-2.366,-2.3236,-2.2669,-2.1874,-2.1007,-2.007,-1.9022,-1.8352,-1.7733,-1.73,-1.7746,-1.8048,-1.8115,-1.7825,-1.7866,-1.7985,-1.7759,-1.7759,-1.7932,-1.7396,-1.678,-1.6108,-1.5481,-1.4869,-1.422,-1.3861,-1.3429,-1.2878,-1.2618,-1.2071,-1.1449,-1.1502,-1.1714,-1.1934,-1.3134,-1.4397,-1.5588,-1.6465,-1.7274,-1.8228,-1.7783,-1.7257,-1.6791,-1.633,-1.6249,-1.6529,-1.7067,-1.7658,-1.8324,-1.8885,-1.9288,-1.9574,-1.9883,-2.0503,-2.1328,-2.2107,-2.2401,-2.2592,-2.279,-2.2529,-2.1647,-2.0796,-2.0004,-1.8983,-1.8273,-1.8548,-2.0017,-1.9639,-1.8752,-1.7712,-1.6639,-1.4813,-1.1885,-0.9763,-0.8012,-0.6625,-0.6112,-0.5086,-0.2162,-0.0163,0.158,0.3723,0.7016,1.0057,1.1398,1.2401,1.301,1.2415,1.1122,0.6692,0.2884,0.0537,-0.1214,-0.2115,-0.2857,-0.3597,-0.3891,-0.3866,-0.3551,-0.248,-0.1136,-0.0038,0.1256,0.2543,0.3496,0.4436,0.5355,0.5883,-2.3247,-2.3371,-2.3616,-2.3725,-2.3807,-2.385,-2.3765,-2.3593,-2.3525,-2.2867,-2.1724,-2.1059,-1.9937,-1.8433,-1.7436,-1.6574,-1.5796,-1.5648,-1.5898,-1.6469,-1.6384,-1.6353,-1.6378,-1.6293,-1.6194,-1.6028,-1.5624,-1.5037,-1.4347,-1.3663,-1.3012,-1.2483,-1.2006,-1.1571,-1.1065,-1.0864,-1.0475,-0.993,-1.0006,-1.0317,-1.0825,-1.1861,-1.3014,-1.4179,-1.4866,-1.524,-1.53,-1.6827,-1.7611,-1.7369,-1.7362,-1.7455,-1.7771,-1.82,-1.8573,-1.8911,-1.9258,-1.9568,-1.9749,-1.985,-2.0176,-2.0902,-2.1367,-2.1549,-2.1579,-2.1339,-2.069,-1.958,-1.8455,-1.7284,-1.6139,-1.5061,-1.5313,-1.7216,-1.66,-1.5421,-1.375,-1.1564,-0.9081,-0.69,-0.4923,-0.3082,-0.1356,-0.0844,0.0679,0.3035,0.5087,0.7018,0.9624,1.2101,1.4773,1.5956,1.7333,1.7708,1.6304,1.5345,1.3134,0.9733,0.7346,0.4918,0.3908,0.3013,0.2256,0.171,0.1694,0.2176,0.326,0.4253,0.527,0.6096,0.7073,0.7902,0.8586,0.8884,0.899,-2.2893,-2.302,-2.3271,-2.3435,-2.3522,-2.3611,-2.3544,-2.3389,-2.3363,-2.2666,-2.1542,-2.0758,-1.9507,-1.7881,-1.6714,-1.5676,-1.4721,-1.4075,-1.3996,-1.4471,-1.4812,-1.4824,-1.4801,-1.4846,-1.4699,-1.4345,-1.3918,-1.3297,-1.257,-1.1849,-1.1223,-1.0679,-1.023,-0.9769,-0.9363,-0.9148,-0.8854,-0.8523,-0.8712,-0.9136,-0.9874,-1.0755,-1.179,-1.2826,-1.3172,-1.2852,-1.2358,-1.3355,-1.4381,-1.539,-1.6109,-1.6918,-1.7776,-1.819,-1.8541,-1.8695,-1.8828,-1.8978,-1.9234,-1.9046,-1.9278,-1.9834,-2.0013,-2.0019,-1.983,-1.9344,-1.8125,-1.6743,-1.5342,-1.395,-1.2614,-1.1431,-1.1244,-1.1584,-1.2158,-1.1251,-0.9175,-0.6367,-0.4013,-0.2058,-0.0265,0.1621,0.3316,0.4885,0.6305,0.7981,1.0013,1.1653,1.3809,1.5435,1.7113,1.8301,1.8824,1.9031,1.9168,1.8934,1.8886,1.6639,1.4273,1.1851,1.0057,0.9168,0.8326,0.7536,0.7265,0.7656,0.862,0.9431,1.0355,1.1048,1.1268,1.1329,1.1475,1.1089,1.111,-2.2515,-2.2605,-2.285,-2.307,-2.3193,-2.3313,-2.3289,-2.3126,-2.2886,-2.222,-2.1227,-2.0373,-1.8991,-1.7464,-1.6318,-1.5197,-1.4014,-1.3188,-1.255,-1.2483,-1.2812,-1.3195,-1.3301,-1.3406,-1.3253,-1.286,-1.2366,-1.1661,-1.0914,-1.0112,-0.9429,-0.8908,-0.8482,-0.8066,-0.7806,-0.7545,-0.7384,-0.7309,-0.7583,-0.8143,-0.8936,-0.9822,-1.074,-1.1691,-1.1405,-1.0614,-0.9293,-0.7812,-0.8251,-1.102,-1.3011,-1.4589,-1.6226,-1.7084,-1.7123,-1.7183,-1.7363,-1.7343,-1.7619,-1.7185,-1.7351,-1.7933,-1.7719,-1.7771,-1.7447,-1.6046,-1.4573,-1.3035,-1.1565,-1.0116,-0.865,-0.7347,-0.6087,-0.4731,-0.6375,-0.6298,-0.3531,-0.1315,0.0531,0.2439,0.4281,0.5968,0.7416,0.8897,1.0181,1.1788,1.3936,1.5264,1.6254,1.7398,1.8503,1.9286,1.9893,1.9812,1.9782,2.0134,2.0044,1.9342,1.7883,1.6743,1.4959,1.4074,1.3435,1.2767,1.2248,1.2869,1.3436,1.391,1.4302,1.4546,1.4514,1.4326,1.3812,1.3266,1.2659,-2.2215,-2.2415,-2.2561,-2.2721,-2.2842,-2.2919,-2.2902,-2.2859,-2.301,-2.2308,-2.1263,-2.0588,-1.9228,-1.7395,-1.6176,-1.4869,-1.3684,-1.2725,-1.19,-1.1242,-1.119,-1.1531,-1.1846,-1.1953,-1.1796,-1.1349,-1.0738,-1.0069,-0.9356,-0.858,-0.7906,-0.7439,-0.7004,-0.6632,-0.6362,-0.6312,-0.6293,-0.6381,-0.6696,-0.7357,-0.831,-0.9228,-0.9891,-1.0284,-0.9862,-0.8351,-0.6,-0.2389,-0.2826,-0.7415,-0.943,-1.0977,-1.224,-1.3039,-1.3449,-1.3541,-1.3473,-1.347,-1.3604,-1.3672,-1.4076,-1.4712,-1.4179,-1.3998,-1.3662,-1.2168,-1.0541,-0.8912,-0.7312,-0.578,-0.4341,-0.2975,-0.1178,0.0752,-0.0634,-0.1103,0.0897,0.2913,0.4726,0.6556,0.8005,0.9472,1.0768,1.1657,1.2645,1.4418,1.5981,1.7417,1.8129,1.8955,1.9931,2.0251,2.0641,2.042,2.0401,2.0834,2.0961,2.0797,2.0314,2.0229,1.8679,1.7512,1.7088,1.6645,1.586,1.6094,1.6716,1.7266,1.7603,1.7399,1.6554,1.5741,1.539,1.4899,1.4005,-2.1899,-2.2061,-2.2186,-2.2281,-2.2409,-2.2463,-2.249,-2.2477,-2.2579,-2.2071,-2.1054,-2.0411,-1.9176,-1.7464,-1.625,-1.4982,-1.3637,-1.2725,-1.185,-1.1057,-1.0364,-1.0305,-1.0626,-1.0626,-1.0356,-0.9946,-0.9318,-0.8639,-0.8006,-0.7165,-0.6578,-0.614,-0.5601,-0.5277,-0.5167,-0.5003,-0.5113,-0.5374,-0.5819,-0.654,-0.7435,-0.833,-0.8892,-0.8966,-0.8238,-0.601,-0.1402,0.2681,0.2389,-0.1773,-0.4291,-0.6019,-0.749,-0.8317,-0.8756,-0.8842,-0.8645,-0.8501,-0.858,-0.88,-0.9219,-0.9645,-0.9467,-0.9084,-0.8425,-0.7186,-0.5579,-0.4053,-0.253,-0.1113,0.0266,0.1812,0.3735,0.5392,0.5261,0.4935,0.5343,0.6655,0.829,0.9856,1.1186,1.2416,1.3739,1.4083,1.511,1.6479,1.7518,1.8641,1.9581,2.0452,2.1068,2.1242,2.1206,2.0958,2.0566,2.0788,2.0588,2.0527,2.0705,2.1108,2.0773,1.964,1.9257,1.8772,1.8939,1.9043,1.9085,1.9172,1.9162,1.8667,1.7824,1.7091,1.6613,1.5778,1.4962,-2.1556,-2.1648,-2.1781,-2.1853,-2.1895,-2.1982,-2.1965,-2.1953,-2.1814,-2.1419,-2.0714,-1.9919,-1.8916,-1.7585,-1.6536,-1.5342,-1.4143,-1.3226,-1.2157,-1.1167,-1.0138,-0.951,-0.9569,-0.9354,-0.9033,-0.8606,-0.8031,-0.7379,-0.6681,-0.5987,-0.5382,-0.4886,-0.4336,-0.4067,-0.3956,-0.3793,-0.3904,-0.4346,-0.4824,-0.5504,-0.6386,-0.7224,-0.7741,-0.7622,-0.5836,-0.2215,0.2835,0.6619,0.6963,0.4166,0.1878,0.0072,-0.1643,-0.2533,-0.2864,-0.2765,-0.252,-0.2421,-0.2709,-0.2842,-0.335,-0.3744,-0.3709,-0.3385,-0.2843,-0.1703,-0.0372,0.0894,0.2391,0.3609,0.4939,0.6884,0.814,0.9307,1.0308,1.0298,0.9764,1.0182,1.1341,1.262,1.3764,1.4708,1.5654,1.6475,1.7327,1.7814,1.8822,1.9681,2.0413,2.0959,2.1535,2.1938,2.1763,2.1489,2.1027,2.065,2.0171,1.9859,2.0038,2.0383,2.0789,2.0243,2.0184,2.0039,1.9745,1.9746,1.9912,2.0057,2.0111,1.9731,1.8747,1.8063,1.7423,1.6279,1.5342,-2.1087,-2.1134,-2.1181,-2.126,-2.1339,-2.137,-2.1401,-2.137,-2.1182,-2.0812,-2.0261,-1.9636,-1.8826,-1.7854,-1.6983,-1.6046,-1.5073,-1.4147,-1.3025,-1.1285,-1.0087,-0.9086,-0.862,-0.8249,-0.7824,-0.7396,-0.674,-0.6086,-0.5433,-0.4783,-0.4181,-0.3732,-0.3231,-0.2847,-0.2852,-0.2683,-0.2796,-0.3239,-0.3785,-0.444,-0.5202,-0.6021,-0.6383,-0.5947,-0.3006,0.0898,0.497,0.8562,1.0647,1.0895,0.9288,0.7115,0.5848,0.5124,0.4607,0.4336,0.4449,0.4509,0.4075,0.3309,0.2784,0.2257,0.2022,0.2183,0.2642,0.3556,0.4635,0.5681,0.6778,0.7917,0.9227,1.0417,1.1403,1.2243,1.2966,1.36,1.374,1.3382,1.3676,1.472,1.5603,1.6388,1.7223,1.7701,1.844,1.9205,1.9929,2.0691,2.1135,2.1477,2.1882,2.2287,2.2401,2.2087,2.1414,2.0888,2.0189,1.9706,1.9721,1.9849,2.027,2.0473,2.0263,2.0277,2.0305,2.0347,2.0316,2.0363,2.0312,1.9957,1.9587,1.8779,1.7864,1.6753,1.5882,-2.0697,-2.0763,-2.073,-2.0763,-2.0795,-2.0745,-2.0663,-2.063,-2.0496,-2.0158,-1.9758,-1.9273,-1.8688,-1.8002,-1.7353,-1.6714,-1.599,-1.5071,-1.3852,-1.2302,-1.0973,-0.9607,-0.8271,-0.7433,-0.6794,-0.6312,-0.566,-0.4999,-0.434,-0.3735,-0.3125,-0.2623,-0.2065,-0.173,-0.1623,-0.1456,-0.1566,-0.2011,-0.2561,-0.3113,-0.3666,-0.4484,-0.4516,-0.358,-0.0711,0.2627,0.616,0.9526,1.252,1.4449,1.4678,1.3521,1.2025,1.1284,1.087,1.0694,1.0528,1.0393,0.984,0.8782,0.7866,0.7853,0.7644,0.7619,0.7791,0.8435,0.9074,0.9782,1.0589,1.1631,1.2795,1.3491,1.413,1.4606,1.5211,1.587,1.6279,1.572,1.5477,1.6456,1.7124,1.7759,1.8387,1.8861,1.9294,1.994,2.0426,2.1135,2.1323,2.1685,2.2056,2.2453,2.2799,2.261,2.1878,2.1164,2.0366,1.9899,1.9643,1.9776,2.002,2.0136,2.02,2.0262,2.0338,2.0385,2.0379,2.0445,2.0455,2.0215,1.9784,1.9134,1.8345,1.7338,1.6566,-2.0273,-2.0308,-2.0224,-2.0189,-2.0154,-1.998,-1.9909,-1.9839,-1.9681,-1.9398,-1.9089,-1.8841,-1.8277,-1.7868,-1.7557,-1.7214,-1.6795,-1.6046,-1.5004,-1.3856,-1.23,-1.0739,-0.9137,-0.7547,-0.6122,-0.5433,-0.4563,-0.3901,-0.3236,-0.2679,-0.1953,-0.1453,-0.0894,-0.0503,-0.0335,-0.0168,-0.0168,-0.0502,-0.0947,-0.1391,-0.1781,-0.2496,-0.2402,-0.1284,0.0737,0.3619,0.7008,1.0339,1.3586,1.6617,1.8544,1.8241,1.7039,1.6014,1.5792,1.5757,1.5425,1.5075,1.444,1.329,1.243,1.2797,1.2559,1.2353,1.2262,1.2371,1.2721,1.3226,1.3839,1.4496,1.5433,1.5794,1.6244,1.6678,1.7081,1.7581,1.7872,1.7499,1.7558,1.7839,1.838,1.8912,1.9398,1.9838,2.0246,2.0614,2.1087,2.1448,2.1642,2.1919,2.2298,2.2624,2.296,2.2663,2.1908,2.1224,2.0446,1.9985,1.9648,1.9712,1.9856,1.9988,2.0116,2.0222,2.0299,2.0347,2.0385,2.0404,2.0385,2.0336,2.0104,1.9568,1.8804,1.792,1.7349,-1.956,-1.9581,-1.9442,-1.9354,-1.931,-1.9184,-1.9029,-1.8878,-1.8727,-1.8521,-1.8249,-1.7973,-1.7598,-1.7352,-1.7282,-1.7371,-1.7345,-1.7079,-1.659,-1.5497,-1.4,-1.2254,-1.0282,-0.8228,-0.6352,-0.4652,-0.3619,-0.279,-0.1955,-0.1174,-0.0558,0.0,0.0559,0.0894,0.1174,0.1342,0.134,0.1225,0.089,0.0556,0.0167,-0.0278,-0.0388,0.0493,0.2282,0.4824,0.7796,1.1146,1.4381,1.7222,1.9346,2.051,2.0635,2.015,1.9766,1.9484,1.9244,1.8815,1.82,1.7301,1.6639,1.6478,1.6034,1.5736,1.5567,1.5569,1.5593,1.5886,1.6308,1.6892,1.737,1.7599,1.7855,1.8179,1.8405,1.8719,1.9104,1.9221,1.9173,1.9243,1.9617,1.9867,2.0239,2.0567,2.0894,2.1166,2.1507,2.1797,2.1974,2.2231,2.2569,2.285,2.314,2.2557,2.1838,2.1186,2.0483,1.9981,1.969,1.9679,1.9788,1.9922,2.0059,2.0134,2.0249,2.0304,2.0346,2.0366,2.0374,2.0366,2.0198,2.0037,1.9393,1.8706,1.8323,-1.886,-1.8898,-1.8769,-1.8679,-1.8563,-1.8408,-1.8238,-1.804,-1.7854,-1.7598,-1.7244,-1.6899,-1.6562,-1.6373,-1.6318,-1.6802,-1.7571,-1.8027,-1.7678,-1.684,-1.5617,-1.3956,-1.19,-0.9589,-0.7308,-0.5317,-0.3542,-0.1949,-0.0781,0.0056,0.0781,0.1449,0.2007,0.2399,0.2623,0.2843,0.295,0.289,0.272,0.2496,0.2218,0.1667,0.156,0.2112,0.3319,0.547,0.7997,1.1134,1.4293,1.7153,1.9621,2.1428,2.2451,2.2835,2.2531,2.2133,2.1804,2.1391,2.0845,1.9958,1.9275,1.8691,1.8426,1.8127,1.7781,1.7673,1.7755,1.7877,1.8076,1.8458,1.874,1.8907,1.9156,1.9339,1.9493,1.9737,2.0054,2.0382,2.0445,2.0407,2.055,2.0728,2.0909,2.1229,2.1524,2.1781,2.2015,2.2163,2.2299,2.2556,2.2842,2.3098,2.3315,2.2977,2.2297,2.166,2.0778,2.0163,1.9796,1.9787,1.9725,1.9854,1.9958,2.005,2.0143,2.026,2.0296,2.0327,2.0365,2.039,2.0329,2.0194,1.9947,1.957,1.913,-1.8108,-1.8226,-1.8147,-1.8068,-1.7921,-1.7747,-1.7598,-1.7393,-1.7144,-1.674,-1.6256,-1.5784,-1.5318,-1.5027,-1.5269,-1.5964,-1.7342,-1.7899,-1.8171,-1.7988,-1.7086,-1.5593,-1.3662,-1.1429,-0.9155,-0.6807,-0.4267,-0.1879,-0.0111,0.1115,0.2009,0.2785,0.3398,0.384,0.4116,0.4333,0.4494,0.4601,0.4488,0.432,0.3938,0.3392,0.2899,0.2899,0.395,0.5558,0.7844,1.081,1.3961,1.6938,1.9586,2.182,2.3289,2.4154,2.4241,2.3744,2.3285,2.2772,2.2241,2.1632,2.0879,2.0203,2.0111,1.9737,1.9345,1.909,1.9126,1.9302,1.9419,1.9603,1.9809,1.997,2.0142,2.0288,2.0404,2.0569,2.0796,2.1038,2.1278,2.1315,2.1444,2.1477,2.1568,2.1744,2.2005,2.213,2.2343,2.2449,2.261,2.2811,2.3076,2.3318,2.3451,2.3345,2.2902,2.2411,2.1451,2.0486,2.0159,2.001,1.9879,1.9788,1.9881,1.9981,2.0098,2.019,2.0249,2.0311,2.034,2.0396,2.0454,2.0383,2.0189,2.0033,1.9726,-1.7105,-1.7365,-1.7475,-1.7488,-1.7461,-1.7323,-1.7199,-1.7044,-1.6625,-1.6051,-1.5511,-1.4755,-1.4021,-1.3455,-1.3914,-1.4885,-1.6065,-1.737,-1.821,-1.8402,-1.809,-1.7196,-1.5734,-1.3651,-1.1327,-0.8839,-0.6068,-0.2782,-0.0331,0.1554,0.3118,0.3898,0.467,0.5277,0.5538,0.576,0.6145,0.6411,0.6303,0.5873,0.5164,0.4611,0.4174,0.407,0.4615,0.5792,0.7757,1.0582,1.3638,1.6794,1.9657,2.1961,2.3594,2.4588,2.4962,2.4772,2.4313,2.3664,2.3163,2.2514,2.1943,2.1397,2.1151,2.084,2.0392,2.0093,2.0097,2.0299,2.0364,2.0441,2.0618,2.0726,2.0876,2.0957,2.107,2.1209,2.1391,2.1553,2.1807,2.1955,2.1994,2.1982,2.2027,2.2231,2.2432,2.2527,2.2649,2.2781,2.2903,2.3101,2.3302,2.3544,2.3707,2.3611,2.3398,2.2887,2.2208,2.1064,2.0541,2.0285,2.009,1.9937,1.9818,1.9915,2.0029,2.0155,2.0214,2.0269,2.0325,2.0373,2.0432,2.0456,2.0486,2.0338,2.0175,-1.5508,-1.6552,-1.6808,-1.7002,-1.7099,-1.7157,-1.7128,-1.6876,-1.6436,-1.5756,-1.4915,-1.3867,-1.2686,-1.1773,-1.2108,-1.3144,-1.4552,-1.62,-1.7598,-1.8542,-1.8598,-1.8307,-1.7317,-1.5673,-1.3635,-1.1238,-0.8366,-0.519,-0.1946,0.1321,0.3498,0.478,0.5719,0.6322,0.6637,0.6961,0.7283,0.745,0.7289,0.6745,0.5987,0.5332,0.4787,0.4349,0.4846,0.5964,0.7769,1.031,1.3427,1.6634,1.9624,2.2066,2.3731,2.4771,2.529,2.5318,2.4995,2.4445,2.3822,2.3168,2.2634,2.2158,2.1797,2.1405,2.107,2.0876,2.0828,2.0926,2.1039,2.1151,2.1295,2.1374,2.1444,2.1546,2.1598,2.1681,2.1807,2.2079,2.226,2.2409,2.2517,2.249,2.249,2.2607,2.2747,2.2782,2.2893,2.3055,2.3193,2.3376,2.3558,2.3744,2.3866,2.3946,2.3674,2.3309,2.2942,2.195,2.0899,2.0612,2.0319,2.0136,1.9976,1.9892,1.9966,2.0079,2.0169,2.0246,2.0315,2.0359,2.0379,2.042,2.048,2.0499,2.0365,-1.3989,-1.545,-1.6069,-1.6607,-1.696,-1.7157,-1.717,-1.7002,-1.6479,-1.5656,-1.4389,-1.285,-1.1132,-1.0171,-1.0436,-1.1465,-1.2862,-1.4852,-1.6555,-1.7836,-1.8745,-1.9022,-1.8456,-1.7356,-1.5948,-1.3904,-1.1024,-0.7716,-0.3977,-0.0432,0.2745,0.5105,0.6312,0.7025,0.7456,0.7777,0.8043,0.8103,0.7717,0.7122,0.6308,0.5601,0.4952,0.468,0.4956,0.5819,0.7535,1.0176,1.3281,1.6579,1.9663,2.2153,2.3968,2.4958,2.5418,2.5476,2.529,2.5005,2.4377,2.3785,2.3221,2.2729,2.2186,2.179,2.154,2.1479,2.1448,2.1448,2.1509,2.1636,2.1749,2.1817,2.1836,2.189,2.1969,2.2051,2.2164,2.2381,2.2552,2.2642,2.2756,2.2902,2.2927,2.2995,2.3045,2.302,2.3161,2.3324,2.3481,2.3613,2.3726,2.3888,2.3963,2.4057,2.3931,2.3657,2.3327,2.2832,2.1783,2.0933,2.0625,2.0311,2.0089,2.0032,1.9938,2.0,2.0088,2.0197,2.0292,2.0325,2.0354,2.0388,2.0448,2.0477,2.0516,-1.2749,-1.387,-1.5371,-1.6367,-1.7005,-1.7295,-1.7419,-1.7365,-1.6625,-1.562,-1.4011,-1.1554,-0.9644,-0.8928,-0.9214,-1.0097,-1.1393,-1.3605,-1.5536,-1.7236,-1.8565,-1.928,-1.9236,-1.8891,-1.8009,-1.6281,-1.344,-1.0075,-0.639,-0.2294,0.1299,0.458,0.6244,0.7343,0.7889,0.8096,0.8143,0.7984,0.7545,0.6897,0.6091,0.5382,0.4728,0.4463,0.4849,0.5814,0.7276,1.0168,1.335,1.6734,1.9761,2.2249,2.4068,2.5089,2.5521,2.5561,2.5512,2.5253,2.4826,2.4279,2.3717,2.3159,2.259,2.2057,2.1882,2.1828,2.1816,2.184,2.184,2.1915,2.1945,2.1982,2.2039,2.2113,2.2175,2.2287,2.2409,2.2607,2.2773,2.2876,2.2977,2.3119,2.3168,2.3193,2.3193,2.3193,2.3336,2.3517,2.3634,2.3756,2.3864,2.3984,2.4057,2.4113,2.417,2.3933,2.3694,2.3345,2.2593,2.1636,2.0912,2.0585,2.0233,1.9924,1.9818,1.9907,2.0021,2.0144,2.0249,2.0272,2.0328,2.0377,2.0439,2.0497,2.0536,-1.1064,-1.2558,-1.3921,-1.5318,-1.674,-1.7227,-1.7475,-1.7407,-1.6782,-1.5116,-1.2859,-1.0519,-0.8876,-0.8302,-0.8243,-0.9058,-1.0394,-1.2503,-1.4508,-1.6426,-1.7968,-1.9207,-1.9671,-1.9748,-1.9271,-1.7658,-1.5157,-1.1984,-0.8022,-0.3859,-0.0216,0.3063,0.5679,0.7069,0.7723,0.7824,0.7593,0.7154,0.6612,0.5855,0.5152,0.456,0.4122,0.4073,0.4732,0.6018,0.7881,1.0656,1.3784,1.6964,1.998,2.2294,2.4143,2.5111,2.5566,2.5641,2.5579,2.5438,2.5166,2.4623,2.3988,2.3265,2.2755,2.2394,2.2215,2.2141,2.2101,2.2106,2.2106,2.2135,2.2163,2.2192,2.2237,2.2293,2.2349,2.2449,2.2596,2.2773,2.2952,2.3028,2.3168,2.3289,2.3313,2.3313,2.3336,2.3336,2.3522,2.3678,2.3789,2.3876,2.3961,2.4041,2.4114,2.4151,2.419,2.4135,2.4061,2.3712,2.3327,2.2372,2.1414,2.0768,2.04,2.0029,1.9732,1.9858,1.9979,2.0117,2.0197,2.0269,2.0308,2.0346,2.0419,2.0497,2.0632,-0.9398,-1.1091,-1.2271,-1.4117,-1.6188,-1.6951,-1.7312,-1.7231,-1.6714,-1.4733,-1.172,-0.9974,-0.8606,-0.7931,-0.7824,-0.8389,-0.9695,-1.1451,-1.3382,-1.5262,-1.706,-1.8574,-1.9447,-1.9697,-1.9265,-1.7971,-1.559,-1.2296,-0.8254,-0.446,-0.0757,0.2415,0.4696,0.6081,0.7015,0.6897,0.6445,0.5788,0.4965,0.4365,0.366,0.3226,0.3292,0.3569,0.4501,0.6161,0.8371,1.108,1.4169,1.7264,2.009,2.2453,2.3979,2.5049,2.5543,2.5644,2.5625,2.5503,2.5247,2.4708,2.4063,2.3371,2.2963,2.2674,2.2494,2.2338,2.2271,2.2225,2.2254,2.2327,2.2327,2.2282,2.2282,2.231,2.2405,2.2515,2.2659,2.285,2.3003,2.3168,2.3289,2.3424,2.3437,2.3437,2.3419,2.3442,2.358,2.3718,2.3813,2.3917,2.3999,2.4096,2.4153,2.419,2.419,2.4153,2.4116,2.4061,2.3584,2.2868,2.2022,2.134,2.0486,1.9843,1.9681,1.9818,1.9945,2.0098,2.0182,2.0265,2.032,2.0377,2.0439,2.0555,2.0837,-0.7777,-0.9459,-1.0625,-1.2799,-1.5318,-1.6398,-1.676,-1.6715,-1.5954,-1.4082,-1.1373,-0.9776,-0.8501,-0.767,-0.7563,-0.7966,-0.8776,-1.0277,-1.1962,-1.3736,-1.5396,-1.7103,-1.8051,-1.8403,-1.7644,-1.6917,-1.4075,-1.0556,-0.7209,-0.3392,-0.0108,0.1874,0.377,0.4824,0.614,0.5525,0.4751,0.3978,0.2984,0.2437,0.2055,0.1782,0.2119,0.3065,0.4326,0.6093,0.8624,1.1447,1.4476,1.7585,2.0286,2.2497,2.4163,2.5046,2.5517,2.5679,2.5644,2.5531,2.5351,2.4626,2.4045,2.3549,2.319,2.2885,2.263,2.2466,2.2361,2.2299,2.231,2.2327,2.2327,2.2327,2.2327,2.2338,2.2432,2.2552,2.2694,2.2902,2.3095,2.3241,2.3401,2.3494,2.3524,2.3537,2.3542,2.3565,2.3638,2.3757,2.3852,2.3958,2.4056,2.4096,2.4153,2.419,2.419,2.419,2.4171,2.4171,2.3896,2.3235,2.2629,2.2022,2.1058,1.9963,2.0014,2.0502,2.0308,2.0077,2.0239,2.0412,2.0366,2.0394,2.0472,2.0692,2.1074,-0.5506,-0.7216,-0.8385,-1.0089,-1.2176,-1.4496,-1.5512,-1.5435,-1.4198,-1.2608,-1.083,-0.9207,-0.8031,-0.7348,-0.6961,-0.7106,-0.7723,-0.8632,-1.0182,-1.1504,-1.3042,-1.4337,-1.5181,-1.5081,-1.4494,-1.2669,-1.0211,-0.7043,-0.3399,-0.0735,0.1025,0.2804,0.289,0.3279,0.3765,0.3484,0.2764,0.1883,0.1109,0.0611,0.0446,0.0557,0.1171,0.2454,0.41,0.6245,0.8851,1.1785,1.4751,1.7754,2.0391,2.2446,2.3997,2.4931,2.5447,2.5641,2.566,2.5503,2.5229,2.4699,2.4244,2.3795,2.3366,2.3032,2.2755,2.2511,2.2428,2.2355,2.231,2.231,2.2327,2.2327,2.2327,2.2338,2.2405,2.2552,2.2694,2.2927,2.3144,2.3313,2.3471,2.3562,2.3616,2.3643,2.3647,2.3683,2.375,2.3757,2.3852,2.3994,2.4092,2.4114,2.4153,2.4171,2.419,2.419,2.419,2.419,2.4043,2.3676,2.3125,2.2519,2.1742,2.0677,2.0941,2.1231,2.1039,2.0842,2.0606,2.0571,2.0779,2.072,2.0675,2.1029,2.1548,-0.3346,-0.4962,-0.6082,-0.7366,-0.9132,-1.2253,-1.3764,-1.3645,-1.2491,-1.1217,-0.9887,-0.8429,-0.7272,-0.6578,-0.6145,-0.5855,-0.6166,-0.6812,-0.7437,-0.8643,-0.966,-1.0445,-1.0775,-1.0535,-0.8865,-0.7128,-0.46,-0.1667,0.1039,0.2481,0.3057,0.2806,0.2284,0.2004,0.2001,0.1556,0.1055,0.0334,-0.0279,-0.0558,-0.0447,-0.0056,0.0781,0.2443,0.4354,0.6498,0.9307,1.213,1.5006,1.7805,2.0252,2.2341,2.3731,2.4744,2.5332,2.557,2.5609,2.5449,2.512,2.5186,2.4796,2.4406,2.3715,2.3179,2.2859,2.262,2.2466,2.2394,2.2372,2.2361,2.2412,2.2395,2.2446,2.2474,2.275,2.2887,2.3239,2.3484,2.3841,2.3958,2.3903,2.3911,2.3718,2.3743,2.3768,2.3804,2.3858,2.3865,2.3871,2.4012,2.413,2.4133,2.4153,2.419,2.419,2.419,2.419,2.419,2.4061,2.3896,2.3382,2.274,2.2075,2.1546,2.1689,2.1789,2.1833,2.1704,2.1581,2.1543,2.1617,2.1424,2.1029,2.1522,2.2232,-0.1343,-0.2781,-0.3752,-0.4895,-0.6536,-0.9655,-1.1358,-1.1702,-1.0995,-0.9993,-0.8724,-0.7522,-0.6406,-0.5483,-0.4992,-0.4597,-0.4249,-0.4544,-0.4763,-0.5072,-0.564,-0.5867,-0.533,-0.4479,-0.2652,-0.0406,0.1958,0.4149,0.5952,0.5531,0.4754,0.307,0.2049,0.1419,0.0906,0.0732,0.0225,-0.0336,-0.0727,-0.0783,-0.0559,-0.0056,0.1278,0.2987,0.4942,0.7272,0.9915,1.2681,1.5331,1.7937,2.0319,2.215,2.3603,2.4686,2.5197,2.5503,2.5542,2.5376,2.5346,2.5565,2.5518,2.5051,2.4292,2.3573,2.3135,2.2953,2.2819,2.2777,2.2779,2.2655,2.2592,2.2632,2.2699,2.2966,2.3328,2.3629,2.4016,2.4392,2.4774,2.4867,2.4769,2.4548,2.3964,2.386,2.4042,2.3935,2.399,2.401,2.4032,2.4051,2.415,2.417,2.419,2.419,2.419,2.419,2.419,2.419,2.4171,2.3988,2.3474,2.3125,2.2737,2.2428,2.2318,2.2369,2.2574,2.269,2.2722,2.2658,2.2482,2.2341,2.2001,2.2575,2.3246,0.0293,-0.0994,-0.1905,-0.2943,-0.4194,-0.6212,-0.8124,-0.9695,-0.9182,-0.8312,-0.7298,-0.618,-0.5152,-0.4275,-0.3558,-0.2943,-0.2378,-0.1926,-0.1584,-0.1561,-0.1372,-0.0772,0.0248,0.167,0.389,0.6267,0.8471,0.9959,1.0483,0.94,0.598,0.3856,0.2368,0.1529,0.1278,0.1269,0.0683,0.0112,-0.0168,-0.0167,0.0278,0.0999,0.2434,0.4072,0.5954,0.8268,1.0748,1.3201,1.58,1.8163,2.0276,2.2099,2.3578,2.4487,2.5148,2.5529,2.5556,2.5524,2.5798,2.5793,2.5764,2.5795,2.5239,2.4676,2.4088,2.3606,2.3357,2.3322,2.3448,2.3447,2.3468,2.3473,2.349,2.3684,2.4052,2.4437,2.4838,2.5257,2.5614,2.5703,2.5586,2.5074,2.4472,2.431,2.4456,2.422,2.4112,2.4168,2.4132,2.415,2.415,2.419,2.419,2.419,2.419,2.419,2.419,2.419,2.4171,2.4154,2.3933,2.3658,2.3455,2.3326,2.3239,2.3316,2.3495,2.3583,2.3672,2.3396,2.3198,2.3129,2.3173,2.3686,2.4044,0.1555,0.046,-0.023,-0.1248,-0.2391,-0.3597,-0.5112,-0.646,-0.6912,-0.6593,-0.5797,-0.4824,-0.3834,-0.289,-0.2004,-0.1113,-0.0277,0.0552,0.1207,0.2115,0.2832,0.4158,0.5611,0.7549,0.9952,1.2299,1.3883,1.485,1.4171,1.0508,0.6856,0.4255,0.2881,0.2666,0.2741,0.3301,0.35,0.2685,0.2021,0.1608,0.2044,0.2865,0.4111,0.569,0.7506,0.9577,1.1755,1.4074,1.6254,1.8421,2.0371,2.1967,2.3458,2.4502,2.5129,2.5529,2.5801,2.58,2.5958,2.6378,2.6353,2.6245,2.6033,2.5561,2.4995,2.4471,2.4202,2.4041,2.4266,2.4431,2.4465,2.4486,2.4455,2.4472,2.4846,2.5202,2.5657,2.6118,2.6339,2.6465,2.6168,2.5683,2.5324,2.5106,2.4922,2.4772,2.4589,2.4444,2.4298,2.4152,2.417,2.419,2.419,2.419,2.419,2.419,2.419,2.4209,2.4209,2.4191,2.421,2.421,2.4022,2.4083,2.4174,2.4238,2.4277,2.4486,2.4546,2.4254,2.4116,2.4227,2.433,2.4628,2.4883,0.2411,0.1568,0.112,0.0112,-0.0947,-0.1726,-0.228,-0.2668,-0.4255,-0.4754,-0.4106,-0.3453,-0.2504,-0.1447,-0.0502,0.0613,0.1664,0.2711,0.3954,0.5247,0.6487,0.8031,1.0298,1.2913,1.4475,1.6831,1.7855,1.7289,1.5497,1.1833,0.7638,0.4796,0.4393,0.4372,0.4924,0.5969,0.6609,0.6929,0.5725,0.4944,0.4824,0.5396,0.6338,0.787,0.957,1.1292,1.3198,1.5095,1.6879,1.8766,2.051,2.2139,2.3541,2.4615,2.5168,2.5611,2.5981,2.6184,2.6301,2.6693,2.6762,2.6607,2.6343,2.6013,2.5502,2.5105,2.4819,2.4777,2.4989,2.5198,2.5268,2.5222,2.5206,2.5321,2.5632,2.5942,2.6277,2.676,2.7199,2.7218,2.6913,2.6423,2.6038,2.5839,2.5672,2.5468,2.5283,2.5027,2.4624,2.437,2.4278,2.4278,2.4189,2.4189,2.417,2.417,2.419,2.4209,2.4209,2.4265,2.4299,2.4442,2.4605,2.4614,2.4626,2.4889,2.502,2.5091,2.5097,2.5081,2.5052,2.5354,2.5503,2.5444,2.5434,0.2805,0.2015,0.1346,0.0784,0.0391,-0.0056,-0.0335,-0.0502,-0.1001,-0.1833,-0.2338,-0.1839,-0.1059,-0.0056,0.0892,0.1949,0.3277,0.4583,0.6093,0.76,0.9183,1.1103,1.3464,1.5512,1.7692,1.9161,1.9491,1.8001,1.4746,1.1424,0.8854,0.6808,0.6328,0.655,0.7567,0.8819,0.9856,1.0662,1.0453,0.9247,0.87,0.917,1.0093,1.1226,1.2579,1.3882,1.5572,1.7076,1.8475,1.995,2.1356,2.279,2.419,2.4867,2.5493,2.6002,2.6199,2.6449,2.6652,2.6794,2.6669,2.6615,2.6341,2.6169,2.5909,2.5628,2.5511,2.5541,2.5641,2.5862,2.5949,2.5899,2.59,2.6117,2.6316,2.6563,2.684,2.743,2.799,2.7852,2.7584,2.7266,2.6885,2.6625,2.642,2.6267,2.6111,2.5816,2.523,2.4847,2.4587,2.4517,2.4184,2.413,2.415,2.417,2.419,2.4209,2.4228,2.4283,2.4393,2.4588,2.4764,2.4917,2.5024,2.5168,2.5262,2.5322,2.5359,2.5412,2.5441,2.5493,2.5556,2.552,2.5605,0.3076,0.2354,0.1849,0.1623,0.162,0.1341,0.1228,0.1173,0.1005,0.0502,-0.0167,-0.0167,0.0223,0.1173,0.2063,0.3219,0.4597,0.6166,0.7694,0.9416,1.1245,1.3284,1.5495,1.7382,1.8709,2.0005,1.8896,1.6802,1.3533,1.1344,0.9296,0.8297,0.8222,0.9068,1.0309,1.168,1.2943,1.3867,1.4547,1.4141,1.2928,1.3086,1.3111,1.4031,1.5099,1.6337,1.7315,1.8708,1.9838,2.1271,2.2831,2.4173,2.5319,2.594,2.628,2.6597,2.6752,2.6763,2.6807,2.6632,2.6289,2.6099,2.5882,2.5489,2.5749,2.5491,2.576,2.5848,2.6051,2.6269,2.6184,2.6116,2.6116,2.6235,2.6488,2.6734,2.7239,2.7832,2.8232,2.8367,2.826,2.8278,2.7985,2.7922,2.7624,2.6964,2.6822,2.6363,2.5822,2.5393,2.5136,2.4838,2.4566,2.4217,2.4112,2.417,2.419,2.4209,2.4339,2.4464,2.4639,2.4768,2.4927,2.5254,2.5375,2.5231,2.5322,2.5601,2.5466,2.5397,2.5429,2.5471,2.5576,2.5766,2.5801,0.3304,0.2802,0.2519,0.2573,0.2794,0.2571,0.2569,0.2623,0.2404,0.2294,0.2181,0.1452,0.1621,0.2235,0.3123,0.4378,0.5734,0.7191,0.8926,1.0697,1.2522,1.4303,1.6148,1.8029,1.9016,1.8858,1.7815,1.5729,1.3094,1.1357,1.0268,0.9668,1.0434,1.15,1.2972,1.4452,1.5751,1.6579,1.7297,1.8024,1.7448,1.6621,1.6229,1.653,1.7289,1.8147,1.9074,2.002,2.1175,2.2342,2.3902,2.5116,2.5978,2.6469,2.6784,2.699,2.6898,2.6657,2.6335,2.6009,2.5609,2.5228,2.5011,2.5023,2.525,2.5562,2.5795,2.6066,2.6277,2.6347,2.6295,2.6243,2.6243,2.6349,2.6607,2.6952,2.7572,2.8129,2.8438,2.87,2.8803,2.8902,2.8902,2.8855,2.8469,2.7803,2.7308,2.6795,2.6364,2.6032,2.5772,2.5446,2.5141,2.4765,2.4547,2.4629,2.4833,2.4653,2.4801,2.4841,2.5013,2.5546,2.5855,2.5826,2.5857,2.5985,2.5995,2.6227,2.5957,2.5803,2.612,2.6384,2.6377,2.6487,2.6178,0.3577,0.3302,0.3294,0.3516,0.3741,0.3793,0.3846,0.3843,0.3683,0.3574,0.3405,0.335,0.3239,0.3188,0.4067,0.5156,0.6445,0.8006,0.9614,1.1349,1.2984,1.4812,1.6473,1.7863,1.8422,1.7933,1.682,1.4908,1.3153,1.1881,1.1285,1.125,1.2611,1.3956,1.5595,1.6938,1.804,1.8859,1.9482,2.0079,2.0167,1.9522,1.9105,1.9397,1.9943,2.058,2.1285,2.1991,2.2479,2.3264,2.436,2.5544,2.6248,2.6695,2.6903,2.6858,2.6788,2.6097,2.5648,2.5127,2.4611,2.425,2.4143,2.4518,2.4798,2.5221,2.5508,2.5795,2.5974,2.603,2.5994,2.5974,2.6026,2.6312,2.6556,2.7152,2.7742,2.8174,2.8482,2.87,2.8887,2.8934,2.8957,2.8887,2.8755,2.8245,2.8,2.7504,2.6896,2.6631,2.6393,2.615,2.5847,2.5914,2.5965,2.58,2.5866,2.5541,2.539,2.5625,2.6071,2.6749,2.6956,2.6738,2.6973,2.7206,2.7198,2.6871,2.7064,2.7036,2.7335,2.7528,2.7415,2.7239,2.6962]},{"header":{"parameterUnit":"m.s-1","parameterCategory":1,"la1":31.0,"la2":29.5877,"lo1":-88.7671,"lo2":-86.6584,"dy":0.0162,"dx":0.0185,"nx":115,"ny":88,"refTime":"2024-07-11T12:00:00:Z","depth":0,"parameterNumber":3,"parameterNumberName":"V-component_of_WINDS"},"data":[0.0,0.0,0.0,0.0,0.0,0.0,0.0,0.0,0.0,0.0,0.0,0.0,0.0,0.0,0.0,0.0,0.0,0.0,0.0,0.0,0.0,0.0,0.0,0.0,0.0,0.0,0.0,0.0,0.0,0.0,0.0,0.0,0.0,0.0,0.0,0.0,0.0,0.0,0.0,0.0,0.0,0.0,0.0,0.0,0.0,0.0,0.0,0.0,0.0,0.0,0.0,0.0,0.0,0.0,0.0,0.0,0.0,0.0,0.0,0.0,0.0,0.0,0.0,0.0,0.0,0.0,0.0,0.0,0.0,0.0,0.0,0.0,0.0,0.0,0.0,0.0,0.0,0.0,0.0,0.0,0.0,0.0,0.0,0.0,0.0,0.0,0.0,0.0,0.0,0.0,0.0,0.0,0.0,0.0,0.0,0.0,0.0,0.0,0.0,0.0,0.0,0.0,0.0,0.0,0.0,0.0,0.0,0.0,0.0,0.0,0.0,0.0,0.0,0.0,0.0,0.0,0.0,0.0,0.0,0.0,0.0,0.0,0.0,0.0,0.0,0.0,0.0,0.0,0.0,0.0,0.0,0.0,0.0,0.0,0.0,0.0,0.0,0.0,0.0,0.0,0.0,0.0,0.0,0.0,0.0,0.0,0.0,0.0,0.0,0.0,0.0,0.0,0.0,0.0,0.0,0.0,0.0,0.0,0.0,0.0,0.0,0.0,0.0,0.0,0.0,0.0,0.0,0.0,0.0,0.0,0.0,0.0,0.0,0.0,0.0,0.0,0.0,0.0,0.0,0.0,0.0,0.0,0.0,0.0,0.0,0.0,0.0,0.0,0.0,0.0,0.0,0.0,0.0,0.0,0.0,0.0,0.0,0.0,0.0,0.0,0.0,0.0,0.0,0.0,0.0,0.0,0.0,0.0,0.0,0.0,0.0,0.0,0.0,0.0,0.0,0.0,0.0,0.0,0.0,0.0,0.0,0.0,0.0,0.0,0.0,0.0,0.0,0.0,0.0,0.0,0.0,0.0,0.0,0.0,0.0,0.0,0.0,0.0,0.0,0.0,0.0,0.0,0.0,0.0,0.0,0.0,0.0,0.0,0.0,0.0,0.0,0.0,0.0,0.0,0.0,0.0,0.0,0.0,0.0,0.0,0.0,0.0,0.0,0.0,0.0,0.0,0.0,0.0,0.0,0.0,0.0,0.0,0.0,0.0,0.0,0.0,0.0,0.0,0.0,0.0,0.0,0.0,0.0,0.0,0.0,0.0,0.0,0.0,0.0,0.0,0.0,0.0,0.0,0.0,0.0,0.0,0.0,0.0,0.0,0.0,0.0,0.0,0.0,0.0,0.0,0.0,0.0,0.0,0.0,0.0,0.0,0.0,0.0,0.0,0.0,0.0,0.0,0.0,0.0,0.0,0.0,0.0,0.0,0.0,0.0,0.0,0.0,0.0,0.0,0.0,0.0,0.0,0.0,0.0,0.0,0.0,0.0,0.0,0.0,0.0,0.0,0.0,0.0,0.0,0.0,0.0,0.0,0.0,0.0,0.0,0.0,0.0,0.0,0.0,0.0,0.0,0.0,0.0,0.0,0.0,0.0,0.0,0.0,0.0,0.0,0.0,0.0,0.0,0.0,0.0,0.0,0.0,0.0,0.0,0.0,0.0,0.0,0.0,0.0,0.0,0.0,0.0,0.0,0.0,0.0,0.0,0.0,0.0,0.0,0.0,0.0,0.0,0.0,0.0,0.0,0.0,0.0,0.0,0.0,0.0,0.0,0.0,0.0,0.0,0.0,0.0,0.0,0.0,0.0,0.0,0.0,0.0,0.0,0.0,0.0,0.0,0.0,0.0,0.0,0.0,0.0,0.0,0.0,0.0,0.0,0.0,0.0,0.0,0.0,0.0,0.0,0.0,0.0,0.0,0.0,0.0,0.0,0.0,0.0,0.0,0.0,0.0,0.0,0.0,0.0,0.0,0.0,0.0,0.0,0.0,0.0,0.0,0.0,0.0,0.0,0.0,0.0,0.0,0.0,0.0,0.0,0.0,0.0,0.0,0.0,0.0,0.0,0.0,0.0,0.0,0.0,0.0,0.0,0.0,0.0,0.0,0.0,0.0,0.0,0.0,0.0,0.0,0.0,0.0,0.0,0.0,0.0,0.0,0.0,0.0,0.0,0.0,0.0,0.0,0.0,0.0,0.0,0.0,0.0,0.0,0.0,0.0,0.0,0.0,0.0,0.0,0.0,0.0,0.0,0.0,0.0,0.0,0.0,0.0,0.0,0.0,0.0,0.0,0.0,0.0,0.0,0.0,0.0,0.0,0.0,0.0,0.0,0.0,0.0,0.0,0.0,0.0,0.0,0.0,0.0,0.0,0.0,0.0,0.0,0.0,0.0,0.0,0.0,0.0,0.0,0.0,0.0,0.0,0.0,0.0,0.0,0.0,0.0,0.0,0.0,0.0,0.0,0.0,0.0,0.0,0.0,0.0,0.0,0.0,0.0,0.0,0.0,0.0,0.0,0.0,0.0,0.0,0.0,0.0,0.0,0.0,0.0,0.0,0.0,0.0,0.0,0.0,0.0,0.0,0.0,0.0,0.0,0.0,0.0,0.0,0.0,0.0,0.0,0.0,0.0,0.0,0.0,0.0,0.0,0.0,0.0,0.0,0.0,0.0,0.0,0.0,0.0,0.0,0.0,0.0,0.0,0.0,0.0,0.0,0.0,0.0,0.0,0.0,0.0,0.0,0.0,0.0,0.0,0.0,0.0,0.0,0.0,0.0,0.0,0.0,0.0,0.0,0.0,0.0,0.0,0.0,0.0,0.0,0.0,0.0,0.0,0.0,0.0,0.0,0.0,0.0,0.0,0.0,0.0,0.0,0.0,0.0,0.0,0.0,0.0,0.0,0.0,0.0,0.0,0.0,0.0,0.0,0.0,0.0,0.0,0.0,0.0,0.0,0.0,0.0,0.0,0.0,0.0,0.0,0.0,0.0,0.0,0.0,0.0,0.0,0.0,0.0,0.0,0.0,0.0,0.0,0.0,0.0,0.0,0.0,0.0,0.0,0.0,0.0,0.0,0.0,0.0,0.0,0.0,0.0,0.0,0.0,0.0,0.0,0.0,0.0,0.0,0.0,0.0,0.0,0.0,0.0,0.0,0.0,0.0,0.0,0.0,0.0,0.0,0.0,0.0,0.0,0.0,0.0,0.0,0.0,0.0,0.0,0.0,0.0,0.0,0.0,0.0,0.0,0.0,0.0,0.0,0.0,0.0,0.0,0.0,0.0,0.0,0.0,0.0,0.0,0.0,0.0,0.0,0.0,0.0,0.0,0.0,0.0,0.0,0.0,0.0,0.0,0.0,0.0,0.0,0.0,0.0,0.0,0.0,0.0,0.0,0.0,0.0,0.0,0.0,0.0,0.0,0.0,0.0,0.0,0.0,0.0,0.0,0.0,0.0,0.0,0.0,0.0,0.0,0.0,0.0,0.0,0.0,0.0,0.0,0.0,0.0,0.0,0.0,0.0,0.0,0.0,0.0,0.0,0.0,0.0,0.0,0.0,0.0,0.0,0.0,0.0,0.0,0.0,0.0,0.0,0.0,0.0,0.0,0.0,0.0,0.0,0.0,0.0,0.0,0.0,0.0,0.0,0.0,0.0,0.0,0.0,0.0,0.0,0.0,0.0,0.0,0.0,0.0,0.0,0.0,0.0,0.0,0.0,0.0,0.0,0.0,0.0,0.0,0.0,0.0,0.0,0.0,0.0,0.0,0.0,0.0,0.0,0.0,0.0,0.0,0.0,0.0,0.0,0.0,0.0,0.0,0.0,0.0,0.0,0.0,0.0,0.0,0.0,0.0,0.0,0.0,0.0,0.0,0.0,0.0,0.0,0.0,0.0,0.0,0.0,0.0,0.0,0.0,0.0,0.0,0.0,0.0,0.0,0.0,0.0,0.0,0.0,0.0,0.0,0.0,0.0,0.0,0.0,0.0,0.0,0.0,0.0,0.0,0.0,0.0,0.0,0.0,0.0,0.0,0.0,0.0,0.0,0.0,0.0,0.0,0.0,0.0,0.0,0.0,0.0,0.0,0.0,0.0,0.0,0.0,0.0,0.0,0.0,0.0,0.0,0.0,0.0,0.0,0.0,0.0,0.0,0.0,0.0,0.0,0.0,0.0,0.0,0.0,0.0,0.0,0.0,0.0,0.0,0.0,0.0,0.0,0.0,0.0,0.0,0.0,0.0,0.0,0.0,0.0,0.0,0.0,0.0,0.0,0.0,-0.0443,0.0,0.0,0.0,0.0,0.0,0.0,0.0,0.0,0.0,0.0,0.0,0.0,0.0,0.0,0.0,0.0,0.0,0.0,0.0,0.0,0.0,0.0,0.0,0.0,0.0,0.0,0.0,0.0,0.0,0.0,0.0,0.0,0.0,0.0,0.0,0.0,0.0,0.0,0.0,0.0,0.0,0.0,0.0,0.0,0.0,0.0,0.0,0.0,0.0,0.0,0.0,0.0,0.0,0.0,0.0,0.0,0.0,0.0,0.0,0.0,0.0,0.0,0.0,0.0,0.0,0.0,0.0,0.0,0.0,0.0,0.0,0.0,0.0,0.0,0.0,0.0,0.0,0.0,0.0,0.0,0.0,0.0,0.0,0.0,0.0,0.0,0.0,0.0,0.0,0.0,0.0,0.0,0.0,0.0,0.0,0.0,0.0,0.0,0.0,0.0,0.0,0.0,0.0,0.0,0.0,0.0,0.0,0.0,0.0,0.0,-0.3639,-0.1555,0.0421,0.0737,-0.082,0.0,0.0,0.0,0.0,0.0,0.0,0.0,0.0,0.0,0.0,0.0,0.0,0.0,0.0,0.0,0.0,0.0,0.0,0.0,0.0,0.0,0.0,0.0,0.0,0.0,0.0,0.0,0.0,0.0,0.0,0.0,0.0,0.0,0.0,0.0,0.0,0.0,0.0,0.0,0.0,0.0,0.0,0.0,0.0,0.0,0.0,0.0,0.0,0.0,0.0,0.0,0.0,0.0,0.0,0.0,0.0,0.0,0.0,0.0,0.0,0.0,0.0,0.0,0.0,0.0,0.0,0.0,0.0,0.0,0.0,0.0,0.0,0.0,0.0,0.0,0.0,0.0,0.0,0.0,0.0,0.0,0.0,0.0,0.0,0.0,0.0,0.0,0.0,0.0,0.0,0.0,0.0,0.0,0.0,0.0,0.0,0.0,0.0,0.0,0.0,0.0,0.0,0.0,0.0,0.0,0.0,0.0,0.0,0.0,0.0,0.0,0.0,-0.0605,0.0266,-0.0278,0.0,0.0,0.0,0.0,0.0,0.0,0.0,0.0,0.0,0.0,0.0,0.0,0.0,0.0,0.0,0.0,0.0,0.0,0.0,0.0,0.0,0.0,0.0,0.0,0.0,0.0,0.0,0.0,0.0,0.0,0.0,0.0,0.0,0.0,0.0,0.0,0.0,0.0,0.0,0.0,0.0,0.0,0.0,0.0,0.0,0.0,0.0,0.0,0.0,0.0,0.0,0.0,0.0,0.0,0.0,0.0,0.0,0.0,0.0,0.0,0.0,0.0,0.0,0.0,0.0,0.0,0.0,0.0,0.0,0.0,0.0,0.0,0.0,0.0,0.0,0.0,0.0,0.0,0.0,0.0,0.0,0.0,0.0,0.0,0.0,0.0,0.0,0.0,0.0,0.0,0.0,0.0,0.0,0.0,0.0,0.0,0.0,0.0,0.0,0.0,0.0,0.0,0.0,0.0,0.0,0.0,0.0,0.0,0.0,0.0,-0.3547,-0.4807,-0.0351,0.0,0.2051,0.0,0.0,0.0,0.0,0.0,0.0,0.0,0.0,0.0,0.0,0.0,0.0,0.0,0.0,0.0,0.0,0.0,0.0,0.0,0.0,0.0,0.0,0.0,0.0,0.0,0.0,0.0,0.0,0.0,0.0,0.0,0.0,0.0,0.0,0.0,0.0,0.0,0.0,0.0,0.0,0.0,0.0,0.0,0.0,0.0,0.0,0.0,0.0,0.0,0.0,0.0,0.0,0.0,0.0,0.0,0.0,0.0,0.0,0.0,0.0,0.0,0.0,0.0,0.0,0.0,0.0,0.0,0.0,0.0,0.0,0.0,0.0,0.0,0.0,0.0,0.0,0.0,0.0,0.0,0.0,0.0,0.0,0.0,0.0,0.0,0.0,0.0,0.0,0.0,0.0,0.0,0.0,0.0,0.0,0.0,0.0,0.0,0.0,0.0,0.0,0.0,0.0,0.0,0.0,0.0,0.0,0.0,0.0,0.0,0.0,-0.3425,-0.0206,0.2184,0.3293,0.0,0.0,0.0,0.0,0.0,0.0,0.0,0.0,0.0,0.0,0.0,0.0,0.0,0.0,0.0,0.0,0.0,0.0,0.0,0.0,0.0,0.0,0.0,0.0,0.0,0.0,0.0,0.0,0.0,0.0,0.0,0.0,0.0,0.0,0.0,0.0,0.0,0.0,0.0,0.0,0.0,0.0,0.0,0.0,0.0,0.0,0.0,0.0,0.0,0.0,0.0,0.0,0.0,0.0,0.0,0.0,0.0,0.0,0.0,0.0,0.0,0.0,0.0,0.0,0.0,0.0,0.0,0.0,0.0,0.0,0.0,0.0,0.0,0.0,0.0,0.0,0.0,0.0,0.0,0.0,0.0,0.0,0.0,0.0,0.0,0.0,0.0,0.0,0.0,0.0,0.0,0.0,0.0,0.0,0.0,0.0,0.0,0.0,0.0,0.0,0.0,0.0,0.0,0.0,0.0,0.0,0.0,0.0,0.0,0.0,-0.4509,0.0,0.3492,0.4659,0.4695,0.3731,0.0,0.0,0.0,0.0,0.0,0.0,0.0,0.0,0.0,0.0,0.0,0.0,0.0,0.0,0.0,0.0,0.0,0.0,0.0,0.0,0.0,0.0,0.0,0.0,0.0,0.0,0.0,0.0,0.0,0.0,0.0,0.0,0.0,0.0,0.0,0.0,0.0,0.0,0.0,0.0,0.0,0.0,0.0,0.0,0.0,0.0,0.0,0.0,0.0,0.0,0.0,0.0,0.0,0.0,0.0,0.0,0.0,0.0,0.0,0.0,0.0,0.0,0.0,0.0,0.0,0.0,0.0,0.0,0.0,0.0,0.0,0.0,0.0,0.0,0.0,0.0,0.0,0.0,0.0,0.0,0.0,0.0,0.0,0.0,0.0,0.0,0.0,0.0,0.0,0.0,0.0,0.0,0.0,0.0,0.0,0.0,0.0,0.0,0.0,0.0,0.0,0.0,0.0,0.0,0.0,0.0,0.0,0.0,0.0,0.068,0.4052,0.4638,0.6473,0.6671,0.0,0.0,0.0,0.0,0.0,0.0,0.0,0.0,0.0,0.0,0.0,0.0,0.0,0.0,0.0,0.0,0.0,0.0,0.0,0.0,0.0,0.0,0.0,0.0,0.0,0.0,0.0,0.0,0.0,0.0,0.0,0.0,0.0,0.0,0.0,0.0,0.0,0.0,0.0,0.0,0.0,0.0,0.0,0.0,0.0,0.0,0.0,0.0,0.0,0.0,0.0,0.0,0.0,0.0,0.0,0.0,0.0,0.0,0.0,0.0,0.0,0.0,0.0,0.0,0.0,0.0,0.0,0.0,0.0,0.0,0.0,0.0,0.0,0.0,0.0,0.0,0.0,0.0,0.0,0.0,0.0,0.0,0.0,0.0,0.0,0.0,0.0,0.0,0.0,0.0,0.0,0.0,0.0,0.0,0.0,0.0,0.0,0.0,0.0,0.0,0.0,0.0,0.0,0.0,0.0,0.0,0.0,0.0,0.0,0.4229,0.5298,0.4562,0.1868,0.5048,0.5591,0.0,0.0,0.0,0.0,0.0,0.0,0.0,0.0,0.0,0.0,0.0,0.0,0.0,0.0,0.0,0.0,0.0,0.0,0.0,0.0,0.0,0.0,0.0,0.0,0.0,0.0,0.0,0.0,0.0,0.0,0.0,0.0,0.0,0.0,0.0,0.0,0.0,0.0,0.0,0.0,0.0,0.0,0.0,0.0,0.0,0.0,0.0,0.0,0.0,0.0,0.0,0.0,0.0,0.0,0.0,0.0,0.0,0.0,0.0,0.0,0.0,0.0,0.0,0.0,0.0,0.0,0.0,0.0,0.0,0.0,0.0,0.0,0.0,0.0,0.0,0.0,0.0,0.0,0.0,0.0,0.0,0.0,0.0,0.0,0.0,0.0,0.0,0.0,0.0,0.0,0.0,0.0,0.0,0.0,0.0,0.0,0.0,0.0,0.0,0.0,0.0,0.0,0.0,0.0,0.0,0.0,0.0,0.0,0.0,0.8415,0.0,0.3379,0.0,0.3706,0.4016,0.0,0.0,0.0,0.0,0.0,0.0,0.0,0.0,0.0,0.0,0.0,0.0,0.0,0.0,0.0,0.0,0.0,0.0,0.0,0.0,0.0,0.0,0.0,0.0,0.0,0.0,0.0,0.0,0.0,0.0,0.0,0.0,0.0,0.0,0.0,0.0,0.0,0.0,0.0,0.0,0.0,0.0,0.0,0.0,0.0,0.0,0.0,0.0,0.0,0.0,0.0,0.0,0.0,0.0,0.0,0.0,0.0,0.0,0.0,0.0,0.0,0.0,0.0,0.0,0.0,0.0,0.0,0.0,0.0,0.0,0.0,0.0,0.0,0.0,0.0,0.0,0.0,0.0,0.0,0.0,0.0,0.0,0.0,0.0,0.0,0.0,0.0,0.0,0.0,0.0,0.0,0.0,0.0,0.0,0.0,0.0,0.0,0.0,0.0,0.0,0.0,0.0,0.0,0.0,0.0,0.0,0.0,0.0,1.0285,0.6835,0.2909,0.0974,0.1183,0.2596,0.2075,0.0,0.0,0.0,0.0,0.0,0.0,0.0,0.0,0.0,0.0,0.0,0.0,0.0,0.0,0.0,0.0,0.0,0.0,0.0,0.0,0.0,0.0,0.0,0.0,0.0,0.0,0.0,0.0,0.0,0.0,0.0,0.0,0.0,0.0,0.0,0.0,0.0,0.0,0.0,0.0,0.0,0.0,0.0,0.0,0.0,0.0,0.0,0.0,0.0,0.0,0.0,0.0,0.0,0.0,0.0,0.0,0.0,0.0,0.0,0.0,0.0,0.0,0.0,0.0,0.0,0.0,0.0,0.0,0.0,0.0,0.0,0.0,0.0,0.0,0.0,0.0,0.0,0.0,0.0,0.0,0.0,0.0,0.0,0.0,0.0,0.0,0.0,0.0,0.0,0.0,0.0,0.0,0.0,0.0,0.0,0.0,0.0,0.0,0.0,0.0,0.0,0.0,0.0,0.0,0.0,0.0,0.0,0.0,0.0,0.6133,0.2591,0.0453,-0.0031,0.0,-0.1042,0.0,0.0,0.0,0.0,0.0,0.0,0.0,0.0,0.0,0.0,0.0,0.0,0.0,0.0,0.0,0.0,0.0,0.0,0.0,0.0,0.0,0.0,0.0,0.0,0.0,0.0,0.0,0.0,0.0,0.0,0.0,0.0,0.0,0.0,0.0,0.0,0.0,0.0,0.0,0.0,0.0,0.0,0.0,0.0,0.0,0.0,0.0,0.0,0.0,0.0,0.0,0.0,0.0,0.0,0.0,0.0,0.0,0.0,0.0,0.0,0.0,0.0,0.0,0.0,0.0,0.0,0.0,0.0,0.0,0.0,0.0,0.0,0.0,0.0,0.0,0.0,0.0,0.0,0.0,0.0,0.0,0.0,0.0,0.0,0.0,0.0,0.0,0.0,0.0,0.0,0.0,0.0,0.0,0.0,0.0,0.0,0.0,0.0,0.0,0.0,0.0,0.0,0.0,0.0,0.0,0.0,0.0,0.0,0.0,0.5718,0.2663,0.0291,-0.1272,-0.2249,-0.3603,-0.5316,0.0,0.0,0.0,0.0,0.0,0.0,0.0,0.0,0.0,0.0,0.0,0.0,0.0,0.0,0.0,0.0,0.0,0.0,0.0,0.0,0.0,0.0,0.0,0.0,0.0,0.0,0.0,0.0,0.0,0.0,0.0,0.0,0.0,0.0,0.0,0.0,0.0,0.0,0.0,0.0,0.0,0.0,0.0,0.0,0.0,0.0,0.0,0.0,0.0,0.0,0.0,0.0,0.0,0.0,0.0,0.0,0.0,0.0,0.0,0.0,0.0,0.0,0.0,0.0,0.0,0.0,0.0,0.0,0.0,0.0,0.0,0.0,0.0,0.0,0.0,0.0,0.0,0.0,0.0,0.0,0.0,0.0,0.0,0.0,0.0,0.0,0.0,0.0,0.0,0.0,0.0,0.0,0.0,0.0,0.0,0.0,0.0,0.0,0.0,0.0,0.0,0.0,0.0,0.0,0.0,0.0,0.0,0.0,0.5538,0.29,0.0191,-0.2465,-0.4134,-0.5563,0.0,0.0,0.0,0.0,0.0,0.0,0.0,0.0,0.0,0.0,0.0,0.0,0.0,0.0,0.0,0.0,0.0,0.0,0.0,0.0,0.0,0.0,0.0,0.0,0.0,0.0,0.0,0.0,0.0,0.0,0.0,0.0,0.0,0.0,0.0,0.0,0.0,0.0,0.0,0.0,0.0,0.0,0.0,0.0,0.0,0.0,0.0,0.0,0.0,0.0,0.0,0.0,0.0,0.0,0.0,0.0,0.0,0.0,0.0,0.0,0.0,0.0,0.0,0.0,0.0,0.0,0.0,0.0,0.0,0.0,0.0,0.0,0.0,0.0,0.0,0.0,0.0,0.0,0.0,0.0,0.0,0.0,0.0,0.0,0.0,0.0,0.0,0.0,0.0,0.0,0.0,0.0,0.0,0.0,0.0,0.0,0.0,0.0,0.0,0.0,0.0,0.0,0.0,0.0,0.0,0.0,0.0,0.0,0.0,0.4543,0.1886,-0.0673,-0.3093,-0.5161,-0.6601,0.0,0.0,0.0,0.0,0.0,0.0,0.0,0.0,0.0,0.0,0.0,0.0,0.0,0.0,0.0,0.0,0.0,0.0,0.0,0.0,0.0,0.0,0.0,0.0,0.0,0.0,0.0,0.0,0.0,0.0,0.0,0.0,0.0,0.0,0.0,0.0,0.0,0.0,0.0,0.0,0.0,0.0,0.0,0.0,0.0,0.0,0.0,0.0,0.0,0.0,0.0,0.0,0.0,0.0,0.0,0.0,0.0,0.0,0.0,0.0,0.0,0.0,0.0,0.0,0.0,0.0,0.0,0.0,0.0,0.0,0.0,0.0,0.0,0.0,0.0,0.0,0.0,0.0,0.0,0.0,0.0,0.0,0.0,0.0,0.0,0.0,0.0,0.0,0.0,0.0,0.0,0.0,0.0,0.0,0.0,0.0,0.0,0.0,0.0,0.0,0.0,0.0,0.0,0.0,0.0,0.0,0.0,0.0,0.7403,0.4235,0.1351,-0.1369,-0.3873,-0.6076,-0.7656,0.0,0.0,0.0,0.0,0.0,0.0,0.0,0.0,0.0,0.0,0.0,0.0,0.0,0.0,0.0,0.0,0.0,0.0,0.0,0.0,0.0,0.0,0.0,0.0,0.0,0.0,0.0,0.0,0.0,0.0,0.0,0.0,0.0,0.0,0.0,0.0,0.0,0.0,0.0,0.0,0.0,0.0,0.0,0.0,0.0,0.0,0.0,0.0,0.0,0.0,0.0,0.0,0.0,0.0,0.0,0.0,0.0,0.0,0.0,0.0,0.0,0.0,0.0,0.0,0.0,0.0,0.0,0.0,0.0,0.0,0.0,0.0,0.0,0.0,0.0,0.0,0.0,0.0,0.0,0.0,0.0,0.0,0.0,0.0,0.0,0.0,0.0,0.0,0.0,0.0,0.0,0.0,0.0,0.0,0.0,0.0,0.0,0.0,0.0,0.0,0.0,0.0,0.0,0.0,0.0,0.0,0.0,0.0,0.75,0.4286,0.1129,-0.1863,-0.4649,-0.6822,-0.8511,0.0,0.0,0.0,0.0,0.0,0.0,0.0,0.0,0.0,0.0,0.0,0.0,0.0,0.0,0.0,0.0,0.0,0.0,0.0,0.0,0.0,0.0,0.0,0.0,0.0,0.0,0.0,0.0,0.0,0.0,0.0,0.0,0.0,0.0,0.0,0.0,0.0,0.0,0.0,0.0,0.0,0.0,0.0,0.0,0.0,0.0,0.0,0.0,0.0,0.0,0.0,0.0,0.0,0.0,0.0,0.0,0.0,0.0,0.0,0.0,0.0,0.0,0.0,0.0,0.0,0.0,0.0,0.0,0.0,0.0,0.0,0.0,0.0,0.0,0.0,0.0,0.0,0.0,0.0,0.0,0.0,0.0,0.0,0.0,0.0,0.0,0.0,0.0,0.0,0.0,0.0,0.0,0.0,0.0,0.0,0.0,0.0,0.0,0.0,0.0,0.0,0.0,0.0,0.0,0.0,0.0,0.0,0.0,0.7226,0.3874,0.0885,-0.2066,-0.5037,-0.6958,-0.8538,0.0,0.0,0.0,0.0,0.0,0.0,0.0,0.0,0.0,0.0,0.0,0.0,0.0,0.0,0.0,0.0,0.0,0.0,0.0,0.0,0.0,0.0,0.0,0.0,0.0,0.0,0.0,0.0,0.0,0.0,0.0,0.0,0.0,0.0,0.0,0.0,0.0,0.0,0.0,0.0,0.0,0.0,0.0,0.0,0.0,0.0,0.0,0.0,-0.332,0.0,0.0,0.0,0.0,0.0,0.0,0.0,0.0,0.0,0.0,0.0,0.0,0.0,0.0,0.0,0.0,0.0,0.0,0.0,0.0,0.0,0.0,0.0,0.0,0.0,0.0,0.0,0.0,0.0,0.0,0.0,0.0,0.0,0.0,0.0,0.0,0.0,0.0,0.0,0.0,0.0,0.0,0.0,0.0,0.0,0.0,0.0,0.0,0.0,0.0,0.0,0.0,0.0,0.0,0.0,0.0,0.0,0.0,0.0,0.6918,0.3306,0.0594,-0.2251,-0.5213,-0.7033,-0.8682,0.0,0.0,0.0,0.0,0.0,0.0,0.0,0.0,0.0,0.0,0.0,0.0,0.0,0.0,0.0,0.0,0.0,0.0,0.0,0.0,0.0,0.0,0.0,0.0,0.0,0.0,0.0,0.0,0.0,0.0,0.0,0.0,0.0,0.0,0.0,0.0,0.0,0.0,0.0,0.0,0.0,0.0,0.0,0.0,0.0,0.0,0.0,0.0,0.0,0.0,0.0,0.0,0.0,0.0,0.0,0.0,0.0,0.0,0.0,0.0,0.0,0.0,0.0,0.0,0.0,0.0,0.0,0.0,0.0,0.0,0.0,0.0,0.0,0.0,0.0,0.0,0.0,0.0,0.0,0.0,0.0,0.0,0.0,0.0,0.0,0.0,0.0,0.0,0.0,0.0,0.0,0.0,0.0,0.0,0.0,0.0,0.0,0.0,0.0,0.0,0.0,0.0,0.0,0.0,0.0,0.0,0.0,0.8967,0.6627,0.2944,0.0342,-0.2428,-0.5434,-0.7137,-0.8859,-1.0719,0.0,0.0,0.0,0.0,0.0,0.0,0.0,0.0,0.0,0.0,0.0,0.0,0.0,0.0,0.0,0.0,0.0,0.0,0.0,0.0,0.0,0.0,0.0,0.0,0.0,0.0,0.0,0.0,0.0,0.0,0.0,0.0,0.0,0.0,0.0,0.0,0.0,0.0,0.3777,0.0631,0.0,0.0,0.0,0.0,0.0,0.0,0.0,0.0,-0.437,0.0,0.0,0.0,0.0,0.0,0.0,0.0,0.0,0.0,0.0,0.0,0.0,0.0,0.0,0.0,0.0,0.0,0.0,0.0,0.0,0.0,0.0,0.0,0.0,0.0,0.0,0.0,0.0,0.0,0.0,0.0,0.0,0.0,0.0,0.0,0.0,0.0,0.0,0.0,0.0,0.0,0.0,0.0,0.0,0.0,0.0,0.0,0.0,0.0,0.0,0.0,0.0,0.0,0.0,0.0,0.0,1.0698,0.8823,0.6379,0.3396,0.0433,-0.26,-0.5591,-0.7399,-0.9232,-1.1111,0.0,0.0,0.0,0.0,0.0,0.0,0.0,0.0,0.0,0.0,0.0,0.0,0.0,0.0,0.0,0.0,0.0,0.0,0.0,0.0,0.0,0.0,0.0,0.0,0.0,0.0,0.0,0.0,0.0,0.0,0.0,0.0,0.0,0.0,0.0,0.0,0.0,0.0,0.0,-0.2197,-0.7405,0.0,0.0,0.0,0.0,0.0,0.0,0.0,0.0,-0.7696,0.0,0.0,0.0,0.0,0.0,0.0,0.0,0.0,0.0,0.0,0.0,0.0,0.0,0.0,0.0,0.0,0.0,0.0,0.0,0.0,0.0,0.0,0.0,0.0,0.0,0.0,0.0,0.0,0.0,0.0,0.0,0.0,0.0,0.0,0.0,0.0,0.0,0.0,0.0,0.0,0.0,0.0,0.0,0.0,0.0,0.0,0.0,0.0,0.0,0.0,0.0,0.0,0.0,0.0,0.0,1.1228,0.9053,0.6426,0.3344,0.0348,-0.2727,-0.583,-0.7565,-0.9436,0.0,0.0,0.0,0.0,0.0,0.0,0.0,0.0,0.0,0.0,0.0,0.0,0.0,0.0,0.0,0.0,0.0,0.0,0.0,0.0,0.0,0.0,0.0,0.0,0.0,0.0,0.0,0.0,0.0,0.0,0.0,0.0,0.0,0.0,0.0,0.0,0.0,0.0,0.0,0.0,-0.1225,-0.7626,-1.323,0.0,0.0,0.0,0.0,0.0,0.0,-0.9485,-1.1358,0.0,0.0,0.0,0.0,0.0,0.0,0.0,0.0,0.0,0.0,0.0,0.0,0.0,0.0,0.0,0.0,0.0,0.0,0.0,0.0,0.0,0.0,0.0,0.0,0.0,0.0,0.0,0.0,0.0,0.0,0.0,0.0,0.0,0.0,0.0,0.0,0.0,0.0,0.0,0.0,0.0,0.0,0.0,0.0,0.0,0.0,0.0,0.0,0.0,0.0,0.0,0.0,0.0,0.0,0.0,1.1491,0.9212,0.6454,0.3215,0.0261,-0.2794,-0.5996,-0.7759,-0.9634,0.0,0.0,0.0,0.0,0.0,0.0,0.0,0.0,0.0,0.0,0.0,0.0,0.0,0.0,0.0,0.0,0.0,0.0,0.0,0.0,0.0,0.0,0.0,0.0,0.0,0.0,0.0,0.0,0.0,0.0,0.0,0.0,0.0,0.0,0.0,0.0,0.0,0.0,0.0,0.0,0.0,-0.5541,-0.9985,-1.4852,0.0,0.0,0.0,0.0,-0.9179,-1.2316,0.0,0.0,0.0,0.0,0.0,0.0,0.0,0.0,0.0,0.0,0.0,0.0,0.0,0.0,0.0,0.0,0.0,0.0,0.0,0.0,0.0,0.0,0.0,0.0,0.0,0.0,0.0,0.0,0.0,0.0,0.0,0.0,0.0,0.0,0.0,0.0,0.0,0.0,0.0,0.0,0.0,0.0,0.0,0.0,0.0,0.0,0.0,0.0,0.0,0.0,0.0,0.0,0.0,0.0,0.0,0.0,1.0945,0.8855,0.6292,0.3334,0.0216,-0.2783,-0.5677,-0.7982,-0.9988,0.0,0.0,0.0,0.0,0.0,0.0,0.0,0.0,0.0,0.0,0.0,0.0,0.0,0.0,0.0,0.0,0.0,0.0,0.0,0.0,0.0,0.0,0.0,0.0,0.0,0.0,0.0,0.0,0.0,0.0,0.0,0.0,0.0,0.0,0.0,0.0,0.0,0.0,0.0,0.0,0.0,-0.1283,-0.232,-0.7552,-1.1872,0.0,0.0,-1.2323,-0.9659,-1.3717,0.0,0.0,0.0,0.0,0.0,0.0,0.0,0.0,0.0,0.0,0.0,0.0,0.0,0.0,0.0,0.0,0.0,0.0,0.0,0.0,0.0,0.0,0.0,0.0,0.0,0.0,0.0,0.0,0.0,0.0,0.0,0.0,0.0,0.0,0.0,0.0,0.0,0.0,0.0,0.0,0.0,0.0,0.0,0.0,0.0,0.0,0.0,0.0,0.0,0.0,0.0,0.0,0.0,0.0,0.0,1.2314,1.1537,0.9203,0.6533,0.3512,0.0302,-0.2813,-0.5695,-0.8157,-1.0208,0.0,0.0,0.0,0.0,0.0,0.0,0.0,0.0,0.0,0.0,0.0,0.0,0.0,0.0,0.0,0.0,0.0,0.0,0.0,0.0,0.0,0.0,0.0,0.0,0.0,0.0,0.0,0.0,0.0,0.0,0.0,0.0,0.0,0.0,0.0,0.0,0.0,0.0,0.0,0.0,0.0,0.0,0.0655,-0.6232,0.0,0.0,0.0,-1.4827,-1.307,0.0,0.0,0.0,0.0,0.0,0.0,0.0,0.0,0.0,0.0,0.0,0.0,0.0,0.0,0.0,0.0,0.0,0.0,0.0,0.0,0.0,0.0,0.0,0.0,0.0,0.0,0.0,0.0,0.0,0.0,0.0,0.0,0.0,0.0,0.0,0.0,0.0,0.0,0.0,0.0,0.0,0.0,0.0,0.0,0.0,0.0,0.0,0.0,0.0,0.0,0.0,0.0,0.0,0.0,0.0,0.0,0.0,1.1826,0.9469,0.6732,0.3598,0.0384,-0.2721,-0.5663,-0.8192,0.0,0.0,0.0,0.0,0.0,0.0,0.0,0.0,0.0,0.0,0.0,0.0,0.0,0.0,0.0,0.0,0.0,0.0,0.0,0.0,0.0,0.0,0.0,0.0,0.0,0.0,0.0,-0.7961,0.0,0.0,0.0,0.0,0.0,0.0,0.0,0.0,0.0,0.0,0.0,0.0,0.0,0.0,0.3773,0.2736,-0.494,-1.088,0.0,0.0,-1.6154,-1.5433,-1.8353,-2.0623,0.0,0.0,0.0,0.0,0.0,0.0,0.0,0.0,0.0,0.0,0.0,0.0,0.0,0.0,0.0,0.0,0.0,0.0,0.0,0.0,0.0,0.0,0.0,0.0,0.0,0.0,0.0,0.0,0.0,0.0,0.0,0.0,0.0,0.0,0.0,0.0,0.0,0.0,0.0,0.0,0.0,0.0,0.0,0.0,0.0,0.0,0.0,0.0,0.0,0.0,0.0,0.0,0.0,0.0,0.0,1.1168,0.9272,0.6732,0.3552,0.0455,-0.2512,-0.5449,-0.8004,-1.008,0.0,0.0,0.0,0.0,0.0,0.0,0.0,0.0,0.0,0.0,0.0,0.0,0.0,0.0,0.0,0.0,0.0,0.0,0.0,0.0,0.0,0.0,0.0,0.0,0.0,0.0,0.0,0.0,0.0,0.0,0.0,0.0,0.0,0.0,0.0,0.0,0.0,0.0,0.0,0.0,0.0,0.7373,0.4866,-0.1578,-0.6631,0.0,0.0,-1.3979,-1.4977,-1.7649,-1.9861,-2.0626,0.0,0.0,0.0,0.0,0.0,0.0,0.0,0.0,0.0,0.0,0.0,0.0,0.0,0.0,0.0,0.0,0.0,0.0,0.0,0.0,0.0,0.0,0.0,0.0,0.0,0.0,0.0,0.0,0.0,0.0,0.0,0.0,0.0,0.0,0.0,0.0,0.0,0.0,0.0,0.0,0.0,0.0,0.0,0.0,0.0,0.0,0.0,0.0,0.0,0.0,0.0,0.0,0.0,1.205,1.1089,0.9032,0.6567,0.366,0.0356,-0.2618,-0.5258,-0.8018,-1.0109,0.0,0.0,0.0,0.0,0.0,0.0,0.0,0.0,0.0,0.0,0.0,0.0,0.0,0.0,0.0,0.0,0.0,0.0,0.0,0.0,0.0,0.0,0.0,0.0,0.0,0.0,0.0,0.0,-0.6799,-0.6284,-0.493,0.0,0.0,0.0,0.0,0.0,0.0,0.0,0.0,0.0,0.0,0.791,0.4762,-0.0794,0.0,0.0,-1.1562,-1.4124,-1.5201,-1.7502,-1.9477,-2.0292,-2.0319,0.0,0.0,0.0,0.0,0.0,0.0,0.0,0.0,0.0,0.0,0.0,0.0,0.0,0.0,0.0,0.0,0.0,0.0,0.0,0.0,0.0,0.0,0.0,0.0,0.0,0.0,0.0,0.0,0.0,0.0,0.0,0.0,0.0,0.0,0.0,0.0,0.0,0.0,0.0,0.0,0.0,0.0,0.0,0.0,0.0,0.0,0.0,0.0,0.0,0.0,0.0,0.0,1.1724,1.0641,0.8613,0.6213,0.3385,0.0226,-0.2685,-0.5267,-0.7969,-1.0034,0.0,0.0,0.0,0.0,0.0,0.0,0.0,0.0,0.0,0.0,0.0,0.0,0.0,0.0,0.0,0.0,0.0,0.0,0.0,0.0,0.0,0.0,0.0,0.0,0.0,0.0,0.0,0.0,-0.5602,-0.4124,-0.1231,0.0,0.0,0.0,0.0,0.0,0.0,0.0,0.0,0.0,0.0,0.7425,0.4045,-0.0594,-0.4992,-0.8553,-1.1696,-1.423,-1.5811,-1.7617,-1.91,-1.9987,0.0,0.0,0.0,0.0,0.0,0.0,0.0,0.0,0.0,0.0,0.0,0.0,0.0,0.0,0.0,0.0,0.0,0.0,0.0,0.0,0.0,0.0,0.0,0.0,0.0,0.0,0.0,-0.6945,0.0,0.0,-0.5099,0.0,0.0,0.0,0.0,0.0,0.0,0.0,0.0,0.0,0.0,0.0,0.0,0.0,0.0,0.0,0.0,0.0,0.0,0.0,0.0,0.0,0.0,1.13,0.9541,0.7993,0.5661,0.2587,0.0,-0.2661,-0.5484,-0.7769,-0.9764,-1.164,0.0,0.0,0.0,0.0,0.0,0.0,0.0,0.0,0.0,0.0,0.0,0.0,0.0,0.0,0.0,0.0,0.0,0.0,0.0,0.0,0.0,0.0,0.0,0.0,0.0,0.0,-0.4441,-0.5538,-0.4572,0.0,0.0,0.0,0.0,0.0,0.0,0.0,0.0,0.0,0.0,0.7893,0.5962,0.2805,-0.0908,-0.4644,-0.8283,-1.1162,-1.3947,-1.6828,-1.7929,-1.8776,0.0,0.0,0.0,0.0,0.0,0.0,0.0,0.0,0.0,0.0,0.0,0.0,0.0,0.0,0.0,0.0,0.0,0.0,0.0,0.0,0.0,0.0,0.0,0.0,0.0,0.0,0.0,-0.5667,-0.6247,0.0,0.0,0.0,0.0,0.0,0.0,0.0,0.0,0.0,0.0,0.0,0.4024,0.4021,0.0,0.0,0.0,0.0,0.0,0.0,0.0,0.0,0.0,0.0,0.0,0.0,1.0354,0.8818,0.7225,0.5086,0.2355,-0.0273,-0.2896,-0.5452,-0.7667,-0.9899,-1.2167,0.0,0.0,0.0,0.0,0.0,0.0,0.0,0.0,0.0,0.0,0.0,0.0,0.0,0.0,0.0,0.0,0.0,0.0,0.0,0.0,0.0,0.0,0.0,0.0,0.0,-0.5061,0.0,0.0,0.0,0.0,0.0,0.0,0.0,0.0,0.0,0.0,0.0,0.8672,0.7446,0.6361,0.4629,0.1825,-0.1612,-0.5009,0.0,0.0,0.0,0.0,0.0,0.0,0.0,0.0,0.0,0.0,0.0,0.0,0.0,0.0,-0.9329,-0.7836,-0.7524,-0.749,-0.7598,0.0,0.0,0.0,0.0,0.0,0.0,0.0,0.0,0.0,0.0,0.0,0.0,0.0,0.0,-0.5318,0.0,-0.4871,0.0,0.0,0.0,0.0,0.0,0.0,0.0,0.0,0.3323,0.3903,0.4205,0.4151,0.3939,0.0,0.3134,0.2577,0.0,0.0,0.0,0.0,0.0,0.0,0.0,0.0,0.9466,0.8132,0.6543,0.4474,0.1983,-0.0566,-0.3078,-0.547,-0.8171,-1.0457,-1.236,-1.2832,-1.2997,0.0,0.0,0.0,0.0,0.0,0.0,0.0,0.0,0.0,0.0,0.0,0.0,0.0,0.0,0.0,0.0,0.0,0.0,0.0,0.0,0.0,0.0,0.0,-0.4598,0.0,0.0,0.0,0.0,0.0,0.0,0.0,0.0,0.0,0.5597,0.6263,0.646,0.5791,0.4602,0.3322,0.1943,0.0,0.0,0.0,0.0,0.0,0.0,0.0,-1.8046,-1.7852,-1.7948,-1.7683,-1.6464,-1.4886,-1.359,-1.282,0.0,0.0,-0.9519,-0.9256,-0.9233,-0.8935,-0.8373,-0.7911,-0.7797,-0.7252,-0.6607,0.0,0.0,0.0,0.0,0.0,0.0,0.0,0.0,-0.4895,-0.4875,0.0,-0.3875,0.0,0.0,0.0,0.0,0.0,0.1117,0.0,0.0,0.3352,0.3881,0.422,0.4395,0.4535,0.4619,0.3738,0.3332,0.3329,0.2972,0.0,0.0,0.0,0.0,0.0,0.0,0.8725,0.7479,0.5864,0.3912,0.1533,-0.087,-0.3272,-0.5718,-0.9139,-1.1387,-1.2251,-1.2757,-1.2942,-1.2818,-1.3174,0.0,0.0,0.0,0.0,0.0,0.0,0.0,0.0,0.0,0.0,0.0,0.0,0.0,0.0,0.0,0.0,0.0,0.0,0.0,0.0,-0.4094,0.0,0.0,0.0,0.0,0.0,0.0,0.0,0.0,0.0,0.0,0.4335,0.4288,0.4196,0.4167,0.0,0.0,0.0,0.0,-0.4239,-0.6607,-0.9422,-1.2472,-1.5632,-1.6673,-1.7415,-1.8567,0.0,0.0,-1.5925,-1.5126,-1.452,-1.4508,-1.3543,-1.2381,-1.0778,-1.0358,-1.0086,-0.9528,-0.919,-0.8961,-0.8583,-0.7703,-0.6919,0.2277,0.0,0.0,0.0,0.0,-0.2116,-0.3304,-0.4659,-0.4539,-0.4243,-0.386,-0.2757,0.0,0.0,0.0,0.0,0.0,0.0,0.2508,0.3078,0.3758,0.4239,0.4558,0.4494,0.4432,0.4313,0.4065,0.3866,0.3688,0.3761,0.3822,0.4001,0.0,0.0,0.0,0.0,0.7822,0.665,0.529,0.3487,0.1255,-0.1007,-0.3951,-0.7637,-0.9817,-1.1365,-1.2251,-1.2703,-1.298,-1.3071,-1.3244,0.0,0.0,0.0,0.0,0.0,0.0,0.0,0.0,0.0,0.0,0.0,0.0,0.0,0.0,0.0,0.0,0.0,0.0,0.0,-0.5566,-0.5157,-0.4557,0.0,0.0,0.0,0.0,0.0,0.0,0.0,0.0,0.0,0.2563,0.312,0.3343,0.0,0.0,0.0342,0.0284,-0.2445,-0.5216,-0.7368,-0.9897,0.0,-1.501,-1.6563,-1.7713,-1.8521,-1.7346,-1.6067,-1.5411,-1.4942,-1.458,-1.4313,-1.3717,-1.2937,-1.2093,-1.1123,-1.0422,-0.9985,-0.9376,-0.8724,-0.8094,-0.7561,-0.7128,0.1037,0.0764,0.0995,0.0061,-0.154,-0.218,-0.3065,-0.4066,-0.3815,-0.3279,-0.2554,-0.156,-0.0709,0.0116,0.0874,0.0,0.0,0.0,0.3019,0.3615,0.403,0.4378,0.4677,0.4591,0.4497,0.4389,0.4301,0.4237,0.4044,0.4183,0.411,0.3821,0.0,0.0,0.634,0.7068,0.6969,0.6049,0.4821,0.3186,0.1142,-0.2009,-0.5234,-0.8523,-1.0153,-1.135,-1.226,-1.2703,-1.3165,-1.3663,-1.3749,-1.3784,0.0,0.0,0.0,0.0,0.0,0.0,0.0,0.0,0.0,0.0,0.0,-0.3247,-0.2162,0.0,0.0,0.0,-0.3975,-0.5064,-0.6328,-0.5893,0.0,0.0,0.0,0.0,0.0,0.0,0.0,0.0838,0.1369,0.1581,0.1185,0.1949,0.2362,0.1901,0.0473,-0.056,-0.0545,0.0,-0.5481,-0.8355,-1.0286,-1.2064,-1.4081,-1.5794,-1.7102,-1.7779,-1.7034,-1.5967,-1.505,-1.4951,-1.4795,-1.4379,-1.3793,-1.3298,-1.2788,-1.163,-1.0637,-1.0172,-0.9545,-0.8848,-0.8124,-0.7757,-0.7402,0.0134,-0.0335,0.019,-0.0124,-0.1053,-0.1976,-0.2711,-0.3166,-0.2842,-0.213,-0.116,-0.0376,0.0496,0.1302,0.1799,0.0,0.2422,0.2915,0.347,0.4083,0.4189,0.4416,0.4701,0.4594,0.4535,0.467,0.4507,0.4445,0.449,0.4445,0.4366,0.425,0.4985,0.5467,0.558,0.6191,0.6198,0.5642,0.4447,0.2876,0.0799,-0.3517,-0.6745,-0.8702,-1.0202,-1.141,-1.2273,-1.2762,-1.3401,-1.4252,-1.4375,-1.434,-1.4212,0.0,0.0,0.0,0.0,0.0,0.0,0.0,0.0,0.0,0.0,0.0,0.0,0.0,0.0,0.0,-0.4268,0.0,-0.6379,-0.6343,0.0,0.0,0.0,-0.2734,-0.0817,-0.0757,-0.0561,0.0281,0.0,0.0,0.0184,0.0777,0.1335,0.1404,-0.0054,-0.0905,-0.0263,-0.2393,-0.5366,-0.9109,-1.0521,-1.1554,-1.3207,-1.4877,-1.6244,-1.6876,-1.6908,-1.6365,-1.5055,-1.4974,-1.5039,-1.4526,-1.3897,-1.3304,-1.2921,-1.1767,-1.0775,-1.0038,-0.9617,-0.9134,-0.8484,-0.8082,-0.7641,-0.0605,-0.1074,-0.1259,-0.1449,-0.1713,-0.2187,-0.246,-0.2525,-0.1925,-0.1194,-0.0464,0.0527,0.1577,0.2568,0.2766,0.3095,0.3488,0.3813,0.4205,0.459,0.455,0.4623,0.4853,0.4589,0.4536,0.4521,0.4576,0.4572,0.4524,0.4576,0.4591,0.4456,0.5081,0.5349,0.5267,0.5847,0.585,0.5189,0.4065,0.1799,-0.1721,-0.4526,-0.6908,-0.8889,-1.0286,-1.1417,-1.2349,-1.2832,-1.3221,-1.3547,-1.3581,-1.353,-1.3389,-1.3021,0.0,0.0,0.0,0.0,0.0,0.0,0.0,0.0,0.0,-0.3337,-0.2136,0.0,-0.244,0.0,-0.3681,-0.5369,-0.6023,-0.6573,0.0,0.0,-0.3664,-0.2383,-0.2156,-0.1285,-0.047,0.0,0.0489,0.0673,0.0538,0.0532,0.0465,0.0113,-0.1001,-0.1696,-0.1486,-0.3409,-0.577,-0.8101,-1.0376,-1.2156,-1.3303,-1.4991,-1.6447,-1.7137,-1.6861,-1.6174,-1.5153,-1.4945,-1.48,-1.4368,-1.3591,-1.2976,-1.2511,-1.1431,-1.0522,-0.9984,-0.9459,-0.8958,-0.8514,-0.8109,-0.7795,-0.0873,-0.1344,-0.1816,-0.1951,-0.1951,-0.2084,-0.2016,-0.1746,-0.0939,-0.0134,0.0604,0.1742,0.2748,0.3556,0.3758,0.3961,0.4159,0.4425,0.4662,0.486,0.465,0.4696,0.4809,0.4572,0.4463,0.4519,0.4604,0.4545,0.4525,0.4664,0.4727,0.4766,0.537,0.5562,0.5425,0.5964,0.5873,0.5025,0.2978,0.0327,-0.2919,-0.5149,-0.7177,-0.9074,-1.0478,-1.1591,-1.2423,-1.2891,-1.3359,-1.3801,-1.3835,-1.3746,-1.3512,-1.3209,-1.2503,0.0,0.0,0.0,0.0,0.0,0.0,0.0,0.0,0.0,0.0,0.0,-0.312,-0.2519,-0.4199,-0.5547,-0.6023,-0.6415,-0.646,-0.599,-0.4204,-0.2905,-0.2629,-0.1658,-0.0737,-0.0062,0.0375,0.0623,0.0786,0.0594,0.0234,-0.0345,-0.1243,-0.1998,-0.2338,-0.3923,-0.5984,-0.8441,-1.0687,-1.2641,-1.4024,-1.5412,-1.6524,-1.6954,-1.6776,-1.6195,-1.5427,-1.4956,-1.4564,-1.408,-1.3303,-1.2489,-1.1815,-1.0995,-1.0205,-0.9732,-0.9239,-0.8732,-0.8371,-0.7891,-0.7478,-0.0941,-0.1344,-0.1877,-0.2008,-0.1873,-0.1733,-0.1403,-0.0873,0.0067,0.1008,0.2016,0.3153,0.3954,0.442,0.4625,0.4758,0.4758,0.4827,0.4954,0.4944,0.4735,0.4713,0.4742,0.4591,0.4574,0.457,0.4519,0.4574,0.4574,0.4688,0.4842,0.5144,0.5681,0.5907,0.5877,0.6311,0.5916,0.4695,0.1623,-0.111,-0.3411,-0.5609,-0.7565,-0.9323,-1.0782,-1.1854,-1.2482,-1.2964,-1.3546,-1.4255,-1.4324,-1.4247,-1.4005,-1.3767,-1.2962,0.0,-1.0818,0.0,0.0,0.0,0.0,0.0,0.0,0.0,0.0,-0.4224,-0.4143,-0.4124,-0.5004,-0.5736,-0.61,-0.602,-0.6025,-0.6254,-0.5108,-0.3773,-0.2598,-0.1838,-0.1083,-0.0062,0.0506,0.0825,0.0984,0.0898,0.053,-0.0233,-0.1138,-0.2065,-0.2826,-0.4014,-0.6079,-0.9485,-1.1234,-1.2879,-1.4531,-1.5647,-1.6289,-1.6623,-1.6611,-1.6308,-1.5697,-1.504,-1.4384,-1.3742,-1.3055,-1.2206,-1.1206,-1.0578,-1.001,-0.946,-0.8954,-0.8557,-0.825,-0.7679,-0.7139,-0.0739,-0.1275,-0.1442,-0.1559,-0.1622,-0.0949,-0.0515,-0.0134,0.0873,0.2149,0.3558,0.4228,0.4691,0.4954,0.5286,0.5418,0.5418,0.5418,0.5466,0.5441,0.5164,0.5009,0.5031,0.4867,0.4846,0.4842,0.4842,0.4846,0.4842,0.4956,0.5058,0.5133,0.5916,0.6228,0.6165,0.0,0.0,0.0,0.074,-0.135,-0.3683,-0.609,-0.8106,-0.9754,-1.1101,0.0,-1.2556,-1.2982,-1.3224,-1.3284,-1.3444,0.0,0.0,0.0,0.0,0.0,0.0,0.0,0.0,0.0,0.0,0.0,-0.6283,-0.5194,-0.4842,-0.5189,-0.523,-0.4697,-0.4849,-0.5224,-0.5717,-0.5652,-0.551,-0.545,-0.4756,-0.3821,-0.2679,-0.186,-0.0955,0.0185,0.0867,0.1351,0.161,0.1415,0.0989,0.0171,-0.0899,-0.2176,-0.3448,-0.4354,-0.6192,-0.9358,-1.1469,-1.2916,-1.3868,-1.4925,-1.5742,-1.6159,-1.6291,-1.6178,-1.5872,-1.522,-1.4503,-1.3914,-1.3122,-1.2295,-1.1625,-1.0731,-0.9829,-0.9204,-0.8783,-0.8483,-0.8353,-0.7887,-0.7524,-0.0263,0.0,-0.0893,-0.0945,0.0,-0.0186,0.0313,0.0707,0.1609,0.2893,0.4437,0.4951,0.5373,0.5632,0.5847,0.6017,0.5947,0.5803,0.5739,0.5763,0.5355,0.5188,0.5193,0.5156,0.5117,0.5117,0.5117,0.5171,0.523,0.5454,0.5621,0.5841,0.6581,0.6938,0.6839,0.628,0.4777,0.2271,0.0318,-0.1922,-0.4433,-0.6767,-0.8896,-1.0739,-1.2086,0.0,0.0,0.0,0.0,0.0,0.0,0.0,0.0,0.0,0.0,-1.2725,-1.2135,-1.135,-1.0339,-0.9525,-0.8965,-0.8649,-0.7517,-0.6634,-0.6223,-0.6091,-0.581,-0.5356,-0.5314,-0.5383,-0.5522,-0.5521,-0.5397,-0.5006,-0.4391,-0.3578,-0.246,-0.1511,-0.0435,0.0666,0.1383,0.1903,0.2303,0.2007,0.1483,0.073,-0.0447,-0.1895,-0.3555,-0.4467,-0.6207,-0.9743,-1.1399,-1.2519,-1.3217,-1.4112,-1.494,-1.5306,-1.5401,-1.533,-1.5175,-1.4545,-1.3806,-1.322,-1.2427,-1.1659,-1.1084,-1.0312,-0.9573,-0.9004,-0.8555,-0.8211,-0.8118,-0.7767,-0.7524,0.0383,0.0191,-0.0124,-0.0122,0.0183,0.0668,0.1269,0.1932,0.0,0.0,0.0,0.5593,0.5966,0.6291,0.6446,0.6517,0.6505,0.6168,0.6068,0.6015,0.5685,0.5519,0.5504,0.55,0.5555,0.555,0.555,0.5609,0.5837,0.6109,0.6431,0.6804,0.7402,0.7652,0.7514,0.6081,0.4413,0.2625,0.0163,-0.2431,-0.5107,-0.7422,-0.9595,-1.1664,-1.3013,-1.3928,-1.4444,-1.477,-1.4902,-1.4853,-1.4859,-1.4751,-1.4554,-1.42,-1.3648,-1.2948,-1.2694,-1.2032,-1.082,-1.0649,-1.0124,-0.9027,-0.8352,-0.7811,-0.7435,-0.6685,-0.6082,-0.5832,-0.574,-0.5596,-0.5377,-0.5388,-0.5182,-0.4604,-0.3958,-0.3086,-0.2022,-0.0914,0.0181,0.1289,0.198,0.2537,0.3033,0.2781,0.2216,0.1382,0.0164,-0.1643,-0.371,-0.5152,-0.6903,-0.9819,-1.1194,-1.1986,-1.2717,-1.3593,-1.4181,-1.4624,-1.4651,-1.4499,-1.4249,-1.3744,-1.3012,-1.2203,-1.1581,-1.1088,-1.0462,-0.9877,-0.9265,-0.886,-0.8371,-0.7997,-0.7896,-0.7713,-0.7629,0.1363,0.0927,0.1018,0.1065,0.1121,0.1722,0.2774,0.4029,0.4374,0.5019,0.5872,0.6315,0.6629,0.6819,0.6968,0.7104,0.7099,0.6764,0.6584,0.6568,0.6363,0.6248,0.6223,0.6372,0.6426,0.6426,0.6421,0.6529,0.6691,0.6966,0.7289,0.761,0.815,0.8268,0.7823,0.6433,0.4884,0.3158,0.0255,-0.2472,-0.5011,-0.7652,-0.991,-1.1734,-1.3104,-1.3919,-1.4232,-1.4583,-1.4613,-1.4335,-1.4537,-1.4782,-1.5052,-1.4596,-1.4227,-1.3952,-1.3368,-1.2597,-1.1654,-1.0957,-1.0025,-0.8971,-0.8527,-0.7937,-0.6967,-0.6469,-0.6117,-0.5845,-0.5517,-0.5318,-0.5189,-0.4886,-0.4476,-0.3972,-0.3331,-0.2505,-0.1304,-0.0236,0.0875,0.1979,0.2527,0.3198,0.3898,0.3812,0.3319,0.2287,0.0734,-0.1323,-0.4329,-0.6979,-0.8442,-0.9555,-1.0795,-1.1806,-1.2458,-1.3397,-1.4089,-1.4538,-1.4516,-1.4467,-1.4386,-1.3691,-1.2702,-1.1194,-1.1128,-1.1073,-1.0517,-0.9872,-0.9221,-0.8777,-0.8341,-0.8135,-0.8253,-0.8494,-0.8422,0.234,0.2151,0.2086,0.2115,0.2226,0.2977,0.3953,0.5183,0.6023,0.6326,0.6388,0.6957,0.7302,0.7538,0.7843,0.7957,0.7951,0.7586,0.7469,0.748,0.7245,0.7127,0.7241,0.7283,0.7283,0.7331,0.7391,0.7545,0.7824,0.8184,0.8501,0.8823,0.934,0.9372,0.8901,0.7554,0.6017,0.4329,0.0752,-0.2366,-0.5066,-0.7832,-1.0268,-1.2342,-1.3738,-1.4688,-1.5163,-1.5397,-1.5448,-1.5309,-1.5345,-1.5391,-1.5467,-1.4949,-1.449,-1.409,-1.3468,-1.2653,-1.1654,-1.0582,-0.9707,-0.9015,-0.8459,-0.7639,-0.6426,-0.5964,-0.5638,-0.5559,-0.5183,-0.4863,-0.4555,-0.4103,-0.36,-0.2992,-0.2217,-0.1302,-0.0115,0.1028,0.2096,0.3123,0.3944,0.4604,0.5218,0.5014,0.4487,0.3467,0.1273,-0.1434,-0.3678,-0.5781,-0.7742,-0.9052,-1.0289,-1.1236,-1.1965,-1.2745,-1.3383,-1.3729,-1.3729,-1.368,-1.3605,-1.3003,-1.2107,-1.1104,-1.0863,-1.0593,-1.008,-0.9611,-0.9132,-0.8806,-0.865,-0.8635,-0.8999,-1.0097,-1.0614,0.3307,0.324,0.3105,0.3125,0.3405,0.4119,0.4944,0.5932,0.7214,0.7586,0.7311,0.7709,0.8066,0.8361,0.8733,0.8884,0.8852,0.8546,0.8398,0.849,0.8189,0.8143,0.8243,0.8243,0.829,0.8296,0.8396,0.8659,0.8981,0.9332,0.9791,1.0261,1.061,1.0618,1.0297,0.8919,0.748,0.5806,0.2123,-0.1425,-0.4735,-0.7586,-1.0149,-1.2479,-1.3996,-1.5091,-1.5826,-1.6039,-1.6139,-1.6139,-1.6026,-1.587,-1.5638,-1.515,-1.4596,-1.396,-1.3286,-1.2361,-1.1094,-0.9998,-0.9283,-0.902,-0.829,-0.7101,-0.5479,-0.4809,-0.4696,-0.4944,-0.4739,-0.4402,-0.392,-0.3249,-0.2613,-0.1854,-0.1218,-0.023,0.1177,0.2397,0.3503,0.4491,0.5534,0.6298,0.6528,0.6442,0.575,0.4207,0.1571,-0.0813,-0.2229,-0.4029,-0.6173,-0.8508,-0.9932,-1.0881,-1.1689,-1.2353,-1.2816,-1.306,-1.3062,-1.3066,-1.2866,-1.2364,-1.176,-1.1233,-1.0718,-1.0342,-0.9823,-0.9545,-0.9355,-0.9163,-0.927,-0.9564,-1.0087,-1.153,-1.252,0.4366,0.4141,0.4073,0.4239,0.4574,0.5007,0.5714,0.6642,0.7872,0.8665,0.8869,0.8903,0.9081,0.9449,0.9597,0.9769,0.9821,0.9561,0.9456,0.9463,0.9316,0.9256,0.9302,0.9406,0.9451,0.9451,0.9607,0.9806,1.0108,1.0509,1.1065,1.1715,1.1963,1.1963,1.1666,1.0475,0.9134,0.7835,0.5009,0.1235,-0.34,-0.6441,-0.9133,-1.1563,-1.3208,-1.4495,-1.5404,-1.577,-1.5913,-1.5928,-1.593,-1.5771,-1.5448,-1.5027,-1.4483,-1.3762,-1.2871,-1.1594,-0.9893,-0.9133,-0.8786,-0.8774,-0.8005,-0.6297,-0.3687,-0.2601,-0.2775,-0.3782,-0.4184,-0.3922,-0.3599,-0.2419,-0.1295,-0.0507,-0.0281,0.0447,0.2393,0.3605,0.47,0.591,0.7149,0.8019,0.826,0.822,0.7146,0.5094,0.3013,0.0849,-0.0798,-0.2927,-0.5635,-0.8496,-1.0157,-1.1164,-1.1884,-1.2354,-1.2836,-1.3094,-1.3129,-1.3072,-1.2875,-1.252,-1.2027,-1.1376,-1.096,-1.0601,-1.0341,-1.0127,-1.003,-1.0099,-1.0319,-1.0782,-1.14,-1.2386,-1.2672,0.5391,0.5281,0.5167,0.5281,0.5508,0.5832,0.6426,0.723,0.8268,0.9099,0.9799,1.032,1.0474,1.0328,1.0618,1.0762,1.0813,1.0771,1.0762,1.0762,1.0712,1.0712,1.072,1.0762,1.0762,1.0821,1.1015,1.1216,1.1566,1.2199,1.287,1.3443,1.3564,1.3601,1.3434,1.2256,1.1099,1.0075,0.7594,0.4637,0.1163,-0.3399,-0.7158,-0.9761,-1.1873,-1.3559,-1.4713,-1.5374,-1.5741,-1.5871,-1.5871,-1.5727,-1.5418,-1.4876,-1.431,-1.3609,-1.2129,-1.0693,-0.947,-0.8505,-0.7669,-0.7057,-0.6861,-0.5436,-0.2361,-0.0602,-0.0166,-0.1163,-0.1889,-0.2004,-0.1336,-0.0445,0.0446,0.1113,0.1276,0.2103,0.41,0.5404,0.6533,0.7659,0.8881,0.9857,1.0182,1.0031,0.8953,0.7024,0.5339,0.3549,0.0936,-0.261,-0.6801,-1.0746,-1.2577,-1.2722,-1.2662,-1.2836,-1.3229,-1.3425,-1.3438,-1.3301,-1.3082,-1.2709,-1.2198,-1.153,-1.1354,-1.1223,-1.1057,-1.1019,-1.0998,-1.1259,-1.2037,-1.2718,-1.3058,-1.3698,-1.3797,0.6426,0.6372,0.6209,0.6213,0.6327,0.6539,0.7069,0.7865,0.8718,0.9599,1.0618,1.1534,1.1891,1.1733,1.1864,1.2003,1.2052,1.215,1.2199,1.2199,1.2199,1.2199,1.215,1.215,1.215,1.2199,1.2395,1.2725,1.3205,1.3996,1.4664,1.5061,1.525,1.5304,1.5242,1.431,1.3374,1.2384,1.0351,0.8187,0.5556,0.0969,-0.3534,-0.7331,-0.9933,-1.1989,-1.3663,-1.4654,-1.533,-1.5682,-1.5771,-1.5683,-1.5374,-1.471,-1.3952,-1.302,-1.1365,-0.9909,-0.8946,-0.791,-0.6883,-0.5959,-0.5947,-0.4347,-0.0738,0.1686,0.238,0.1767,0.1269,0.1212,0.1053,0.2052,0.2994,0.371,0.3356,0.3724,0.5981,0.7723,0.9096,0.9877,1.0947,1.1813,1.2335,1.2093,1.1186,0.9281,0.8302,0.6423,0.2782,-0.1643,-0.669,-1.297,-1.4334,-1.4124,-1.3523,-1.3631,-1.3912,-1.4052,-1.4038,-1.3907,-1.3517,-1.3029,-1.273,-1.2353,-1.2047,-1.2034,-1.2212,-1.2224,-1.2545,-1.3042,-1.3697,-1.4303,-1.4326,-1.4816,-1.4646,0.7557,0.7385,0.7009,0.6966,0.7085,0.7241,0.7771,0.8567,0.9399,1.0364,1.1416,1.2472,1.3294,1.3852,1.3521,1.3484,1.3663,1.3663,1.3711,1.3711,1.3643,1.3558,1.3511,1.3558,1.3595,1.3595,1.3784,1.4286,1.5071,1.5704,1.6182,1.6536,1.6876,1.7111,1.7102,1.6728,1.6038,1.4822,1.3399,1.1637,0.9347,0.6716,0.2142,-0.3675,-0.7202,-0.9727,-1.1896,-1.352,-1.4592,-1.5167,-1.5625,-1.5713,-1.5283,-1.4512,-1.3347,-1.1841,-1.0588,-0.9315,-0.807,-0.744,-0.6724,-0.5836,-0.562,-0.3262,0.1934,0.42,0.4886,0.4297,0.5077,0.5069,0.4107,0.5112,0.6298,0.6897,0.5321,0.5813,0.8443,1.093,1.2208,1.2551,1.3418,1.4238,1.4638,1.4585,1.3405,1.1782,1.1144,1.0026,0.6108,0.1692,-0.4624,-1.1418,-1.4161,-1.4332,-1.4683,-1.4926,-1.4889,-1.5008,-1.5124,-1.4884,-1.4192,-1.3638,-1.348,-1.3231,-1.2984,-1.303,-1.3402,-1.3916,-1.45,-1.4908,-1.5137,-1.5469,-1.5272,-1.4972,-1.4666,0.8461,0.8196,0.7883,0.7783,0.7783,0.7943,0.8362,0.904,0.9909,1.0965,1.2101,1.3311,1.4297,1.5128,1.5496,1.533,1.4903,1.4892,1.5028,1.5118,1.5095,1.5139,1.5217,1.5217,1.5217,1.5217,1.5407,1.5954,1.6754,1.7247,1.7692,1.819,1.8484,1.8772,1.8834,1.8534,1.7855,1.6936,1.5791,1.4211,1.2253,1.0245,0.7123,0.2991,-0.2489,-0.6607,-0.93,-1.1352,-1.2943,-1.4056,-1.4955,-1.5227,-1.4686,-1.3611,-1.2377,-1.1106,-0.9915,-0.8649,-0.7349,-0.6751,-0.5908,-0.4664,-0.467,-0.2403,0.2549,0.6024,0.7668,0.7242,0.8126,0.8711,0.8843,0.8456,0.8266,0.8858,0.8792,0.9148,1.1239,1.3621,1.5177,1.5255,1.6387,1.7427,1.7068,1.6965,1.6297,1.4971,1.4921,1.397,1.169,0.7153,0.0295,-0.6735,-0.9861,-1.1087,-1.353,-1.5397,-1.6384,-1.6403,-1.639,-1.6104,-1.5588,-1.5438,-1.5315,-1.4537,-1.4137,-1.4812,-1.5438,-1.5746,-1.6328,-1.6551,-1.6778,-1.5963,-1.6036,-1.5154,-1.4615,0.9361,0.8995,0.8685,0.858,0.8533,0.8586,0.8956,0.9524,1.0423,1.1507,1.2735,1.4018,1.5184,1.6139,1.6928,1.7081,1.6596,1.6439,1.6409,1.6566,1.665,1.6735,1.6735,1.6806,1.6806,1.6818,1.7055,1.7598,1.8278,1.8711,1.9207,1.9728,2.0005,2.0293,2.0479,2.0304,1.9709,1.8738,1.7877,1.6527,1.467,1.3051,1.1091,0.8245,0.3264,-0.1648,-0.5815,-0.8479,-1.0666,-1.2229,-1.3519,-1.4007,-1.3524,-1.2365,-1.1163,-1.0002,-0.8808,-0.7546,-0.6169,-0.5326,-0.4144,-0.2544,-0.2154,-0.0049,0.4836,0.8629,1.0058,1.0086,1.0919,1.212,1.2268,1.1921,1.1579,1.1604,1.2082,1.2981,1.4105,1.6046,1.7396,1.8129,1.9358,1.999,1.9636,1.9307,1.8565,1.7599,1.7547,1.7312,1.6353,1.1328,0.545,-0.0598,-0.4717,-0.7691,-1.0292,-1.2439,-1.5085,-1.5616,-1.6984,-1.6926,-1.6729,-1.6773,-1.6713,-1.592,-1.6015,-1.6866,-1.7383,-1.7625,-1.7779,-1.7905,-1.7004,-1.5956,-1.558,-1.495,-1.414,1.0182,0.9762,0.9517,0.9316,0.9159,0.9061,0.9375,1.0043,1.0897,1.199,1.3273,1.4641,1.5964,1.7053,1.78,1.8444,1.8797,1.8296,1.797,1.7958,1.8218,1.826,1.8143,1.831,1.831,1.8168,1.8655,1.9134,1.9627,2.0175,2.0654,2.1082,2.1343,2.1595,2.1973,2.1966,2.1445,2.0339,1.9723,1.8566,1.6654,1.5109,1.3543,1.18,0.9411,0.5158,-0.1395,-0.4641,-0.7281,-0.9548,-1.1067,-1.186,-1.1467,-1.0613,-0.9638,-0.8254,-0.7155,-0.5851,-0.4384,-0.306,-0.1614,-0.014,0.1352,0.4101,0.8616,1.1801,1.3204,1.2815,1.3699,1.4467,1.437,1.5745,1.641,1.4879,1.5343,1.6087,1.7029,1.8158,1.948,2.09,2.1929,2.2316,2.2013,2.1492,2.0592,1.9352,1.871,1.8526,1.8297,1.3478,0.9175,0.559,0.1003,-0.3516,-0.6394,-0.9168,-1.2011,-1.4501,-1.6397,-1.736,-1.6919,-1.6849,-1.7485,-1.7022,-1.6747,-1.7455,-1.7106,-1.7326,-1.748,-1.7416,-1.6524,-1.5449,-1.4738,-1.3949,-1.3137,1.0964,1.0651,1.0146,0.9888,0.974,0.9636,0.9844,1.0443,1.1601,1.261,1.3773,1.5441,1.6804,1.7801,1.8698,1.9492,2.0128,2.0119,1.9897,1.9453,1.9525,1.9576,1.9606,1.9677,1.9733,1.9793,2.0088,2.0508,2.0972,2.1447,2.1871,2.2177,2.2461,2.271,2.294,2.3035,2.2592,2.1789,2.0978,1.9819,1.8286,1.6706,1.5238,1.3994,1.2697,1.0377,0.7257,0.2066,-0.2084,-0.4899,-0.6319,-0.7364,-0.7912,-0.7353,-0.635,-0.5333,-0.4181,-0.2924,-0.1728,-0.0737,-0.0044,0.0821,0.3432,0.795,1.2584,1.5221,1.6092,1.5575,1.6544,1.7436,1.8162,1.919,1.9688,1.9374,1.8928,1.8624,1.91,2.0543,2.1924,2.2746,2.3414,2.3411,2.2987,2.2758,2.2216,2.0618,1.9847,1.9415,1.791,1.5281,1.1387,0.7696,0.3843,0.0967,-0.1642,-0.4004,-0.6442,-0.9905,-1.2853,-1.5365,-1.5531,-1.6663,-1.7433,-1.7357,-1.7202,-1.6813,-1.6577,-1.6593,-1.6462,-1.6091,-1.4912,-1.411,-1.3543,-1.2687,-1.1664,1.1728,1.1477,1.0913,1.0557,1.0411,1.0205,1.036,1.0845,1.184,1.2889,1.4057,1.5714,1.7183,1.8355,1.9398,2.0246,2.0927,2.1366,2.1348,2.0958,2.0766,2.0782,2.0846,2.0814,2.0895,2.1068,2.133,2.1699,2.2105,2.2522,2.2884,2.3165,2.3388,2.3584,2.3769,2.3832,2.3526,2.2795,2.2116,2.1137,1.9804,1.8259,1.6995,1.6052,1.5153,1.4211,1.2909,0.884,0.4847,0.1346,-0.0879,-0.2415,-0.3335,-0.2759,-0.2031,-0.1143,-0.0123,0.0995,0.1979,0.2846,0.301,0.3364,0.5597,0.9656,1.4474,1.7571,1.8934,1.8433,1.9116,2.0203,2.0994,2.1727,2.2307,2.2857,2.171,2.116,2.1355,2.2576,2.3666,2.4131,2.4276,2.3929,2.3596,2.2983,2.2736,2.1204,2.0084,1.911,1.7516,1.5775,1.2433,0.968,0.7368,0.4966,0.3079,0.1075,-0.0866,-0.4536,-0.8324,-1.086,-1.2364,-1.4815,-1.6341,-1.5033,-1.4492,-1.3328,-1.2962,-1.3852,-1.4059,-1.3522,-1.2849,-1.1731,-1.0748,-1.0616,-0.9873,1.248,1.2274,1.1769,1.1377,1.1124,1.0871,1.0922,1.1217,1.1913,1.2958,1.425,1.5703,1.7175,1.8646,1.9707,2.0632,2.1477,2.1948,2.2296,2.2289,2.2079,2.1852,2.1811,2.177,2.184,2.2051,2.231,2.2642,2.3012,2.3396,2.3785,2.3985,2.4118,2.4281,2.4386,2.4489,2.415,2.354,2.3165,2.2373,2.118,1.9808,1.8697,1.8002,1.7231,1.6581,1.5856,1.4693,1.2175,0.7825,0.4385,0.2737,0.2425,0.2629,0.3212,0.3888,0.4774,0.5593,0.6413,0.7251,0.741,0.7019,0.8028,1.0468,1.6057,1.9904,2.1504,2.0759,2.1412,2.2198,2.283,2.3303,2.3966,2.4628,2.3587,2.3102,2.3624,2.4085,2.435,2.4763,2.4591,2.3935,2.3342,2.2441,2.1587,2.073,1.9448,1.8272,1.7128,1.5529,1.3443,1.1474,0.9649,0.8105,0.5907,0.4648,0.2772,0.0718,-0.2952,-0.5481,-0.8464,-1.1296,-1.4471,-1.3221,-1.1322,-1.0145,-0.9584,-1.0293,-1.0974,-1.0813,-0.9882,-0.8693,-0.8299,-0.833,-0.8299,1.289,1.2618,1.2314,1.2017,1.1828,1.1678,1.1669,1.1963,1.2755,1.3537,1.4614,1.6158,1.7466,1.8736,1.9798,2.0846,2.1688,2.2265,2.2738,2.3049,2.2944,2.2753,2.2635,2.26,2.266,2.2888,2.3159,2.3436,2.3751,2.4063,2.4334,2.4522,2.4629,2.4752,2.4823,2.4855,2.478,2.4454,2.3742,2.3156,2.2374,2.1097,1.9948,1.9041,1.8845,1.8538,1.8196,1.8144,1.5625,1.064,0.8528,0.758,0.7612,0.7991,0.8404,0.8878,0.9566,1.0197,1.0821,1.178,1.1449,0.9691,1.1228,1.488,2.0937,2.2884,2.3399,2.2918,2.3191,2.3619,2.4005,2.4232,2.4522,2.4617,2.421,2.4057,2.4163,2.4161,2.4032,2.3639,2.3415,2.3009,2.2324,2.1695,2.1044,2.0495,1.9301,1.788,1.6758,1.5695,1.3827,1.2778,1.1266,1.0126,0.8871,0.7686,0.6458,0.5233,0.281,0.0486,-0.2792,-0.6073,-0.9619,-1.1709,-0.8611,-0.6873,-0.6208,-0.6242,-0.6845,-0.7883,-0.7284,-0.64,-0.6533,-0.6633,-0.6568,1.342,1.319,1.2939,1.2735,1.255,1.2452,1.2403,1.2588,1.3234,1.3993,1.4879,1.6163,1.7494,1.8646,1.9713,2.0716,2.1718,2.2265,2.2764,2.3182,2.3414,2.3419,2.3318,2.3318,2.3397,2.3574,2.3808,2.4062,2.428,2.4582,2.4766,2.4858,2.5005,2.5096,2.5118,2.5152,2.513,2.5015,2.4474,2.3988,2.3582,2.2429,2.1601,2.0743,2.0391,1.9812,1.9442,1.9386,1.7553,1.4442,1.2919,1.2341,1.2223,1.2506,1.2799,1.3048,1.3505,1.4009,1.4712,1.5554,1.5651,1.5068,1.5912,1.8625,2.2685,2.4454,2.4409,2.3897,2.4067,2.4271,2.4373,2.4386,2.4265,2.4071,2.398,2.399,2.4102,2.3794,2.3088,2.24,2.2073,2.1834,2.0956,2.049,2.0235,1.9726,1.8541,1.7383,1.6286,1.5342,1.4345,1.3145,1.2059,1.0794,0.9645,0.8505,0.7392,0.6472,0.5355,0.3674,0.1407,-0.1848,-0.4093,-0.6372,-0.4854,-0.3874,-0.3451,-0.3294,-0.4073,-0.4654,-0.4403,-0.466,-0.4842,-0.5165,-0.5079,1.3999,1.3858,1.361,1.3457,1.3351,1.3208,1.3198,1.3256,1.3631,1.4244,1.5119,1.6058,1.7258,1.8531,1.9447,2.0452,2.1368,2.1903,2.2624,2.3151,2.3598,2.3837,2.3834,2.3899,2.4001,2.4136,2.4355,2.4519,2.4718,2.4936,2.5053,2.5135,2.5236,2.532,2.5337,2.5382,2.5365,2.5293,2.5107,2.4827,2.4473,2.3627,2.2969,2.2453,2.1406,2.0643,2.0173,1.9781,1.8749,1.7519,1.7144,1.6387,1.597,1.5992,1.6035,1.6092,1.637,1.6957,1.7862,1.8197,1.9242,2.0203,2.0011,2.1077,2.3579,2.4355,2.4353,2.4104,2.4277,2.4146,2.4009,2.381,2.3472,2.3182,2.2883,2.2995,2.3142,2.3004,2.2258,2.0899,2.0893,2.0337,1.9592,1.9036,1.8826,1.8528,1.7475,1.6441,1.5522,1.4675,1.3852,1.3052,1.2063,1.1127,1.0086,0.9032,0.7946,0.6935,0.5935,0.4612,0.3572,0.1416,0.0661,-0.0,-0.0905,-0.1251,-0.1087,-0.1271,-0.1848,-0.2292,-0.2593,-0.2942,-0.3308,-0.3721,-0.3861,1.4628,1.4525,1.4422,1.434,1.4258,1.4212,1.4165,1.4212,1.449,1.4983,1.5688,1.6403,1.7327,1.8408,1.9111,1.9904,2.0651,2.1272,2.2113,2.3397,2.362,2.3981,2.4173,2.4302,2.4442,2.4575,2.4723,2.4872,2.5022,2.5194,2.5321,2.5352,2.5401,2.5486,2.5525,2.5523,2.5531,2.5459,2.5324,2.5178,2.5011,2.4606,2.403,2.3417,2.2456,2.1641,2.0902,2.0172,1.9109,1.8222,1.8131,1.8063,1.7999,1.8016,1.7974,1.8061,1.8355,1.8783,1.9381,2.0041,2.1146,2.1935,2.2546,2.3198,2.319,2.3443,2.3572,2.3663,2.3637,2.3322,2.2982,2.2726,2.238,2.2088,2.2012,2.1764,2.1259,2.1416,2.116,2.0448,1.9882,1.9445,1.855,1.8012,1.7652,1.7141,1.6355,1.538,1.4662,1.4014,1.3409,1.2803,1.2036,1.1072,1.0043,0.8974,0.7953,0.7075,0.6171,0.5458,0.4401,0.3564,0.2443,0.1952,0.1643,0.1334,0.0798,0.0578,-0.0,-0.0392,-0.0941,-0.1602,-0.2114,-0.2466,-0.2944,1.5175,1.5085,1.513,1.5085,1.504,1.5142,1.522,1.5266,1.5445,1.582,1.6287,1.6828,1.7504,1.8319,1.8855,1.9398,1.9924,2.0555,2.1535,2.2657,2.3135,2.3629,2.4192,2.4503,2.4708,2.4855,2.5012,2.5133,2.5255,2.5371,2.5453,2.549,2.5522,2.5547,2.5613,2.5642,2.5597,2.5546,2.5438,2.5356,2.5282,2.5111,2.4668,2.3953,2.327,2.2621,2.1843,2.0664,1.9558,1.8577,1.8046,1.7862,1.7828,1.7798,1.7826,1.7887,1.8053,1.8558,1.9208,2.0077,2.1038,2.2331,2.3351,2.3277,2.2787,2.2264,2.218,2.2497,2.2452,2.2107,2.1614,2.1279,2.1048,2.1055,2.0936,2.0589,2.0193,2.0212,2.0079,1.9439,1.8852,1.831,1.7679,1.7057,1.6625,1.6219,1.5603,1.4662,1.4247,1.3616,1.3122,1.251,1.1868,1.1028,0.997,0.8875,0.7767,0.6998,0.6288,0.5717,0.5038,0.4372,0.3653,0.3164,0.2632,0.2413,0.1917,0.1834,0.1475,0.0883,0.0173,-0.0501,-0.1122,-0.1708,-0.2255,1.5768,1.5724,1.58,1.5844,1.5888,1.6107,1.6194,1.6281,1.6441,1.6714,1.7037,1.734,1.7961,1.8422,1.8745,1.9035,1.9406,1.9728,2.0556,2.1439,2.219,2.29,2.3648,2.4304,2.4782,2.5022,2.5235,2.5346,2.5439,2.5485,2.5531,2.5584,2.559,2.56,2.5623,2.5644,2.5624,2.5561,2.551,2.547,2.5465,2.5346,2.4943,2.4498,2.411,2.3512,2.257,2.1316,1.9954,1.8782,1.7142,1.6138,1.575,1.5944,1.6,1.6034,1.6326,1.6965,1.7912,1.8805,1.9893,2.1726,2.2426,2.2517,2.1674,2.1002,2.0861,2.0961,2.1008,2.0607,2.0113,1.9856,1.9793,1.9788,1.9649,1.944,1.9333,1.9013,1.8341,1.8232,1.7827,1.7406,1.6714,1.6065,1.5676,1.5254,1.4628,1.4129,1.3721,1.3236,1.2745,1.2157,1.151,1.0508,0.9469,0.8521,0.7442,0.693,0.6337,0.5933,0.5507,0.4845,0.4184,0.3748,0.3306,0.2996,0.2729,0.2415,0.2053,0.1734,0.1142,0.0299,-0.041,-0.1018,-0.1594,1.6705,1.665,1.6752,1.6824,1.6934,1.7047,1.7133,1.7299,1.7463,1.7653,1.7933,1.821,1.8626,1.8936,1.9026,1.9208,1.9179,1.9051,1.9169,2.0014,2.0854,2.1881,2.2959,2.3896,2.4563,2.51,2.5348,2.5473,2.555,2.5598,2.558,2.5605,2.5599,2.559,2.5598,2.5609,2.557,2.5498,2.5473,2.5482,2.5468,2.5448,2.5388,2.5093,2.4837,2.4251,2.3301,2.1875,2.0162,1.8148,1.6019,1.4295,1.3337,1.3784,1.423,1.4549,1.4833,1.5373,1.6244,1.7226,1.8079,1.8956,1.9712,2.0051,1.9836,1.966,1.9516,1.9531,1.9435,1.9009,1.8627,1.8464,1.8489,1.8418,1.8165,1.7841,1.7659,1.7005,1.6376,1.6654,1.6607,1.6523,1.5812,1.5219,1.4835,1.4479,1.3967,1.3621,1.3334,1.29,1.2382,1.1769,1.1099,0.9984,0.8879,0.7974,0.7103,0.688,0.6398,0.611,0.5674,0.5106,0.4539,0.4096,0.3707,0.3398,0.3132,0.2862,0.2502,0.2051,0.1501,0.0919,0.0254,-0.0449,-0.1161,1.7434,1.7393,1.7503,1.7571,1.7693,1.7854,1.8001,1.8198,1.8408,1.8626,1.8902,1.9185,1.9477,1.9687,1.9707,1.9244,1.8355,1.8185,1.8307,1.895,1.9722,2.0789,2.2031,2.3151,2.4092,2.4748,2.5201,2.5472,2.5574,2.5605,2.5574,2.5525,2.5507,2.5493,2.549,2.5447,2.5396,2.5363,2.5343,2.5346,2.5352,2.5434,2.5499,2.542,2.5212,2.4674,2.3728,2.2209,2.0225,1.7918,1.5398,1.3067,1.1563,1.0831,1.1233,1.208,1.278,1.3497,1.4326,1.5314,1.6317,1.7127,1.7639,1.7891,1.8015,1.7984,1.8068,1.8113,1.7997,1.7747,1.7706,1.7325,1.74,1.7721,1.717,1.6343,1.5668,1.4944,1.4991,1.5239,1.5276,1.5198,1.4915,1.4387,1.3978,1.361,1.3228,1.3055,1.2939,1.2567,1.2081,1.1141,1.0442,0.9753,0.8783,0.8044,0.7205,0.6893,0.6576,0.6286,0.589,0.5366,0.4884,0.4399,0.4052,0.3755,0.3442,0.3129,0.2726,0.2368,0.1823,0.1279,0.074,0.0085,-0.0626,1.8187,1.8068,1.8147,1.8226,1.8316,1.8539,1.8707,1.8898,1.9124,1.9427,1.9808,2.0112,2.042,2.0588,2.0262,1.9366,1.7571,1.7899,1.8013,1.8305,1.8728,1.9691,2.0937,2.2191,2.3242,2.4137,2.4831,2.5282,2.5527,2.5542,2.5526,2.5434,2.5379,2.5316,2.5272,2.5216,2.5168,2.5129,2.513,2.5139,2.5222,2.534,2.5441,2.5441,2.5299,2.4815,2.3964,2.2412,2.0313,1.7772,1.5029,1.2282,1.0066,0.8199,0.7876,0.8996,1.0124,1.123,1.2329,1.3517,1.4619,1.5572,1.6069,1.6343,1.6596,1.6741,1.6699,1.6705,1.6659,1.6595,1.6622,1.6244,1.6311,1.6502,1.6013,1.5151,1.4293,1.3793,1.3818,1.3975,1.3993,1.4014,1.3873,1.3521,1.3092,1.3035,1.2706,1.2637,1.2469,1.2386,1.1758,1.0626,0.9834,0.9373,0.8791,0.8379,0.7649,0.7154,0.6843,0.655,0.6125,0.5674,0.5188,0.4705,0.4364,0.4016,0.3707,0.3353,0.304,0.264,0.215,0.1649,0.1014,0.0481,-0.0172,1.908,1.895,1.8822,1.8836,1.8889,1.8988,1.9101,1.9265,1.9551,2.0,2.0398,2.0879,2.1285,2.1532,2.1122,2.0207,1.9231,1.8304,1.7973,1.8084,1.8011,1.8521,1.9604,2.0921,2.2111,2.3176,2.4111,2.4904,2.5291,2.5402,2.5395,2.5327,2.5196,2.5096,2.4979,2.4949,2.4877,2.479,2.4818,2.4943,2.5099,2.5187,2.5283,2.5339,2.5206,2.4841,2.4053,2.2564,2.0508,1.7774,1.4479,1.1986,1.0198,0.7753,0.5878,0.5833,0.6972,0.9203,1.0495,1.1908,1.312,1.4029,1.4673,1.5211,1.5647,1.584,1.5772,1.5576,1.5555,1.5614,1.5608,1.5267,1.5028,1.4949,1.4822,1.4171,1.3497,1.3273,1.3233,1.3062,1.315,1.3208,1.317,1.2706,1.2307,1.2295,1.2234,1.2113,1.1922,1.1707,1.1302,1.0115,0.9518,0.9123,0.8806,0.8443,0.8083,0.7511,0.7173,0.6837,0.6431,0.6,0.5496,0.5058,0.467,0.4192,0.3792,0.3483,0.3265,0.2954,0.2509,0.1925,0.1298,0.0755,0.022,2.0302,1.9639,1.942,1.9302,1.9242,1.9139,1.9191,1.9413,1.9762,2.0258,2.0813,2.1456,2.2084,2.2496,2.2184,2.1449,2.0401,1.9221,1.8303,1.7828,1.7572,1.7678,1.8408,1.9528,2.0698,2.1937,2.3144,2.4156,2.4728,2.52,2.5287,2.5175,2.5019,2.4893,2.4771,2.4682,2.4588,2.4559,2.4607,2.4741,2.4936,2.5084,2.5214,2.5313,2.5222,2.4841,2.4091,2.2754,2.0577,1.7683,1.4193,1.0762,0.8229,0.5662,0.3611,0.3109,0.4351,0.6493,0.8729,1.0436,1.172,1.2793,1.3621,1.437,1.4822,1.5028,1.4994,1.4858,1.4663,1.4673,1.4704,1.4417,1.3993,1.3726,1.3826,1.3548,1.3233,1.3006,1.2852,1.255,1.2353,1.2403,1.2403,1.2147,1.1841,1.1859,1.1728,1.1495,1.1124,1.0592,1.0182,0.9533,0.9221,0.9013,0.8792,0.8541,0.8407,0.7935,0.7452,0.7148,0.6798,0.6349,0.587,0.5376,0.4932,0.4451,0.3921,0.3615,0.3445,0.3179,0.2909,0.2281,0.1657,0.1074,0.0489,2.1749,2.0785,2.0111,1.9617,1.9339,1.9139,1.9153,1.9302,1.9726,2.0311,2.1133,2.2035,2.2951,2.3392,2.3168,2.2501,2.1619,2.0256,1.9045,1.8071,1.7328,1.7053,1.7437,1.821,1.9176,2.0517,2.1871,2.306,2.4088,2.4723,2.5065,2.5091,2.4855,2.4704,2.4578,2.4478,2.4392,2.4393,2.4476,2.4636,2.4836,2.5005,2.5182,2.5253,2.5201,2.4956,2.4267,2.2856,2.0648,1.7547,1.3768,0.9979,0.631,0.3452,0.1889,0.1614,0.2658,0.4409,0.6818,0.8775,1.046,1.1706,1.2939,1.3815,1.3988,1.4082,1.4129,1.4129,1.4035,1.3984,1.3989,1.3699,1.3447,1.3283,1.3266,1.3054,1.2861,1.2598,1.2372,1.2166,1.1909,1.1669,1.1619,1.1528,1.1427,1.1477,1.1234,1.0938,1.0454,0.9902,0.9526,0.911,0.9079,0.8995,0.8829,0.8611,0.849,0.831,0.7821,0.7413,0.7051,0.6698,0.6238,0.5744,0.5203,0.4709,0.4224,0.388,0.3578,0.3265,0.2951,0.2549,0.2014,0.1432,0.0672,2.3481,2.2745,2.0868,1.9767,1.9221,1.904,1.8927,1.895,1.9551,2.0265,2.1269,2.2675,2.372,2.404,2.3848,2.336,2.2603,2.1253,1.9885,1.8564,1.7464,1.676,1.6722,1.6935,1.762,1.8895,2.0499,2.1981,2.3239,2.4384,2.479,2.5014,2.4812,2.4591,2.4462,2.4374,2.4338,2.4391,2.4489,2.4659,2.4891,2.5053,2.5205,2.5313,2.5241,2.4937,2.4367,2.2839,2.0557,1.7481,1.3455,0.9216,0.5226,0.2085,0.0557,0.0502,0.1337,0.2989,0.4938,0.7365,0.9283,1.0738,1.2138,1.3385,1.3409,1.3311,1.3369,1.3515,1.3515,1.343,1.3382,1.3208,1.3112,1.3025,1.2997,1.2803,1.255,1.2147,1.1918,1.1719,1.1519,1.1276,1.1175,1.1124,1.1124,1.1124,1.082,1.047,1.0154,0.9658,0.928,0.8967,0.8995,0.8956,0.8857,0.8711,0.8624,0.8497,0.8223,0.7768,0.7354,0.6988,0.6623,0.6044,0.5496,0.5009,0.453,0.4144,0.3707,0.3347,0.2993,0.2637,0.2103,0.1433,0.0672,2.4277,2.3495,2.1746,2.042,1.9427,1.9049,1.8822,1.8831,1.9391,2.0522,2.1939,2.3216,2.4059,2.4284,2.4284,2.3908,2.3209,2.1987,2.0623,1.9233,1.7968,1.6844,1.6361,1.6207,1.6532,1.789,1.9487,2.1181,2.281,2.4028,2.4706,2.4949,2.4847,2.4651,2.4495,2.4442,2.4454,2.4545,2.4676,2.4867,2.5042,2.5216,2.5311,2.5359,2.5224,2.4828,2.4075,2.2594,2.015,1.7038,1.3162,0.8951,0.4967,0.1811,0.0112,-0.0392,0.0614,0.189,0.3649,0.6196,0.8672,1.0787,1.2036,1.2735,1.289,1.2977,1.3084,1.3152,1.3152,1.3104,1.3055,1.3007,1.2968,1.2871,1.2774,1.2637,1.2332,1.1918,1.1569,1.1418,1.1175,1.0922,1.0871,1.0871,1.082,1.082,1.0411,1.0051,0.9732,0.9465,0.9138,0.8869,0.8896,0.891,0.8804,0.8784,0.8758,0.8631,0.849,0.8088,0.7636,0.7354,0.6925,0.6363,0.5798,0.5275,0.4797,0.4276,0.388,0.3483,0.3126,0.2724,0.2101,0.1433,0.072,2.5303,2.4479,2.2718,2.1128,1.9814,1.9244,1.8893,1.8887,1.9398,2.0751,2.2634,2.3498,2.4136,2.4408,2.4442,2.4192,2.3551,2.2596,2.1416,2.0071,1.87,1.7397,1.6536,1.6237,1.6599,1.766,1.9167,2.0979,2.2831,2.4063,2.4774,2.5079,2.5032,2.4853,2.4666,2.4659,2.47,2.4822,2.496,2.5072,2.5244,2.5362,2.5432,2.5395,2.5207,2.4712,2.3805,2.2345,2.0049,1.6818,1.3172,0.9129,0.5536,0.2522,0.0446,-0.0168,0.0,0.1113,0.3044,0.5761,0.8462,1.0651,1.1763,1.2311,1.2597,1.2832,1.2988,1.3027,1.2978,1.2891,1.2891,1.2929,1.2929,1.2881,1.2676,1.248,1.2175,1.1769,1.1469,1.1175,1.0922,1.0675,1.0742,1.0742,1.0734,1.0683,1.0375,1.0007,0.9621,0.9361,0.9093,0.889,0.8791,0.8804,0.8804,0.8791,0.8778,0.8758,0.8584,0.8267,0.7907,0.7609,0.7154,0.6495,0.597,0.5496,0.5019,0.4456,0.406,0.3619,0.3173,0.2637,0.2103,0.1437,0.0955,2.6683,2.5988,2.3725,2.1838,2.042,1.9717,1.928,1.906,1.9878,2.1175,2.281,2.3602,2.4174,2.4512,2.4545,2.4335,2.395,2.3218,2.2263,2.1051,1.9795,1.8501,1.7661,1.7237,1.749,1.8301,1.9733,2.1406,2.3039,2.4138,2.4863,2.5223,2.5228,2.5107,2.4858,2.4922,2.5022,2.5117,2.5215,2.5313,2.5405,2.5485,2.5498,2.5421,2.5178,2.4669,2.3694,2.2225,1.9925,1.6908,1.33,0.9434,0.569,0.2743,0.0724,-0.0504,-0.0056,0.0892,0.2441,0.5855,0.8397,1.03,1.131,1.204,1.2351,1.2646,1.291,1.2939,1.2881,1.2891,1.2891,1.2891,1.2891,1.2832,1.2627,1.2372,1.2067,1.1669,1.1326,1.1023,1.0726,1.0522,1.0597,1.0664,1.0605,1.0553,1.034,0.9962,0.9577,0.9256,0.9054,0.889,0.8791,0.8804,0.8804,0.8804,0.8798,0.8798,0.8697,0.84,0.818,0.7907,0.7354,0.6631,0.6215,0.5879,0.5252,0.4635,0.4072,0.3462,0.2998,0.2504,0.1971,0.1447,0.092,2.6764,2.6698,2.4524,2.3066,2.208,2.0798,1.9854,1.9492,2.105,2.2398,2.3094,2.383,2.4355,2.461,2.4682,2.4579,2.431,2.3878,2.3004,2.2218,2.1076,2.0193,1.9344,1.8875,1.8889,1.9602,2.0705,2.1677,2.3091,2.4051,2.4705,2.5098,2.5363,2.5335,2.5189,2.519,2.524,2.534,2.5405,2.5461,2.5543,2.5541,2.554,2.5488,2.5176,2.459,2.3673,2.2048,1.9844,1.707,1.3497,0.9994,0.643,0.3504,0.1445,0.0392,0.0448,0.1504,0.349,0.6215,0.8053,0.9614,1.0896,1.1672,1.2036,1.2607,1.2754,1.2842,1.2881,1.2881,1.2891,1.2891,1.2891,1.2832,1.2676,1.2372,1.2067,1.1619,1.1226,1.0871,1.0573,1.0368,1.0391,1.028,1.0221,1.0236,1.0081,0.9962,0.9577,0.9271,0.9068,0.8896,0.8791,0.8798,0.8804,0.8804,0.8804,0.8804,0.8751,0.8617,0.836,0.8141,0.7646,0.7019,0.6653,0.6239,0.5392,0.4525,0.3819,0.3212,0.2874,0.2407,0.19,0.1378,0.08,2.6764,2.6771,2.5094,2.4094,2.3482,2.1993,2.0893,2.0714,2.2419,2.3386,2.3577,2.4137,2.4551,2.4766,2.4877,2.4867,2.4731,2.4358,2.395,2.3271,2.2485,2.1655,2.1033,2.0454,2.0148,2.0557,2.0966,2.1792,2.2652,2.36,2.4458,2.5117,2.5464,2.5468,2.5429,2.5441,2.5447,2.5525,2.5584,2.558,2.5621,2.5605,2.5554,2.5371,2.5014,2.4464,2.3329,2.1771,1.9824,1.7045,1.4049,1.0776,0.7482,0.4642,0.2439,0.134,0.1342,0.245,0.4429,0.628,0.7937,0.9064,1.0311,1.1243,1.1837,1.241,1.2646,1.2735,1.2852,1.291,1.2939,1.293,1.2959,1.291,1.274,1.2491,1.2291,1.1901,1.1308,1.0918,1.0269,1.015,1.0007,0.9895,0.9784,0.9799,0.9821,0.9703,0.9584,0.9278,0.9022,0.8903,0.8791,0.8804,0.8804,0.8804,0.8804,0.8804,0.8758,0.8697,0.8568,0.8333,0.7817,0.7314,0.6683,0.5991,0.5191,0.4416,0.3805,0.3316,0.2942,0.2441,0.1886,0.1316,0.0776,2.6744,2.6456,2.5487,2.4894,2.4393,2.3166,2.2534,2.2599,2.3578,2.3977,2.3969,2.4414,2.4771,2.4991,2.5094,2.511,2.5052,2.4822,2.4502,2.4121,2.3493,2.2893,2.2201,2.1531,2.0848,2.066,2.0806,2.11,2.2022,2.3719,2.4743,2.546,2.6033,2.5996,2.5941,2.581,2.5741,2.5681,2.5615,2.5613,2.5619,2.5586,2.5456,2.5234,2.4845,2.4164,2.3077,2.1636,1.9623,1.7246,1.4831,1.1592,0.8416,0.5416,0.3429,0.2287,0.2291,0.3566,0.4927,0.6612,0.7985,0.918,1.0,1.0867,1.1598,1.2204,1.2454,1.2691,1.2888,1.2948,1.2978,1.3066,1.3105,1.2993,1.2865,1.2763,1.2702,1.2228,1.1618,1.0942,1.007,0.9731,0.9561,0.9399,0.947,0.9368,0.9389,0.9337,0.9225,0.9232,0.8969,0.8857,0.8804,0.8804,0.8804,0.8804,0.8804,0.8804,0.8798,0.8731,0.8602,0.8474,0.8052,0.745,0.6558,0.5785,0.5108,0.4462,0.3853,0.3386,0.296,0.2496,0.1973,0.1381,0.0863,2.6854,2.6778,2.6416,2.5829,2.5062,2.4458,2.3932,2.3551,2.4237,2.4487,2.4441,2.4788,2.5042,2.5206,2.5318,2.5337,2.5279,2.518,2.5008,2.4638,2.416,2.3581,2.2772,2.1831,2.099,2.0182,1.9956,2.0306,2.1854,2.3712,2.5901,2.7011,2.7065,2.6929,2.661,2.6415,2.6085,2.5761,2.5644,2.5527,2.5487,2.543,2.5274,2.5003,2.4562,2.3842,2.2788,2.1437,1.9425,1.7236,1.5348,1.2503,0.8992,0.6333,0.4152,0.2627,0.3251,0.4501,0.5542,0.6972,0.8433,0.9644,1.0519,1.0794,1.1425,1.2093,1.2485,1.2795,1.3132,1.3333,1.3413,1.3484,1.3494,1.3468,1.3332,1.3199,1.3068,1.2593,1.1944,1.0977,1.0079,0.9562,0.9333,0.921,0.9266,0.9116,0.9015,0.8976,0.8962,0.8969,0.8969,0.8804,0.8804,0.8804,0.8804,0.8804,0.8804,0.8804,0.8798,0.8732,0.8652,0.8436,0.8191,0.7467,0.639,0.5705,0.5101,0.4477,0.3855,0.334,0.29,0.2482,0.2027,0.1449,0.0945,2.636,2.6363,2.6386,2.5986,2.5415,2.5194,2.4851,2.4535,2.4716,2.4823,2.486,2.5107,2.5277,2.5363,2.5468,2.5503,2.5428,2.5306,2.5127,2.4793,2.4387,2.3581,2.2716,2.1465,2.007,1.9213,1.8762,1.9008,2.1209,2.4311,2.6752,2.7643,2.7997,2.7684,2.7226,2.6888,2.6587,2.6093,2.5682,2.5379,2.5269,2.515,2.4897,2.4645,2.4174,2.341,2.2461,2.1063,1.92,1.7103,1.5351,1.2811,0.93,0.6508,0.4601,0.3304,0.4029,0.5249,0.6412,0.7564,0.9074,1.0272,1.105,1.1919,1.2462,1.3218,1.314,1.319,1.359,1.3893,1.3912,1.3995,1.4048,1.4058,1.3914,1.3755,1.3356,1.288,1.2003,1.103,1.0308,0.9666,0.9342,0.92,0.9133,0.92,0.9132,0.9018,0.8964,0.885,0.8857,0.8804,0.8804,0.8804,0.8804,0.8804,0.8804,0.8752,0.8692,0.8685,0.8573,0.8336,0.7979,0.7134,0.6139,0.554,0.4994,0.4428,0.3833,0.3409,0.2961,0.2493,0.2022,0.1398,0.0978,2.5629,2.5636,2.5659,2.5664,2.551,2.5488,2.5425,2.5387,2.5091,2.5041,2.5215,2.5372,2.5424,2.5486,2.5542,2.552,2.5395,2.5265,2.4962,2.4683,2.4002,2.3159,2.1834,2.0466,1.878,1.7658,1.747,1.8219,2.0848,2.426,2.7311,2.7911,2.8136,2.8,2.7572,2.7204,2.6754,2.6088,2.5558,2.5143,2.5107,2.4851,2.4506,2.4222,2.3687,2.3025,2.1965,2.0586,1.8994,1.7046,1.4901,1.259,0.8978,0.6308,0.4608,0.4343,0.4933,0.6226,0.748,0.8609,0.9674,1.0683,1.1318,1.2828,1.3775,1.4131,1.4042,1.3876,1.4138,1.4402,1.4515,1.4635,1.47,1.4619,1.4428,1.4232,1.3898,1.3124,1.1897,1.0997,1.0331,0.9748,0.9606,0.9469,0.9471,0.9459,0.9453,0.9357,0.9207,0.9051,0.9017,0.9017,0.8864,0.8864,0.8857,0.8857,0.8804,0.8752,0.8692,0.8296,0.8013,0.7824,0.7699,0.6768,0.5855,0.5404,0.4863,0.4368,0.3975,0.3692,0.3187,0.2609,0.2063,0.1501,0.0888,2.6139,2.5604,2.5687,2.5652,2.5583,2.5566,2.5564,2.5542,2.5469,2.5422,2.544,2.55,2.5544,2.5566,2.5531,2.5472,2.5316,2.5033,2.4669,2.4104,2.3462,2.2268,2.0832,1.9155,1.7386,1.6149,1.6211,1.8238,2.207,2.5658,2.8296,2.9197,2.9145,2.8655,2.7756,2.7344,2.6716,2.5899,2.5393,2.5234,2.5448,2.5366,2.5139,2.4633,2.4036,2.3217,2.2239,2.1181,1.9383,1.7419,1.5163,1.1801,0.7453,0.5855,0.5187,0.5231,0.5988,0.7459,0.8982,1.0151,1.1252,1.2199,1.3133,1.4061,1.4733,1.4946,1.4952,1.4746,1.4729,1.4932,1.5133,1.5256,1.5332,1.5155,1.4965,1.4724,1.4421,1.3083,1.1737,1.1041,1.0382,1.0059,0.9852,0.9822,0.9812,0.9886,1.0023,0.9974,0.9811,0.9663,0.9685,0.9596,0.9102,0.9022,0.8969,0.8857,0.8804,0.8752,0.8699,0.8184,0.7458,0.7283,0.7101,0.6386,0.5605,0.512,0.4739,0.4408,0.4073,0.3855,0.3519,0.2961,0.2348,0.184,0.1006,2.599,2.5615,2.5636,2.5613,2.5574,2.559,2.5576,2.5579,2.5586,2.5581,2.5546,2.5585,2.5604,2.5579,2.5503,2.5304,2.511,2.4731,2.4217,2.3601,2.2678,2.1363,1.9743,1.8158,1.6846,1.57,1.7164,1.976,2.3558,2.6247,2.84,2.9419,2.9399,2.876,2.7757,2.7187,2.6391,2.5541,2.5069,2.5122,2.5373,2.5005,2.4528,2.4059,2.3473,2.2798,2.1964,2.0869,1.9325,1.6995,1.4545,1.179,0.8533,0.6951,0.6492,0.6755,0.7608,0.902,1.0763,1.2207,1.3323,1.4393,1.5628,1.6871,1.6325,1.6475,1.5941,1.5685,1.5422,1.5551,1.5656,1.577,1.577,1.5686,1.5216,1.4819,1.3954,1.2684,1.1766,1.1174,1.0636,1.0362,1.0255,1.037,1.0328,1.0418,1.0566,1.092,1.0696,1.0453,1.0412,1.0161,0.9739,0.9235,0.9015,0.8857,0.8745,0.8752,0.8679,0.7949,0.7182,0.6869,0.6505,0.583,0.5278,0.4904,0.4522,0.4399,0.4262,0.4079,0.3744,0.3297,0.2745,0.2198,0.1409,2.5529,2.5589,2.5579,2.5554,2.5511,2.5535,2.5515,2.549,2.5551,2.5581,2.5571,2.5564,2.5593,2.5547,2.5434,2.5149,2.4835,2.4473,2.3874,2.307,2.2133,2.0908,1.9416,1.7795,1.6824,1.7205,1.8609,2.1064,2.4116,2.6433,2.8022,2.8894,2.8668,2.811,2.7505,2.6756,2.583,2.5167,2.4702,2.4469,2.4236,2.3959,2.3613,2.3068,2.243,2.1819,2.1092,2.0196,1.8982,1.676,1.422,1.1579,0.9713,0.8282,0.8189,0.8381,0.9525,1.1178,1.3058,1.4715,1.5925,1.7258,1.8507,1.8686,1.8011,1.7323,1.6832,1.6446,1.6181,1.6066,1.6114,1.6161,1.6161,1.5989,1.5439,1.4787,1.3597,1.2451,1.1779,1.1233,1.0912,1.0591,1.0591,1.0717,1.0857,1.0952,1.1242,1.1651,1.1807,1.159,1.1407,1.0933,1.0349,0.9818,0.93,0.9025,0.8977,0.8549,0.8359,0.7595,0.6937,0.6607,0.6088,0.5313,0.4851,0.4699,0.4642,0.4565,0.4402,0.426,0.4137,0.3826,0.3297,0.2667,0.1945,2.5453,2.551,2.5452,2.5422,2.541,2.5382,2.5354,2.5335,2.5398,2.5434,2.5437,2.5444,2.5459,2.5505,2.532,2.5061,2.47,2.428,2.3648,2.2888,2.1933,2.067,1.9373,1.8099,1.7558,1.8249,1.9693,2.2102,2.4351,2.6223,2.7585,2.8379,2.7672,2.6953,2.6084,2.535,2.4603,2.403,2.3528,2.3098,2.2996,2.2959,2.3383,2.3014,2.2542,2.2069,2.1472,2.0777,1.9541,1.7451,1.471,1.2184,1.0738,0.9914,0.9858,1.058,1.1717,1.3441,1.5259,1.671,1.7963,1.8608,1.9377,1.9155,1.8433,1.7578,1.7124,1.6832,1.6627,1.6503,1.656,1.6627,1.6581,1.6124,1.5642,1.4666,1.3606,1.2544,1.1725,1.1233,1.08,1.0674,1.0611,1.08,1.1038,1.1269,1.1813,1.2174,1.2613,1.2489,1.2307,1.1711,1.1038,1.047,0.9967,0.9518,0.9223,0.8732,0.8066,0.7287,0.6682,0.6299,0.573,0.5137,0.4938,0.4858,0.4796,0.4738,0.465,0.4585,0.4574,0.436,0.3792,0.3164,0.2418]}]]